<?xml version='1.0' encoding='UTF-8'?><gpx version="1.1" creator="JPX - https://github.com/jenetics/jpx" xmlns="http://www.topografix.com/GPX/1/1"><trk><trkseg><trkpt lat="42.650917458219375" lon="11.982903594997513"><ele>359.0</ele><time>2026-04-18T06:42:37Z</time></trkpt><trkpt lat="42.65085185941109" lon="11.982919057737773"><ele>359.0</ele><time>2026-04-18T06:42:39Z</time></trkpt><trkpt lat="42.65076491617129" lon="11.982911619425398"><ele>359.0</ele><time>2026-04-18T06:42:42Z</time></trkpt><trkpt lat="42.65069460763099" lon="11.982871589172314"><ele>359.0</ele><time>2026-04-18T06:42:45Z</time></trkpt><trkpt lat="42.65067561584572" lon="11.982783221571975"><ele>359.0</ele><time>2026-04-18T06:43:53Z</time></trkpt><trkpt lat="42.6507385231217" lon="11.982648461033035"><ele>359.0</ele><time>2026-04-18T06:43:55Z</time></trkpt><trkpt lat="42.65076616975398" lon="11.98256957034242"><ele>359.2</ele><time>2026-04-18T06:43:56Z</time></trkpt><trkpt lat="42.650782177126935" lon="11.982435670169819"><ele>359.4</ele><time>2026-04-18T06:44:31.002Z</time></trkpt><trkpt lat="42.65076240686574" lon="11.982317425979367"><ele>359.6</ele><time>2026-04-18T06:44:56.001Z</time></trkpt><trkpt lat="42.65069762329685" lon="11.982233478015225"><ele>359.8</ele><time>2026-04-18T06:44:58.001Z</time></trkpt><trkpt lat="42.65063762347041" lon="11.982137273098743"><ele>360.0</ele><time>2026-04-18T06:45:00.001Z</time></trkpt><trkpt lat="42.65054527064209" lon="11.982052529830446"><ele>360.0</ele><time>2026-04-18T06:45:02.001Z</time></trkpt><trkpt lat="42.65043193869579" lon="11.9819794412357"><ele>360.0</ele><time>2026-04-18T06:45:04.001Z</time></trkpt><trkpt lat="42.65035490519563" lon="11.981936216471494"><ele>360.0</ele><time>2026-04-18T06:45:05.001Z</time></trkpt><trkpt lat="42.650269283017636" lon="11.981886989100152"><ele>360.0</ele><time>2026-04-18T06:45:06.001Z</time></trkpt><trkpt lat="42.6501954855027" lon="11.981854148822011"><ele>360.0</ele><time>2026-04-18T06:45:07.001Z</time></trkpt><trkpt lat="42.65013203263031" lon="11.981832445979743"><ele>360.0</ele><time>2026-04-18T06:45:08.001Z</time></trkpt><trkpt lat="42.650074888303806" lon="11.981795897938232"><ele>358.2</ele><time>2026-04-18T06:45:09.001Z</time></trkpt><trkpt lat="42.65001440480421" lon="11.98176390615397"><ele>356.4</ele><time>2026-04-18T06:45:10.001Z</time></trkpt><trkpt lat="42.64992428024182" lon="11.981664567524755"><ele>354.6</ele><time>2026-04-18T06:45:12.001Z</time></trkpt><trkpt lat="42.649869048011986" lon="11.981616244613631"><ele>352.8</ele><time>2026-04-18T06:45:13.001Z</time></trkpt><trkpt lat="42.64976283284907" lon="11.98153613483985"><ele>351.0</ele><time>2026-04-18T06:45:15Z</time></trkpt><trkpt lat="42.64968472339467" lon="11.98146290476843"><ele>351.0</ele><time>2026-04-18T06:45:17Z</time></trkpt><trkpt lat="42.649658631387" lon="11.981374532214161"><ele>351.0</ele><time>2026-04-18T06:45:33Z</time></trkpt><trkpt lat="42.64973256543079" lon="11.981321516225474"><ele>351.0</ele><time>2026-04-18T06:45:35Z</time></trkpt><trkpt lat="42.64983730332011" lon="11.981228954508484"><ele>351.0</ele><time>2026-04-18T06:45:37Z</time></trkpt><trkpt lat="42.64990260529247" lon="11.981201217792854"><ele>351.0</ele><time>2026-04-18T06:45:38Z</time></trkpt><trkpt lat="42.649973390628155" lon="11.981178428256229"><ele>351.0</ele><time>2026-04-18T06:45:39Z</time></trkpt><trkpt lat="42.65005087413661" lon="11.981198859376628"><ele>351.0</ele><time>2026-04-18T06:45:40Z</time></trkpt><trkpt lat="42.65013267106538" lon="11.981192722788288"><ele>351.0</ele><time>2026-04-18T06:45:41Z</time></trkpt><trkpt lat="42.65021653849239" lon="11.981167031652554"><ele>351.0</ele><time>2026-04-18T06:45:42Z</time></trkpt><trkpt lat="42.6502927184722" lon="11.98117949872587"><ele>351.0</ele><time>2026-04-18T06:45:43Z</time></trkpt><trkpt lat="42.650373110347196" lon="11.981165851244002"><ele>351.0</ele><time>2026-04-18T06:45:44Z</time></trkpt><trkpt lat="42.65045829341326" lon="11.98113253804086"><ele>351.0</ele><time>2026-04-18T06:45:45Z</time></trkpt><trkpt lat="42.65055204990977" lon="11.981124187145191"><ele>353.20000000000005</ele><time>2026-04-18T06:45:46Z</time></trkpt><trkpt lat="42.65064962311712" lon="11.981100769644389"><ele>355.40000000000003</ele><time>2026-04-18T06:45:47Z</time></trkpt><trkpt lat="42.65075281107351" lon="11.98106681656674"><ele>357.6</ele><time>2026-04-18T06:45:48Z</time></trkpt><trkpt lat="42.65086061521532" lon="11.981041783563843"><ele>359.8</ele><time>2026-04-18T06:45:49Z</time></trkpt><trkpt lat="42.650964892658244" lon="11.981012038858559"><ele>362.0</ele><time>2026-04-18T06:45:50Z</time></trkpt><trkpt lat="42.651073398310565" lon="11.980997437887487"><ele>361.8</ele><time>2026-04-18T06:45:51Z</time></trkpt><trkpt lat="42.651177227216266" lon="11.980967979640754"><ele>361.6</ele><time>2026-04-18T06:45:52Z</time></trkpt><trkpt lat="42.65127843402239" lon="11.980927028908502"><ele>361.40000000000003</ele><time>2026-04-18T06:45:53Z</time></trkpt><trkpt lat="42.65137980628313" lon="11.980891211394509"><ele>361.20000000000005</ele><time>2026-04-18T06:45:54Z</time></trkpt><trkpt lat="42.6514817219692" lon="11.980860245966682"><ele>361.0</ele><time>2026-04-18T06:45:55Z</time></trkpt><trkpt lat="42.65158317769639" lon="11.98083051619043"><ele>361.0</ele><time>2026-04-18T06:45:56Z</time></trkpt><trkpt lat="42.65168614376637" lon="11.980798695005932"><ele>361.0</ele><time>2026-04-18T06:45:57Z</time></trkpt><trkpt lat="42.65179042609763" lon="11.980769456051451"><ele>361.0</ele><time>2026-04-18T06:45:58Z</time></trkpt><trkpt lat="42.65189197015889" lon="11.98073554137281"><ele>361.0</ele><time>2026-04-18T06:45:59Z</time></trkpt><trkpt lat="42.65199982783777" lon="11.980722104534165"><ele>361.0</ele><time>2026-04-18T06:46:00Z</time></trkpt><trkpt lat="42.652101625977494" lon="11.980667761912459"><ele>362.20000000000005</ele><time>2026-04-18T06:46:01Z</time></trkpt><trkpt lat="42.65220648827915" lon="11.980643037745258"><ele>363.40000000000003</ele><time>2026-04-18T06:46:02Z</time></trkpt><trkpt lat="42.65230530158587" lon="11.980639891439909"><ele>364.6</ele><time>2026-04-18T06:46:03Z</time></trkpt><trkpt lat="42.65240682493874" lon="11.98062715282263"><ele>365.8</ele><time>2026-04-18T06:46:04Z</time></trkpt><trkpt lat="42.652502927864056" lon="11.980592579074035"><ele>367.0</ele><time>2026-04-18T06:46:05Z</time></trkpt><trkpt lat="42.65259603583493" lon="11.980602556197491"><ele>367.0</ele><time>2026-04-18T06:46:06Z</time></trkpt><trkpt lat="42.65269962204739" lon="11.980585218972829"><ele>367.0</ele><time>2026-04-18T06:46:07Z</time></trkpt><trkpt lat="42.652802448854935" lon="11.980560162116788"><ele>367.0</ele><time>2026-04-18T06:46:08Z</time></trkpt><trkpt lat="42.652900902538505" lon="11.980518586853366"><ele>367.0</ele><time>2026-04-18T06:46:09Z</time></trkpt><trkpt lat="42.65297408158268" lon="11.98044490867529"><ele>367.0</ele><time>2026-04-18T06:46:10Z</time></trkpt><trkpt lat="42.653046916546785" lon="11.980403103622406"><ele>367.16666666666663</ele><time>2026-04-18T06:46:11Z</time></trkpt><trkpt lat="42.65309757921329" lon="11.980328610224587"><ele>367.3333333333333</ele><time>2026-04-18T06:46:12Z</time></trkpt><trkpt lat="42.653150908694705" lon="11.980226039790583"><ele>367.5</ele><time>2026-04-18T06:46:13Z</time></trkpt><trkpt lat="42.65321834402258" lon="11.980140219168785"><ele>367.6666666666667</ele><time>2026-04-18T06:46:14Z</time></trkpt><trkpt lat="42.6532726955608" lon="11.98008784498621"><ele>367.83333333333337</ele><time>2026-04-18T06:46:15Z</time></trkpt><trkpt lat="42.65334697761605" lon="11.980031244071306"><ele>368.0</ele><time>2026-04-18T06:46:16Z</time></trkpt><trkpt lat="42.653417568411186" lon="11.979977989338146"><ele>368.0</ele><time>2026-04-18T06:46:17Z</time></trkpt><trkpt lat="42.65349116473167" lon="11.979922467197836"><ele>368.0</ele><time>2026-04-18T06:46:18Z</time></trkpt><trkpt lat="42.65355734378536" lon="11.979872540751746"><ele>368.0</ele><time>2026-04-18T06:46:19Z</time></trkpt><trkpt lat="42.65362160325268" lon="11.979824062501558"><ele>368.0</ele><time>2026-04-18T06:46:20Z</time></trkpt><trkpt lat="42.65368758062174" lon="11.979778138439007"><ele>368.0</ele><time>2026-04-18T06:46:21Z</time></trkpt><trkpt lat="42.653750473578505" lon="11.979734125575886"><ele>368.0</ele><time>2026-04-18T06:46:22Z</time></trkpt><trkpt lat="42.653809414121056" lon="11.979696011005846"><ele>368.0</ele><time>2026-04-18T06:46:23Z</time></trkpt><trkpt lat="42.653871753879194" lon="11.97965569835688"><ele>369.79999999999995</ele><time>2026-04-18T06:46:26Z</time></trkpt><trkpt lat="42.65394180338417" lon="11.979617836294471"><ele>371.6</ele><time>2026-04-18T06:46:54.001Z</time></trkpt><trkpt lat="42.654026769630036" lon="11.97955220445964"><ele>373.4</ele><time>2026-04-18T06:46:56.001Z</time></trkpt><trkpt lat="42.65412660727695" lon="11.979513896007708"><ele>375.20000000000005</ele><time>2026-04-18T06:46:58.001Z</time></trkpt><trkpt lat="42.65422134984108" lon="11.979483096582957"><ele>377.0</ele><time>2026-04-18T06:47:00.001Z</time></trkpt><trkpt lat="42.65430040352832" lon="11.979524646337532"><ele>377.0</ele><time>2026-04-18T06:47:02.001Z</time></trkpt><trkpt lat="42.65437225637662" lon="11.979601547497618"><ele>377.0</ele><time>2026-04-18T06:47:04Z</time></trkpt><trkpt lat="42.65442858173289" lon="11.979683590414126"><ele>377.0</ele><time>2026-04-18T06:47:06Z</time></trkpt><trkpt lat="42.65447636114421" lon="11.979740730749333"><ele>377.0</ele><time>2026-04-18T06:47:07Z</time></trkpt><trkpt lat="42.654531001741354" lon="11.979814553228332"><ele>377.0</ele><time>2026-04-18T06:47:08Z</time></trkpt><trkpt lat="42.65459897938543" lon="11.979899709322702"><ele>377.0</ele><time>2026-04-18T06:47:09Z</time></trkpt><trkpt lat="42.65465676063811" lon="11.979957174996928"><ele>378.83333333333337</ele><time>2026-04-18T06:47:10Z</time></trkpt><trkpt lat="42.65472245146482" lon="11.979988639751179"><ele>380.6666666666667</ele><time>2026-04-18T06:47:11Z</time></trkpt><trkpt lat="42.65479963457434" lon="11.980030983663232"><ele>382.5</ele><time>2026-04-18T06:47:12Z</time></trkpt><trkpt lat="42.654865589270614" lon="11.980066794354059"><ele>384.33333333333337</ele><time>2026-04-18T06:47:13Z</time></trkpt><trkpt lat="42.654963193898055" lon="11.980129920793921"><ele>386.1666666666667</ele><time>2026-04-18T06:47:15Z</time></trkpt><trkpt lat="42.65502365080743" lon="11.98017569382275"><ele>388.0</ele><time>2026-04-18T06:47:17Z</time></trkpt><trkpt lat="42.65514717313915" lon="11.980090317934854"><ele>388.00000000000006</ele><time>2026-04-18T06:47:20Z</time></trkpt><trkpt lat="42.65519807801955" lon="11.980029737341946"><ele>388.0</ele><time>2026-04-18T06:47:21Z</time></trkpt><trkpt lat="42.65525321647187" lon="11.979964509141395"><ele>388.0</ele><time>2026-04-18T06:47:22Z</time></trkpt><trkpt lat="42.65531387499384" lon="11.97989467422342"><ele>388.0</ele><time>2026-04-18T06:47:23Z</time></trkpt><trkpt lat="42.65537790708877" lon="11.979799118567287"><ele>388.00000000000006</ele><time>2026-04-18T06:47:24Z</time></trkpt><trkpt lat="42.655447873755875" lon="11.979714674889811"><ele>388.0</ele><time>2026-04-18T06:47:25Z</time></trkpt><trkpt lat="42.655531963477365" lon="11.979639702633808"><ele>389.0</ele><time>2026-04-18T06:47:26Z</time></trkpt><trkpt lat="42.655602590116395" lon="11.97953124070507"><ele>390.0</ele><time>2026-04-18T06:47:27Z</time></trkpt><trkpt lat="42.65567634485573" lon="11.979437785776579"><ele>391.0</ele><time>2026-04-18T06:47:28Z</time></trkpt><trkpt lat="42.65575436846125" lon="11.97934428340547"><ele>392.0</ele><time>2026-04-18T06:47:29Z</time></trkpt><trkpt lat="42.65581733595213" lon="11.979259886047346"><ele>393.0</ele><time>2026-04-18T06:47:30Z</time></trkpt><trkpt lat="42.655883820800064" lon="11.979172609107934"><ele>393.0</ele><time>2026-04-18T06:47:31Z</time></trkpt><trkpt lat="42.65596028343938" lon="11.979103941679046"><ele>393.0</ele><time>2026-04-18T06:47:32Z</time></trkpt><trkpt lat="42.65602056401041" lon="11.979027522557907"><ele>393.0</ele><time>2026-04-18T06:47:33Z</time></trkpt><trkpt lat="42.65607317003663" lon="11.978934083976053"><ele>393.0</ele><time>2026-04-18T06:47:34Z</time></trkpt><trkpt lat="42.65613224697381" lon="11.978858110297502"><ele>393.0</ele><time>2026-04-18T06:47:35Z</time></trkpt><trkpt lat="42.65619051619789" lon="11.978768929423028"><ele>393.0</ele><time>2026-04-18T06:47:36Z</time></trkpt><trkpt lat="42.65624989045384" lon="11.978673564118434"><ele>393.2</ele><time>2026-04-18T06:47:37Z</time></trkpt><trkpt lat="42.656327163084725" lon="11.978586325632678"><ele>393.4</ele><time>2026-04-18T06:47:38Z</time></trkpt><trkpt lat="42.656398340147" lon="11.978477744606458"><ele>393.59999999999997</ele><time>2026-04-18T06:47:39Z</time></trkpt><trkpt lat="42.65646182751289" lon="11.978379050631178"><ele>393.79999999999995</ele><time>2026-04-18T06:47:40Z</time></trkpt><trkpt lat="42.65653068453445" lon="11.978272009284636"><ele>394.0</ele><time>2026-04-18T06:47:41Z</time></trkpt><trkpt lat="42.656606510310816" lon="11.978154134640077"><ele>394.0</ele><time>2026-04-18T06:47:42Z</time></trkpt><trkpt lat="42.65668068218679" lon="11.978042588322873"><ele>394.0</ele><time>2026-04-18T06:47:43Z</time></trkpt><trkpt lat="42.656755573553205" lon="11.977934682867366"><ele>394.0</ele><time>2026-04-18T06:47:44Z</time></trkpt><trkpt lat="42.656830759352985" lon="11.977831770708102"><ele>394.0</ele><time>2026-04-18T06:47:45Z</time></trkpt><trkpt lat="42.6568978101627" lon="11.977742578403976"><ele>394.0</ele><time>2026-04-18T06:47:46Z</time></trkpt><trkpt lat="42.65696535395527" lon="11.977644802464107"><ele>394.79999999999995</ele><time>2026-04-18T06:47:47Z</time></trkpt><trkpt lat="42.657043350519835" lon="11.977533845369619"><ele>395.59999999999997</ele><time>2026-04-18T06:47:48Z</time></trkpt><trkpt lat="42.657125166925454" lon="11.977429202812125"><ele>396.4</ele><time>2026-04-18T06:47:49Z</time></trkpt><trkpt lat="42.657205557976546" lon="11.977321880734126"><ele>397.2</ele><time>2026-04-18T06:47:50Z</time></trkpt><trkpt lat="42.657282498011874" lon="11.97721543728857"><ele>398.0</ele><time>2026-04-18T06:47:51Z</time></trkpt><trkpt lat="42.65734385547375" lon="11.977129246244926"><ele>398.0</ele><time>2026-04-18T06:47:52Z</time></trkpt><trkpt lat="42.65740866113648" lon="11.977043807446409"><ele>398.0</ele><time>2026-04-18T06:47:53Z</time></trkpt><trkpt lat="42.65748806927354" lon="11.976961126650188"><ele>398.0</ele><time>2026-04-18T06:47:54Z</time></trkpt><trkpt lat="42.657568791872755" lon="11.976879559098341"><ele>398.0</ele><time>2026-04-18T06:47:55Z</time></trkpt><trkpt lat="42.65765419392237" lon="11.976805079802354"><ele>398.0</ele><time>2026-04-18T06:47:56Z</time></trkpt><trkpt lat="42.6577481745944" lon="11.976730037882493"><ele>398.2</ele><time>2026-04-18T06:47:57Z</time></trkpt><trkpt lat="42.65783269641191" lon="11.976654254234413"><ele>398.4</ele><time>2026-04-18T06:47:58Z</time></trkpt><trkpt lat="42.65791267980565" lon="11.97659789047644"><ele>398.59999999999997</ele><time>2026-04-18T06:47:58.999Z</time></trkpt><trkpt lat="42.65797738176477" lon="11.976555401316142"><ele>398.79999999999995</ele><time>2026-04-18T06:47:59.999Z</time></trkpt><trkpt lat="42.6580607612309" lon="11.976503814393796"><ele>399.0</ele><time>2026-04-18T06:48:00.999Z</time></trkpt><trkpt lat="42.65816061109817" lon="11.976455427642325"><ele>399.0</ele><time>2026-04-18T06:48:01.999Z</time></trkpt><trkpt lat="42.65825215743241" lon="11.976374719552961"><ele>399.0</ele><time>2026-04-18T06:48:02.999Z</time></trkpt><trkpt lat="42.65830914567097" lon="11.976276526991978"><ele>399.0</ele><time>2026-04-18T06:48:03.999Z</time></trkpt><trkpt lat="42.65836899709045" lon="11.976173911096101"><ele>399.0</ele><time>2026-04-18T06:48:04.999Z</time></trkpt><trkpt lat="42.65844209682703" lon="11.97604338375371"><ele>399.0</ele><time>2026-04-18T06:48:05.999Z</time></trkpt><trkpt lat="42.65852831692227" lon="11.97587733777751"><ele>399.2</ele><time>2026-04-18T06:48:06.999Z</time></trkpt><trkpt lat="42.6586098459097" lon="11.9757560156854"><ele>399.4</ele><time>2026-04-18T06:48:07.999Z</time></trkpt><trkpt lat="42.6586715315183" lon="11.97564849874097"><ele>399.6</ele><time>2026-04-18T06:48:08.999Z</time></trkpt><trkpt lat="42.658733588666244" lon="11.975545229133834"><ele>399.8</ele><time>2026-04-18T06:48:09.999Z</time></trkpt><trkpt lat="42.65878585910561" lon="11.975427636419772"><ele>400.0</ele><time>2026-04-18T06:48:10.999Z</time></trkpt><trkpt lat="42.65886492675473" lon="11.975345166806607"><ele>400.00000000000006</ele><time>2026-04-18T06:48:11.999Z</time></trkpt><trkpt lat="42.65892268253295" lon="11.975272521846355"><ele>400.0</ele><time>2026-04-18T06:48:12.999Z</time></trkpt><trkpt lat="42.65897686691529" lon="11.975207642549615"><ele>400.0</ele><time>2026-04-18T06:48:13.999Z</time></trkpt><trkpt lat="42.65902959009216" lon="11.975147100376294"><ele>400.0</ele><time>2026-04-18T06:48:14.999Z</time></trkpt><trkpt lat="42.65908394005949" lon="11.975087543106747"><ele>400.00000000000006</ele><time>2026-04-18T06:48:15.999Z</time></trkpt><trkpt lat="42.65914585262841" lon="11.975024426649991"><ele>400.0</ele><time>2026-04-18T06:48:16.999Z</time></trkpt><trkpt lat="42.659220826055666" lon="11.974956216073839"><ele>399.33333333333337</ele><time>2026-04-18T06:48:17.999Z</time></trkpt><trkpt lat="42.6592919253316" lon="11.97490481449397"><ele>398.6666666666667</ele><time>2026-04-18T06:48:18.999Z</time></trkpt><trkpt lat="42.659359710791556" lon="11.974866346278219"><ele>398.0</ele><time>2026-04-18T06:48:19.999Z</time></trkpt><trkpt lat="42.65942837428965" lon="11.974837186613197"><ele>397.33333333333337</ele><time>2026-04-18T06:48:20.999Z</time></trkpt><trkpt lat="42.65951374247656" lon="11.97481559073198"><ele>396.6666666666667</ele><time>2026-04-18T06:48:21.999Z</time></trkpt><trkpt lat="42.659601307698786" lon="11.974812891334075"><ele>396.0</ele><time>2026-04-18T06:48:22.999Z</time></trkpt><trkpt lat="42.659703145375076" lon="11.974822911883951"><ele>395.8333333333333</ele><time>2026-04-18T06:48:23.999Z</time></trkpt><trkpt lat="42.659806920376745" lon="11.97484398357677"><ele>395.66666666666663</ele><time>2026-04-18T06:48:24.999Z</time></trkpt><trkpt lat="42.65989681821485" lon="11.974868575252732"><ele>395.5</ele><time>2026-04-18T06:48:25.999Z</time></trkpt><trkpt lat="42.65998093112819" lon="11.97489685664878"><ele>395.3333333333333</ele><time>2026-04-18T06:48:26.999Z</time></trkpt><trkpt lat="42.66004755396423" lon="11.974932146136556"><ele>395.16666666666663</ele><time>2026-04-18T06:48:27.999Z</time></trkpt><trkpt lat="42.6601118158477" lon="11.97498037033556"><ele>395.0</ele><time>2026-04-18T06:48:28.999Z</time></trkpt><trkpt lat="42.66017564797504" lon="11.975024486588149"><ele>394.8</ele><time>2026-04-18T06:48:29.999Z</time></trkpt><trkpt lat="42.66027491758145" lon="11.975058788021235"><ele>394.6</ele><time>2026-04-18T06:48:31.999Z</time></trkpt><trkpt lat="42.66039472131131" lon="11.974974834598827"><ele>394.4</ele><time>2026-04-18T06:48:33.999Z</time></trkpt><trkpt lat="42.660464002862994" lon="11.974891292581141"><ele>394.2</ele><time>2026-04-18T06:48:34.999Z</time></trkpt><trkpt lat="42.66054904964113" lon="11.974782292000716"><ele>394.0</ele><time>2026-04-18T06:48:35.999Z</time></trkpt><trkpt lat="42.66063591558567" lon="11.974670539413218"><ele>394.0</ele><time>2026-04-18T06:48:37.001Z</time></trkpt><trkpt lat="42.660716803922696" lon="11.974572860425573"><ele>394.0</ele><time>2026-04-18T06:48:38.001Z</time></trkpt><trkpt lat="42.66078724335956" lon="11.974475515294388"><ele>394.0</ele><time>2026-04-18T06:48:39.001Z</time></trkpt><trkpt lat="42.660841113072394" lon="11.974373798939654"><ele>394.0</ele><time>2026-04-18T06:48:40.001Z</time></trkpt><trkpt lat="42.66087243998956" lon="11.974263359744604"><ele>394.0</ele><time>2026-04-18T06:48:41.001Z</time></trkpt><trkpt lat="42.66090150464723" lon="11.97415314625563"><ele>393.79999999999995</ele><time>2026-04-18T06:48:42.001Z</time></trkpt><trkpt lat="42.660931036196196" lon="11.974039876126618"><ele>393.59999999999997</ele><time>2026-04-18T06:48:43.001Z</time></trkpt><trkpt lat="42.660956276503114" lon="11.973916758839781"><ele>393.4</ele><time>2026-04-18T06:48:44.001Z</time></trkpt><trkpt lat="42.660988348962206" lon="11.973811454000309"><ele>393.2</ele><time>2026-04-18T06:48:45.001Z</time></trkpt><trkpt lat="42.66102403858972" lon="11.97373020588858"><ele>393.0</ele><time>2026-04-18T06:48:46.001Z</time></trkpt><trkpt lat="42.661109497336476" lon="11.973586621856207"><ele>393.1666666666667</ele><time>2026-04-18T06:48:48.001Z</time></trkpt><trkpt lat="42.6611567227138" lon="11.97350850848575"><ele>393.33333333333337</ele><time>2026-04-18T06:48:49.001Z</time></trkpt><trkpt lat="42.661190993363256" lon="11.973423902041471"><ele>393.5</ele><time>2026-04-18T06:48:50.001Z</time></trkpt><trkpt lat="42.661239588209796" lon="11.973268035171442"><ele>393.6666666666667</ele><time>2026-04-18T06:48:52.001Z</time></trkpt><trkpt lat="42.661265809221646" lon="11.973181286917601"><ele>393.83333333333337</ele><time>2026-04-18T06:48:53.001Z</time></trkpt><trkpt lat="42.661276316232644" lon="11.973066390031407"><ele>394.0</ele><time>2026-04-18T06:48:54.001Z</time></trkpt><trkpt lat="42.66130679810656" lon="11.972955590245878"><ele>394.0</ele><time>2026-04-18T06:48:55.001Z</time></trkpt><trkpt lat="42.66132986458808" lon="11.972875198329941"><ele>394.0</ele><time>2026-04-18T06:48:56.001Z</time></trkpt><trkpt lat="42.66135643048222" lon="11.972794827400044"><ele>394.0</ele><time>2026-04-18T06:48:57.001Z</time></trkpt><trkpt lat="42.661379325121246" lon="11.972711146675726"><ele>394.0</ele><time>2026-04-18T06:48:58Z</time></trkpt><trkpt lat="42.66141666214929" lon="11.97261950602267"><ele>394.0</ele><time>2026-04-18T06:48:59Z</time></trkpt><trkpt lat="42.66144811863632" lon="11.972538178195549"><ele>394.0</ele><time>2026-04-18T06:49:00Z</time></trkpt><trkpt lat="42.66148536775515" lon="11.97246585722524"><ele>394.0</ele><time>2026-04-18T06:49:01Z</time></trkpt><trkpt lat="42.66153219192303" lon="11.972368418861292"><ele>393.33333333333337</ele><time>2026-04-18T06:49:02Z</time></trkpt><trkpt lat="42.661569362091754" lon="11.972286661941881"><ele>392.6666666666667</ele><time>2026-04-18T06:49:03Z</time></trkpt><trkpt lat="42.66159731179258" lon="11.97220666597447"><ele>392.0</ele><time>2026-04-18T06:49:04Z</time></trkpt><trkpt lat="42.66162132993196" lon="11.97210978566028"><ele>391.33333333333337</ele><time>2026-04-18T06:49:05Z</time></trkpt><trkpt lat="42.66163781175955" lon="11.971974702743152"><ele>390.6666666666667</ele><time>2026-04-18T06:49:06Z</time></trkpt><trkpt lat="42.66165286139817" lon="11.97183684505936"><ele>390.0</ele><time>2026-04-18T06:49:07Z</time></trkpt><trkpt lat="42.661668390808174" lon="11.971706957208395"><ele>390.2</ele><time>2026-04-18T06:49:08Z</time></trkpt><trkpt lat="42.66168392687195" lon="11.971564924913235"><ele>390.4</ele><time>2026-04-18T06:49:09Z</time></trkpt><trkpt lat="42.66169872398131" lon="11.971429648216512"><ele>390.6</ele><time>2026-04-18T06:49:10Z</time></trkpt><trkpt lat="42.66171330166058" lon="11.971296377529297"><ele>390.8</ele><time>2026-04-18T06:49:11Z</time></trkpt><trkpt lat="42.661726681975765" lon="11.971174053216373"><ele>391.0</ele><time>2026-04-18T06:49:12Z</time></trkpt><trkpt lat="42.66174076520568" lon="11.971045302805724"><ele>391.00000000000006</ele><time>2026-04-18T06:49:13Z</time></trkpt><trkpt lat="42.66175585248586" lon="11.970907741919634"><ele>391.0</ele><time>2026-04-18T06:49:14Z</time></trkpt><trkpt lat="42.661770355346675" lon="11.970772889561013"><ele>391.0</ele><time>2026-04-18T06:49:15Z</time></trkpt><trkpt lat="42.66178144689869" lon="11.970653820153416"><ele>391.0</ele><time>2026-04-18T06:49:16Z</time></trkpt><trkpt lat="42.661785771638776" lon="11.97056130361351"><ele>391.00000000000006</ele><time>2026-04-18T06:49:17Z</time></trkpt><trkpt lat="42.66179296888768" lon="11.970442387515906"><ele>391.0</ele><time>2026-04-18T06:49:18Z</time></trkpt><trkpt lat="42.661805023297" lon="11.970327276729183"><ele>391.8</ele><time>2026-04-18T06:49:19Z</time></trkpt><trkpt lat="42.661827822592656" lon="11.970216914246743"><ele>392.6</ele><time>2026-04-18T06:49:20Z</time></trkpt><trkpt lat="42.661858397153466" lon="11.970088612919094"><ele>393.4</ele><time>2026-04-18T06:49:21Z</time></trkpt><trkpt lat="42.66189745083806" lon="11.96995626632683"><ele>394.2</ele><time>2026-04-18T06:49:22Z</time></trkpt><trkpt lat="42.66193978450246" lon="11.969824869215755"><ele>395.0</ele><time>2026-04-18T06:49:23Z</time></trkpt><trkpt lat="42.66198148523306" lon="11.96970497323567"><ele>395.2</ele><time>2026-04-18T06:49:24Z</time></trkpt><trkpt lat="42.66202337845118" lon="11.969602007591007"><ele>395.4</ele><time>2026-04-18T06:49:25Z</time></trkpt><trkpt lat="42.66206863068032" lon="11.969494188729854"><ele>395.6</ele><time>2026-04-18T06:49:26Z</time></trkpt><trkpt lat="42.6621150282047" lon="11.96938689969719"><ele>395.8</ele><time>2026-04-18T06:49:27Z</time></trkpt><trkpt lat="42.66216992234266" lon="11.96925939862976"><ele>396.0</ele><time>2026-04-18T06:49:28Z</time></trkpt><trkpt lat="42.66221796527523" lon="11.969145674698817"><ele>396.0</ele><time>2026-04-18T06:49:29Z</time></trkpt><trkpt lat="42.6622617409105" lon="11.96902970050306"><ele>396.0</ele><time>2026-04-18T06:49:30Z</time></trkpt><trkpt lat="42.66230188406654" lon="11.968910375641231"><ele>396.0</ele><time>2026-04-18T06:49:31Z</time></trkpt><trkpt lat="42.662336821713836" lon="11.968764892359872"><ele>396.0</ele><time>2026-04-18T06:49:32Z</time></trkpt><trkpt lat="42.662369050602265" lon="11.968628044586838"><ele>396.0</ele><time>2026-04-18T06:49:33Z</time></trkpt><trkpt lat="42.66239898984085" lon="11.968505828922488"><ele>396.0</ele><time>2026-04-18T06:49:34Z</time></trkpt><trkpt lat="42.662429951239744" lon="11.968369956569168"><ele>396.0</ele><time>2026-04-18T06:49:35Z</time></trkpt><trkpt lat="42.662444929719626" lon="11.968235626595444"><ele>396.0</ele><time>2026-04-18T06:49:36Z</time></trkpt><trkpt lat="42.662467935449364" lon="11.968123141875772"><ele>396.0</ele><time>2026-04-18T06:49:37Z</time></trkpt><trkpt lat="42.66249817686283" lon="11.968022956591598"><ele>396.0</ele><time>2026-04-18T06:49:38Z</time></trkpt><trkpt lat="42.66251780599513" lon="11.967928095823494"><ele>396.0</ele><time>2026-04-18T06:49:40Z</time></trkpt><trkpt lat="42.66250519974758" lon="11.967740701032884"><ele>395.8333333333333</ele><time>2026-04-18T06:49:48Z</time></trkpt><trkpt lat="42.66248503936625" lon="11.967654012470293"><ele>395.66666666666663</ele><time>2026-04-18T06:49:49Z</time></trkpt><trkpt lat="42.66248715084816" lon="11.967511824881612"><ele>395.5</ele><time>2026-04-18T06:49:50.999Z</time></trkpt><trkpt lat="42.6625019849524" lon="11.96736796647356"><ele>395.3333333333333</ele><time>2026-04-18T06:49:52.999Z</time></trkpt><trkpt lat="42.66252354045645" lon="11.967274159823628"><ele>395.16666666666663</ele><time>2026-04-18T06:49:53.999Z</time></trkpt><trkpt lat="42.66255688486666" lon="11.967188942604322"><ele>395.0</ele><time>2026-04-18T06:49:54.999Z</time></trkpt><trkpt lat="42.66259150957436" lon="11.967106563417678"><ele>394.8</ele><time>2026-04-18T06:49:55.999Z</time></trkpt><trkpt lat="42.66263473351005" lon="11.967027976932414"><ele>394.6</ele><time>2026-04-18T06:49:56.999Z</time></trkpt><trkpt lat="42.662682301299334" lon="11.966938231956915"><ele>394.4</ele><time>2026-04-18T06:49:57.999Z</time></trkpt><trkpt lat="42.662722232147146" lon="11.966832640544743"><ele>394.2</ele><time>2026-04-18T06:49:58.999Z</time></trkpt><trkpt lat="42.662767781850754" lon="11.966688683962726"><ele>394.0</ele><time>2026-04-18T06:49:59.999Z</time></trkpt><trkpt lat="42.6628120909938" lon="11.966545333928591"><ele>394.33333333333337</ele><time>2026-04-18T06:50:00.999Z</time></trkpt><trkpt lat="42.662850361379526" lon="11.966439397605203"><ele>394.6666666666667</ele><time>2026-04-18T06:50:01.999Z</time></trkpt><trkpt lat="42.66288439431805" lon="11.966365880231447"><ele>395.0</ele><time>2026-04-18T06:50:02.999Z</time></trkpt><trkpt lat="42.662930997215085" lon="11.966277786138265"><ele>395.33333333333337</ele><time>2026-04-18T06:50:03.999Z</time></trkpt><trkpt lat="42.66298609025477" lon="11.966189965027425"><ele>395.6666666666667</ele><time>2026-04-18T06:50:04.999Z</time></trkpt><trkpt lat="42.66304692587825" lon="11.966095999329097"><ele>396.0</ele><time>2026-04-18T06:50:05.999Z</time></trkpt><trkpt lat="42.663107180334116" lon="11.966011900296214"><ele>396.0</ele><time>2026-04-18T06:50:06.999Z</time></trkpt><trkpt lat="42.66317693896382" lon="11.965927067028362"><ele>396.0</ele><time>2026-04-18T06:50:07.999Z</time></trkpt><trkpt lat="42.66324825408816" lon="11.965847977390348"><ele>396.0</ele><time>2026-04-18T06:50:08.999Z</time></trkpt><trkpt lat="42.66333402728658" lon="11.965754066994306"><ele>396.0</ele><time>2026-04-18T06:50:09.999Z</time></trkpt><trkpt lat="42.66341548682943" lon="11.965668511004695"><ele>396.0</ele><time>2026-04-18T06:50:10.999Z</time></trkpt><trkpt lat="42.663477549426084" lon="11.965599315342697"><ele>396.0</ele><time>2026-04-18T06:50:11.999Z</time></trkpt><trkpt lat="42.66353895161797" lon="11.965519791146821"><ele>396.0</ele><time>2026-04-18T06:50:12.999Z</time></trkpt><trkpt lat="42.6635890525191" lon="11.965440165666795"><ele>396.0</ele><time>2026-04-18T06:50:13.999Z</time></trkpt><trkpt lat="42.66362974919439" lon="11.965348413917825"><ele>396.0</ele><time>2026-04-18T06:50:14.999Z</time></trkpt><trkpt lat="42.66365533268578" lon="11.965244932729247"><ele>396.0</ele><time>2026-04-18T06:50:15.999Z</time></trkpt><trkpt lat="42.66367373744904" lon="11.96509463382909"><ele>396.0</ele><time>2026-04-18T06:50:16.999Z</time></trkpt><trkpt lat="42.66369193528697" lon="11.964972480198453"><ele>396.2857142857143</ele><time>2026-04-18T06:50:17.999Z</time></trkpt><trkpt lat="42.663717250514665" lon="11.964863616719526"><ele>396.57142857142856</ele><time>2026-04-18T06:50:18.999Z</time></trkpt><trkpt lat="42.66375076679788" lon="11.964779103225725"><ele>396.85714285714283</ele><time>2026-04-18T06:50:19.999Z</time></trkpt><trkpt lat="42.6637885779333" lon="11.964697875087845"><ele>397.1428571428571</ele><time>2026-04-18T06:50:20.999Z</time></trkpt><trkpt lat="42.663829867847056" lon="11.964618685598223"><ele>397.42857142857144</ele><time>2026-04-18T06:50:21.999Z</time></trkpt><trkpt lat="42.66387383103286" lon="11.964546601169161"><ele>397.71428571428567</ele><time>2026-04-18T06:50:22.999Z</time></trkpt><trkpt lat="42.66391894252262" lon="11.96447974238641"><ele>398.0</ele><time>2026-04-18T06:50:23.999Z</time></trkpt><trkpt lat="42.663969444821994" lon="11.964418711186145"><ele>398.0</ele><time>2026-04-18T06:50:24.999Z</time></trkpt><trkpt lat="42.66405606796865" lon="11.964300113761396"><ele>398.0</ele><time>2026-04-18T06:50:26.999Z</time></trkpt><trkpt lat="42.66408206390044" lon="11.9642146472071"><ele>398.0</ele><time>2026-04-18T06:50:27.999Z</time></trkpt><trkpt lat="42.66405575577397" lon="11.964027434715396"><ele>398.0</ele><time>2026-04-18T06:50:29.999Z</time></trkpt><trkpt lat="42.66403699975323" lon="11.96392643986488"><ele>398.0</ele><time>2026-04-18T06:50:30.999Z</time></trkpt><trkpt lat="42.66402491104132" lon="11.96381349134531"><ele>397.99999999999994</ele><time>2026-04-18T06:50:31.999Z</time></trkpt><trkpt lat="42.664030113060484" lon="11.963648457983874"><ele>398.0</ele><time>2026-04-18T06:50:33.999Z</time></trkpt><trkpt lat="42.664039582718246" lon="11.963559368217526"><ele>398.0</ele><time>2026-04-18T06:50:34.999Z</time></trkpt><trkpt lat="42.66405382468419" lon="11.963475272446958"><ele>398.0</ele><time>2026-04-18T06:50:35.999Z</time></trkpt><trkpt lat="42.664073302094344" lon="11.963385921738926"><ele>397.99999999999994</ele><time>2026-04-18T06:50:36.999Z</time></trkpt><trkpt lat="42.66409891487992" lon="11.96330202470201"><ele>398.0</ele><time>2026-04-18T06:50:37.999Z</time></trkpt><trkpt lat="42.66415491695776" lon="11.963170488547714"><ele>398.2</ele><time>2026-04-18T06:50:39.999Z</time></trkpt><trkpt lat="42.66419690011181" lon="11.963098409548044"><ele>398.4</ele><time>2026-04-18T06:50:40.999Z</time></trkpt><trkpt lat="42.66423994856099" lon="11.963034308236018"><ele>398.59999999999997</ele><time>2026-04-18T06:50:42.001Z</time></trkpt><trkpt lat="42.66433086512842" lon="11.962937431911207"><ele>398.79999999999995</ele><time>2026-04-18T06:50:44.001Z</time></trkpt><trkpt lat="42.66441718945606" lon="11.962877368148616"><ele>399.0</ele><time>2026-04-18T06:50:46.001Z</time></trkpt><trkpt lat="42.664517650426504" lon="11.962829044263131"><ele>399.0</ele><time>2026-04-18T06:50:48Z</time></trkpt><trkpt lat="42.664633082080805" lon="11.96275212871185"><ele>399.0</ele><time>2026-04-18T06:50:50Z</time></trkpt><trkpt lat="42.66471425388532" lon="11.96273308866393"><ele>399.0</ele><time>2026-04-18T06:50:51Z</time></trkpt><trkpt lat="42.664777290235094" lon="11.962708097799029"><ele>399.0</ele><time>2026-04-18T06:50:52Z</time></trkpt><trkpt lat="42.66489810905484" lon="11.962655697401404"><ele>399.0</ele><time>2026-04-18T06:50:54Z</time></trkpt><trkpt lat="42.664964677175426" lon="11.962625091445215"><ele>399.0</ele><time>2026-04-18T06:50:55Z</time></trkpt><trkpt lat="42.665080581600655" lon="11.962561408853563"><ele>399.0</ele><time>2026-04-18T06:50:57Z</time></trkpt><trkpt lat="42.665191382724416" lon="11.962476653165144"><ele>399.0</ele><time>2026-04-18T06:50:59Z</time></trkpt><trkpt lat="42.66526796584904" lon="11.962383237910908"><ele>399.0</ele><time>2026-04-18T06:51:01Z</time></trkpt><trkpt lat="42.66532557609397" lon="11.96221398814594"><ele>397.6666666666667</ele><time>2026-04-18T06:51:03Z</time></trkpt><trkpt lat="42.66530815272235" lon="11.962115612390184"><ele>396.33333333333337</ele><time>2026-04-18T06:51:04Z</time></trkpt><trkpt lat="42.66528205809998" lon="11.961999686083042"><ele>395.0</ele><time>2026-04-18T06:51:05Z</time></trkpt><trkpt lat="42.66524480111268" lon="11.96187706107321"><ele>393.6666666666667</ele><time>2026-04-18T06:51:06Z</time></trkpt><trkpt lat="42.66521068583824" lon="11.96178574937202"><ele>392.33333333333337</ele><time>2026-04-18T06:51:07Z</time></trkpt><trkpt lat="42.665156311257334" lon="11.961711001075862"><ele>391.0</ele><time>2026-04-18T06:51:08Z</time></trkpt><trkpt lat="42.66512528254733" lon="11.961632550807463"><ele>390.20000000000005</ele><time>2026-04-18T06:51:09Z</time></trkpt><trkpt lat="42.665091432823175" lon="11.961554889913165"><ele>389.40000000000003</ele><time>2026-04-18T06:51:10Z</time></trkpt><trkpt lat="42.66501706439237" lon="11.96143602854343"><ele>388.6</ele><time>2026-04-18T06:51:11Z</time></trkpt><trkpt lat="42.66491482615842" lon="11.961302722882483"><ele>387.8</ele><time>2026-04-18T06:51:12Z</time></trkpt><trkpt lat="42.66483192572562" lon="11.961230761076346"><ele>387.0</ele><time>2026-04-18T06:51:13Z</time></trkpt><trkpt lat="42.664771763543946" lon="11.961189041399516"><ele>387.0</ele><time>2026-04-18T06:51:14Z</time></trkpt><trkpt lat="42.664706079968234" lon="11.961151688037129"><ele>387.0</ele><time>2026-04-18T06:51:15Z</time></trkpt><trkpt lat="42.66461564903995" lon="11.961123010661023"><ele>387.0</ele><time>2026-04-18T06:51:16Z</time></trkpt><trkpt lat="42.66453632026366" lon="11.961103287507903"><ele>387.0</ele><time>2026-04-18T06:51:17Z</time></trkpt><trkpt lat="42.66443947082479" lon="11.961094201676278"><ele>387.0</ele><time>2026-04-18T06:51:18Z</time></trkpt><trkpt lat="42.66434157352625" lon="11.961100595389523"><ele>387.0</ele><time>2026-04-18T06:51:19Z</time></trkpt><trkpt lat="42.66423718178618" lon="11.961111405388122"><ele>386.1666666666667</ele><time>2026-04-18T06:51:20Z</time></trkpt><trkpt lat="42.66415000603154" lon="11.961119524597322"><ele>385.3333333333333</ele><time>2026-04-18T06:51:21Z</time></trkpt><trkpt lat="42.66407599803953" lon="11.961119689244702"><ele>384.5</ele><time>2026-04-18T06:51:22Z</time></trkpt><trkpt lat="42.66400850478925" lon="11.961115353290554"><ele>383.66666666666663</ele><time>2026-04-18T06:51:23Z</time></trkpt><trkpt lat="42.663923618380515" lon="11.961107792254653"><ele>382.8333333333333</ele><time>2026-04-18T06:51:24Z</time></trkpt><trkpt lat="42.663832144726356" lon="11.961096096319501"><ele>382.0</ele><time>2026-04-18T06:51:25Z</time></trkpt><trkpt lat="42.6637369434446" lon="11.961081620298096"><ele>382.0</ele><time>2026-04-18T06:51:26Z</time></trkpt><trkpt lat="42.66365673163774" lon="11.96106784482797"><ele>382.0</ele><time>2026-04-18T06:51:27Z</time></trkpt><trkpt lat="42.663569217345774" lon="11.961050559976082"><ele>382.0</ele><time>2026-04-18T06:51:28Z</time></trkpt><trkpt lat="42.66347104259552" lon="11.961035857294533"><ele>382.0</ele><time>2026-04-18T06:51:29Z</time></trkpt><trkpt lat="42.66339037494703" lon="11.96097072398402"><ele>382.0</ele><time>2026-04-18T06:51:30Z</time></trkpt><trkpt lat="42.663289072325774" lon="11.96093707258058"><ele>381.0</ele><time>2026-04-18T06:51:31Z</time></trkpt><trkpt lat="42.663186366235664" lon="11.960925757477238"><ele>380.0</ele><time>2026-04-18T06:51:32Z</time></trkpt><trkpt lat="42.66307368378696" lon="11.960917789356019"><ele>379.0</ele><time>2026-04-18T06:51:33Z</time></trkpt><trkpt lat="42.66296356916866" lon="11.960960425023208"><ele>378.0</ele><time>2026-04-18T06:51:34Z</time></trkpt><trkpt lat="42.662870386436985" lon="11.960975856500522"><ele>377.0</ele><time>2026-04-18T06:51:35Z</time></trkpt><trkpt lat="42.66277075736822" lon="11.96094037017377"><ele>376.5</ele><time>2026-04-18T06:51:36Z</time></trkpt><trkpt lat="42.66262746855444" lon="11.960931385554556"><ele>376.0</ele><time>2026-04-18T06:51:37Z</time></trkpt><trkpt lat="42.66250424870359" lon="11.96088977256564"><ele>375.5</ele><time>2026-04-18T06:51:38Z</time></trkpt><trkpt lat="42.662402402714875" lon="11.96086438964318"><ele>375.0</ele><time>2026-04-18T06:51:39Z</time></trkpt><trkpt lat="42.66228819810659" lon="11.960833018178105"><ele>375.6</ele><time>2026-04-18T06:51:40Z</time></trkpt><trkpt lat="42.6621847794996" lon="11.960814440095385"><ele>376.2</ele><time>2026-04-18T06:51:41Z</time></trkpt><trkpt lat="42.662101537713475" lon="11.960792419009247"><ele>376.79999999999995</ele><time>2026-04-18T06:51:42Z</time></trkpt><trkpt lat="42.662025555803346" lon="11.960745232114931"><ele>377.4</ele><time>2026-04-18T06:51:43Z</time></trkpt><trkpt lat="42.6619614003698" lon="11.960718164147474"><ele>378.0</ele><time>2026-04-18T06:51:44Z</time></trkpt><trkpt lat="42.6618520949377" lon="11.960652843867088"><ele>378.0</ele><time>2026-04-18T06:51:45.999Z</time></trkpt><trkpt lat="42.66177376058908" lon="11.960521078501547"><ele>378.0</ele><time>2026-04-18T06:51:47.999Z</time></trkpt><trkpt lat="42.66175376276711" lon="11.960428188386153"><ele>378.0</ele><time>2026-04-18T06:51:48.999Z</time></trkpt><trkpt lat="42.66175823881518" lon="11.960322256136195"><ele>378.0</ele><time>2026-04-18T06:51:49.999Z</time></trkpt><trkpt lat="42.66174510804949" lon="11.960193121079158"><ele>378.0</ele><time>2026-04-18T06:51:50.999Z</time></trkpt><trkpt lat="42.661727818369286" lon="11.9600675404852"><ele>377.6666666666667</ele><time>2026-04-18T06:51:51.999Z</time></trkpt><trkpt lat="42.66171099710098" lon="11.959959247364631"><ele>377.3333333333333</ele><time>2026-04-18T06:51:52.999Z</time></trkpt><trkpt lat="42.66169447084054" lon="11.959852853786309"><ele>377.0</ele><time>2026-04-18T06:51:53.999Z</time></trkpt><trkpt lat="42.66167931789335" lon="11.959754663319034"><ele>376.66666666666663</ele><time>2026-04-18T06:51:54.999Z</time></trkpt><trkpt lat="42.661665917402054" lon="11.959659014228771"><ele>376.3333333333333</ele><time>2026-04-18T06:51:55.999Z</time></trkpt><trkpt lat="42.66166575276613" lon="11.959540213972858"><ele>376.0</ele><time>2026-04-18T06:51:57.999Z</time></trkpt><trkpt lat="42.661667647443764" lon="11.959422489107148"><ele>376.0</ele><time>2026-04-18T06:51:59.999Z</time></trkpt><trkpt lat="42.661681856620994" lon="11.959335632592879"><ele>376.0</ele><time>2026-04-18T06:52:01.999Z</time></trkpt><trkpt lat="42.661704269061396" lon="11.959222017143277"><ele>376.0</ele><time>2026-04-18T06:52:03.999Z</time></trkpt><trkpt lat="42.66179649199448" lon="11.959204358296873"><ele>376.0</ele><time>2026-04-18T06:52:04.999Z</time></trkpt><trkpt lat="42.66186014207083" lon="11.959148679243642"><ele>376.0</ele><time>2026-04-18T06:52:05.999Z</time></trkpt><trkpt lat="42.66191905619028" lon="11.959097142985291"><ele>376.0</ele><time>2026-04-18T06:52:06.999Z</time></trkpt><trkpt lat="42.66196727225539" lon="11.959031808415215"><ele>377.0</ele><time>2026-04-18T06:52:07.999Z</time></trkpt><trkpt lat="42.662083125905546" lon="11.958936968808052"><ele>378.0</ele><time>2026-04-18T06:52:09.999Z</time></trkpt><trkpt lat="42.66216691834585" lon="11.9588902754004"><ele>379.0</ele><time>2026-04-18T06:52:10.999Z</time></trkpt><trkpt lat="42.66224931773338" lon="11.958831967146894"><ele>380.0</ele><time>2026-04-18T06:52:11.999Z</time></trkpt><trkpt lat="42.662324993182494" lon="11.958779585730943"><ele>381.0</ele><time>2026-04-18T06:52:12.999Z</time></trkpt><trkpt lat="42.66239617542602" lon="11.958730317346753"><ele>381.0</ele><time>2026-04-18T06:52:13.999Z</time></trkpt><trkpt lat="42.662475860416414" lon="11.958675162163468"><ele>381.0</ele><time>2026-04-18T06:52:14.999Z</time></trkpt><trkpt lat="42.662552920265206" lon="11.958621378648871"><ele>381.0</ele><time>2026-04-18T06:52:15.999Z</time></trkpt><trkpt lat="42.66262902582553" lon="11.958574428808387"><ele>381.0</ele><time>2026-04-18T06:52:16.999Z</time></trkpt><trkpt lat="42.662692071939226" lon="11.958516959736212"><ele>381.0</ele><time>2026-04-18T06:52:17.999Z</time></trkpt><trkpt lat="42.66275413985474" lon="11.95848541190701"><ele>381.0</ele><time>2026-04-18T06:52:18.999Z</time></trkpt><trkpt lat="42.66278531444394" lon="11.95830866340894"><ele>381.6666666666667</ele><time>2026-04-18T06:52:35.999Z</time></trkpt><trkpt lat="42.66281579764592" lon="11.958213845196939"><ele>382.33333333333337</ele><time>2026-04-18T06:52:36.999Z</time></trkpt><trkpt lat="42.66284851945455" lon="11.95812191390353"><ele>383.0</ele><time>2026-04-18T06:52:37.999Z</time></trkpt><trkpt lat="42.66291643971157" lon="11.958003271112382"><ele>383.6666666666667</ele><time>2026-04-18T06:52:39.999Z</time></trkpt><trkpt lat="42.66302717346263" lon="11.95793491201418"><ele>384.33333333333337</ele><time>2026-04-18T06:52:41.999Z</time></trkpt><trkpt lat="42.66309284450423" lon="11.957939338849163"><ele>385.0</ele><time>2026-04-18T06:52:42.998Z</time></trkpt><trkpt lat="42.66316034393313" lon="11.957935560606934"><ele>385.00000000000006</ele><time>2026-04-18T06:52:43.998Z</time></trkpt><trkpt lat="42.66322813558704" lon="11.957930531983887"><ele>385.0</ele><time>2026-04-18T06:52:44.998Z</time></trkpt><trkpt lat="42.66328967253594" lon="11.957904234954812"><ele>385.0</ele><time>2026-04-18T06:52:45.998Z</time></trkpt><trkpt lat="42.66340536285828" lon="11.957911568848193"><ele>385.0</ele><time>2026-04-18T06:52:48Z</time></trkpt><trkpt lat="42.66346823907104" lon="11.957883316470797"><ele>385.00000000000006</ele><time>2026-04-18T06:52:49Z</time></trkpt><trkpt lat="42.66353603817223" lon="11.957793660283862"><ele>385.0</ele><time>2026-04-18T06:52:50Z</time></trkpt><trkpt lat="42.66356837884675" lon="11.957653794940288"><ele>385.0</ele><time>2026-04-18T06:52:51Z</time></trkpt><trkpt lat="42.663571691214294" lon="11.957505101821583"><ele>385.0</ele><time>2026-04-18T06:52:52Z</time></trkpt><trkpt lat="42.663615130487386" lon="11.957366193308072"><ele>385.0</ele><time>2026-04-18T06:52:53Z</time></trkpt><trkpt lat="42.663640654562506" lon="11.957253186835574"><ele>385.0</ele><time>2026-04-18T06:52:54Z</time></trkpt><trkpt lat="42.66366000479717" lon="11.957167515185187"><ele>385.0</ele><time>2026-04-18T06:52:55Z</time></trkpt><trkpt lat="42.66370280771456" lon="11.957056023142052"><ele>385.0</ele><time>2026-04-18T06:52:57Z</time></trkpt><trkpt lat="42.66377425204113" lon="11.957039981527663"><ele>385.0</ele><time>2026-04-18T06:52:59Z</time></trkpt><trkpt lat="42.66389306992563" lon="11.957004991462076"><ele>385.0</ele><time>2026-04-18T06:53:01Z</time></trkpt><trkpt lat="42.66398177996381" lon="11.956947208200393"><ele>385.0</ele><time>2026-04-18T06:53:03Z</time></trkpt><trkpt lat="42.66404091358804" lon="11.956765480694939"><ele>385.0</ele><time>2026-04-18T06:53:05Z</time></trkpt><trkpt lat="42.66408163947458" lon="11.956665242217372"><ele>384.83333333333337</ele><time>2026-04-18T06:53:06Z</time></trkpt><trkpt lat="42.664100007762634" lon="11.95657746053236"><ele>384.6666666666667</ele><time>2026-04-18T06:53:07Z</time></trkpt><trkpt lat="42.66411649690671" lon="11.956453552193572"><ele>384.5</ele><time>2026-04-18T06:53:09Z</time></trkpt><trkpt lat="42.66413071973109" lon="11.956335619493888"><ele>384.33333333333337</ele><time>2026-04-18T06:53:11Z</time></trkpt><trkpt lat="42.66406899476118" lon="11.956214984038278"><ele>384.1666666666667</ele><time>2026-04-18T06:53:13Z</time></trkpt><trkpt lat="42.66402198183482" lon="11.956155344818841"><ele>384.0</ele><time>2026-04-18T06:53:14Z</time></trkpt><trkpt lat="42.66396388441819" lon="11.956110525295706"><ele>384.0</ele><time>2026-04-18T06:53:15Z</time></trkpt><trkpt lat="42.663916487334504" lon="11.955999056263483"><ele>384.0</ele><time>2026-04-18T06:53:17Z</time></trkpt><trkpt lat="42.66387866579241" lon="11.955899707228612"><ele>384.0</ele><time>2026-04-18T06:53:19Z</time></trkpt><trkpt lat="42.6639030222843" lon="11.955790203807894"><ele>384.0</ele><time>2026-04-18T06:53:21Z</time></trkpt><trkpt lat="42.663949143561226" lon="11.955609542387226"><ele>384.0</ele><time>2026-04-18T06:53:23Z</time></trkpt><trkpt lat="42.6639795926621" lon="11.955522910327115"><ele>383.1666666666667</ele><time>2026-04-18T06:53:24Z</time></trkpt><trkpt lat="42.66402701408611" lon="11.95545211092152"><ele>382.3333333333333</ele><time>2026-04-18T06:53:25Z</time></trkpt><trkpt lat="42.66406219092272" lon="11.955379847679827"><ele>381.5</ele><time>2026-04-18T06:53:26Z</time></trkpt><trkpt lat="42.66413306860306" lon="11.955259262409815"><ele>380.66666666666663</ele><time>2026-04-18T06:53:28Z</time></trkpt><trkpt lat="42.664229310319115" lon="11.955225682023896"><ele>379.8333333333333</ele><time>2026-04-18T06:53:30Z</time></trkpt><trkpt lat="42.66431656077764" lon="11.955181251695981"><ele>379.0</ele><time>2026-04-18T06:53:32Z</time></trkpt><trkpt lat="42.664384776818366" lon="11.955105213954392"><ele>377.79999999999995</ele><time>2026-04-18T06:53:34Z</time></trkpt><trkpt lat="42.66436367583568" lon="11.95492943541513"><ele>376.59999999999997</ele><time>2026-04-18T06:53:36Z</time></trkpt><trkpt lat="42.66430450373967" lon="11.95487880891888"><ele>375.4</ele><time>2026-04-18T06:53:37Z</time></trkpt><trkpt lat="42.66421907088537" lon="11.954841889324861"><ele>374.2</ele><time>2026-04-18T06:53:38Z</time></trkpt><trkpt lat="42.6641029574277" lon="11.954800083169214"><ele>373.0</ele><time>2026-04-18T06:53:39Z</time></trkpt><trkpt lat="42.664003373352415" lon="11.954710022837602"><ele>373.0</ele><time>2026-04-18T06:53:40Z</time></trkpt><trkpt lat="42.66391659387545" lon="11.9546380349535"><ele>373.0</ele><time>2026-04-18T06:53:41Z</time></trkpt><trkpt lat="42.66382851778421" lon="11.954573129329907"><ele>373.0</ele><time>2026-04-18T06:53:42Z</time></trkpt><trkpt lat="42.663768320233025" lon="11.95449175439465"><ele>373.0</ele><time>2026-04-18T06:53:43Z</time></trkpt><trkpt lat="42.66370956475936" lon="11.954406157720145"><ele>373.0</ele><time>2026-04-18T06:53:44Z</time></trkpt><trkpt lat="42.663665548429464" lon="11.95431252444134"><ele>373.16666666666663</ele><time>2026-04-18T06:53:45Z</time></trkpt><trkpt lat="42.66364527075889" lon="11.954196594601152"><ele>373.3333333333333</ele><time>2026-04-18T06:53:46Z</time></trkpt><trkpt lat="42.66361040792308" lon="11.95410331606382"><ele>373.5</ele><time>2026-04-18T06:53:47Z</time></trkpt><trkpt lat="42.663636227564595" lon="11.95401696758867"><ele>373.6666666666667</ele><time>2026-04-18T06:53:47.999Z</time></trkpt><trkpt lat="42.66367368814335" lon="11.953861891506468"><ele>373.83333333333337</ele><time>2026-04-18T06:53:49.999Z</time></trkpt><trkpt lat="42.66372675706085" lon="11.953811594673958"><ele>374.0</ele><time>2026-04-18T06:53:50.999Z</time></trkpt><trkpt lat="42.66385777595169" lon="11.953809021186"><ele>374.0</ele><time>2026-04-18T06:53:52.999Z</time></trkpt><trkpt lat="42.66393502535595" lon="11.953888420270081"><ele>374.0</ele><time>2026-04-18T06:53:53.999Z</time></trkpt><trkpt lat="42.664048504352046" lon="11.953908473399029"><ele>374.0</ele><time>2026-04-18T06:53:54.999Z</time></trkpt><trkpt lat="42.66412932821664" lon="11.953935524962214"><ele>374.0</ele><time>2026-04-18T06:53:55.999Z</time></trkpt><trkpt lat="42.66421013702265" lon="11.95393384290602"><ele>374.0</ele><time>2026-04-18T06:53:56.999Z</time></trkpt><trkpt lat="42.66429992895305" lon="11.953786398857796"><ele>374.0</ele><time>2026-04-18T06:55:12Z</time></trkpt><trkpt lat="42.66433920653919" lon="11.953715782057943"><ele>374.0</ele><time>2026-04-18T06:55:13Z</time></trkpt><trkpt lat="42.664397425751936" lon="11.953647209987443"><ele>374.0</ele><time>2026-04-18T06:55:14Z</time></trkpt><trkpt lat="42.66445320721386" lon="11.953568915468852"><ele>374.0</ele><time>2026-04-18T06:55:15Z</time></trkpt><trkpt lat="42.66449660861427" lon="11.9535022274386"><ele>374.0</ele><time>2026-04-18T06:55:16Z</time></trkpt><trkpt lat="42.66454430162393" lon="11.953420796482751"><ele>374.0</ele><time>2026-04-18T06:55:17Z</time></trkpt><trkpt lat="42.66459531484616" lon="11.953313141057007"><ele>373.33333333333337</ele><time>2026-04-18T06:55:18Z</time></trkpt><trkpt lat="42.6646353554634" lon="11.953210990359098"><ele>372.6666666666667</ele><time>2026-04-18T06:55:19Z</time></trkpt><trkpt lat="42.66465286270349" lon="11.953097168382788"><ele>372.0</ele><time>2026-04-18T06:55:20Z</time></trkpt><trkpt lat="42.66463860856533" lon="11.952970555148411"><ele>371.3333333333333</ele><time>2026-04-18T06:55:21Z</time></trkpt><trkpt lat="42.66456021972153" lon="11.952894397846665"><ele>370.66666666666663</ele><time>2026-04-18T06:55:22Z</time></trkpt><trkpt lat="42.66451179661998" lon="11.952810327490848"><ele>370.0</ele><time>2026-04-18T06:55:23Z</time></trkpt><trkpt lat="42.66442335163005" lon="11.95273784649456"><ele>370.0</ele><time>2026-04-18T06:55:24Z</time></trkpt><trkpt lat="42.664319308562" lon="11.952661528183798"><ele>370.0</ele><time>2026-04-18T06:55:25Z</time></trkpt><trkpt lat="42.66423968646454" lon="11.952592025059905"><ele>370.0</ele><time>2026-04-18T06:55:26Z</time></trkpt><trkpt lat="42.664169335820276" lon="11.952474430633805"><ele>370.0</ele><time>2026-04-18T06:55:28Z</time></trkpt><trkpt lat="42.66416003874954" lon="11.952338259326906"><ele>370.0</ele><time>2026-04-18T06:55:30Z</time></trkpt><trkpt lat="42.664218359965396" lon="11.952209839957497"><ele>370.71428571428567</ele><time>2026-04-18T06:55:32Z</time></trkpt><trkpt lat="42.66427088406407" lon="11.952152058705279"><ele>371.42857142857144</ele><time>2026-04-18T06:55:33Z</time></trkpt><trkpt lat="42.664339145755555" lon="11.95212081062955"><ele>372.1428571428571</ele><time>2026-04-18T06:55:34Z</time></trkpt><trkpt lat="42.66440294517511" lon="11.95210752755515"><ele>372.85714285714283</ele><time>2026-04-18T06:55:35Z</time></trkpt><trkpt lat="42.66448032134845" lon="11.952106647119898"><ele>373.57142857142856</ele><time>2026-04-18T06:55:36Z</time></trkpt><trkpt lat="42.66456707156981" lon="11.95209700798833"><ele>374.2857142857143</ele><time>2026-04-18T06:55:37Z</time></trkpt><trkpt lat="42.664632333711666" lon="11.952109784202646"><ele>375.0</ele><time>2026-04-18T06:55:38Z</time></trkpt><trkpt lat="42.664699437911736" lon="11.952108818685222"><ele>376.2</ele><time>2026-04-18T06:55:39Z</time></trkpt><trkpt lat="42.66479975878139" lon="11.952077927211159"><ele>377.4</ele><time>2026-04-18T06:55:41Z</time></trkpt><trkpt lat="42.6648461752673" lon="11.951987407650007"><ele>378.6</ele><time>2026-04-18T06:55:42Z</time></trkpt><trkpt lat="42.66484249747584" lon="11.951838014232406"><ele>379.8</ele><time>2026-04-18T06:55:43Z</time></trkpt><trkpt lat="42.664857992022995" lon="11.951706727337516"><ele>381.0</ele><time>2026-04-18T06:55:44Z</time></trkpt><trkpt lat="42.6648895838152" lon="11.95155520831582"><ele>381.20000000000005</ele><time>2026-04-18T06:55:45Z</time></trkpt><trkpt lat="42.664905997734536" lon="11.951429883305499"><ele>381.40000000000003</ele><time>2026-04-18T06:55:46Z</time></trkpt><trkpt lat="42.66492304743728" lon="11.951319240604885"><ele>381.6</ele><time>2026-04-18T06:55:47Z</time></trkpt><trkpt lat="42.66494404966568" lon="11.951208936745529"><ele>381.8</ele><time>2026-04-18T06:55:48Z</time></trkpt><trkpt lat="42.66496678890677" lon="11.951090443913507"><ele>382.0</ele><time>2026-04-18T06:55:49Z</time></trkpt><trkpt lat="42.66499279612863" lon="11.950959997892813"><ele>381.0</ele><time>2026-04-18T06:55:49.999Z</time></trkpt><trkpt lat="42.66499749204733" lon="11.9508541758009"><ele>380.0</ele><time>2026-04-18T06:55:50.999Z</time></trkpt><trkpt lat="42.66501838983156" lon="11.950754962998571"><ele>379.0</ele><time>2026-04-18T06:55:51.999Z</time></trkpt><trkpt lat="42.66505684222647" lon="11.95064947909721"><ele>378.0</ele><time>2026-04-18T06:55:52.999Z</time></trkpt><trkpt lat="42.66507676998923" lon="11.950553275201338"><ele>377.0</ele><time>2026-04-18T06:55:53.999Z</time></trkpt><trkpt lat="42.66508149017131" lon="11.950447537040107"><ele>376.0</ele><time>2026-04-18T06:55:54.999Z</time></trkpt><trkpt lat="42.6651107229403" lon="11.950361127337862"><ele>376.0</ele><time>2026-04-18T06:55:55.999Z</time></trkpt><trkpt lat="42.66511529601987" lon="11.95026810570121"><ele>376.0</ele><time>2026-04-18T06:55:56.999Z</time></trkpt><trkpt lat="42.665125451459524" lon="11.950165760440706"><ele>376.0</ele><time>2026-04-18T06:55:58.999Z</time></trkpt><trkpt lat="42.665238699497735" lon="11.950150310341503"><ele>376.0</ele><time>2026-04-18T06:56:02.999Z</time></trkpt><trkpt lat="42.665312315327945" lon="11.950157842144247"><ele>376.0</ele><time>2026-04-18T06:56:03.999Z</time></trkpt><trkpt lat="42.66538491440393" lon="11.950169814942218"><ele>376.0</ele><time>2026-04-18T06:56:04.999Z</time></trkpt><trkpt lat="42.66548503629797" lon="11.950188330711244"><ele>377.6</ele><time>2026-04-18T06:56:05.999Z</time></trkpt><trkpt lat="42.665579661460185" lon="11.950208626228008"><ele>379.20000000000005</ele><time>2026-04-18T06:56:06.999Z</time></trkpt><trkpt lat="42.66566947016087" lon="11.950231644950906"><ele>380.79999999999995</ele><time>2026-04-18T06:56:07.999Z</time></trkpt><trkpt lat="42.66575648742885" lon="11.950256225138622"><ele>382.4</ele><time>2026-04-18T06:56:08.999Z</time></trkpt><trkpt lat="42.665849812239976" lon="11.950282587073561"><ele>384.0</ele><time>2026-04-18T06:56:09.999Z</time></trkpt><trkpt lat="42.66594475301878" lon="11.950309405443965"><ele>384.0</ele><time>2026-04-18T06:56:10.999Z</time></trkpt><trkpt lat="42.66603979497506" lon="11.950331838772366"><ele>384.0</ele><time>2026-04-18T06:56:11.999Z</time></trkpt><trkpt lat="42.66613178117868" lon="11.950349889855108"><ele>384.0</ele><time>2026-04-18T06:56:12.999Z</time></trkpt><trkpt lat="42.666217879088514" lon="11.950357719497818"><ele>384.0</ele><time>2026-04-18T06:56:13.999Z</time></trkpt><trkpt lat="42.66630772710661" lon="11.950343259035167"><ele>384.0</ele><time>2026-04-18T06:56:14.999Z</time></trkpt><trkpt lat="42.66639733996808" lon="11.950320877257656"><ele>385.4</ele><time>2026-04-18T06:56:15.999Z</time></trkpt><trkpt lat="42.6664847791973" lon="11.950297136986208"><ele>386.79999999999995</ele><time>2026-04-18T06:56:16.999Z</time></trkpt><trkpt lat="42.66657562738116" lon="11.950267904044436"><ele>388.20000000000005</ele><time>2026-04-18T06:56:17.999Z</time></trkpt><trkpt lat="42.66665545031922" lon="11.950238041024866"><ele>389.6</ele><time>2026-04-18T06:56:18.999Z</time></trkpt><trkpt lat="42.66678429782718" lon="11.950265229291345"><ele>391.0</ele><time>2026-04-18T06:56:20.999Z</time></trkpt><trkpt lat="42.66690363283003" lon="11.950303441799974"><ele>392.4</ele><time>2026-04-18T06:56:21.999Z</time></trkpt><trkpt lat="42.66700561717409" lon="11.950333524612304"><ele>393.8</ele><time>2026-04-18T06:56:22.999Z</time></trkpt><trkpt lat="42.66710962646536" lon="11.950364204732237"><ele>395.2</ele><time>2026-04-18T06:56:23.999Z</time></trkpt><trkpt lat="42.66720942085047" lon="11.950393641385293"><ele>396.59999999999997</ele><time>2026-04-18T06:56:24.999Z</time></trkpt><trkpt lat="42.667302746214794" lon="11.95040752537221"><ele>398.0</ele><time>2026-04-18T06:56:25.999Z</time></trkpt><trkpt lat="42.667417817015945" lon="11.95043531850168"><ele>398.0</ele><time>2026-04-18T06:56:26.999Z</time></trkpt><trkpt lat="42.66754030295974" lon="11.950497349468879"><ele>398.0</ele><time>2026-04-18T06:56:27.999Z</time></trkpt><trkpt lat="42.66766363773662" lon="11.950536525167914"><ele>398.0</ele><time>2026-04-18T06:56:28.999Z</time></trkpt><trkpt lat="42.667781585246765" lon="11.950573561275613"><ele>398.0</ele><time>2026-04-18T06:56:29.999Z</time></trkpt><trkpt lat="42.66792316261665" lon="11.950604857823292"><ele>400.0</ele><time>2026-04-18T06:56:30.999Z</time></trkpt><trkpt lat="42.66811209477292" lon="11.950669300834601"><ele>402.0</ele><time>2026-04-18T06:56:31.999Z</time></trkpt><trkpt lat="42.66828378009386" lon="11.950712815347334"><ele>404.0</ele><time>2026-04-18T06:56:32.999Z</time></trkpt><trkpt lat="42.6684172578907" lon="11.950748084025138"><ele>403.99999999999994</ele><time>2026-04-18T06:56:33.999Z</time></trkpt><trkpt lat="42.668527279489666" lon="11.950780563650797"><ele>404.0</ele><time>2026-04-18T06:56:34.999Z</time></trkpt><trkpt lat="42.668615525676955" lon="11.95080407905017"><ele>404.0</ele><time>2026-04-18T06:56:35.999Z</time></trkpt><trkpt lat="42.66869302243068" lon="11.950796716114557"><ele>404.0</ele><time>2026-04-18T06:56:36.999Z</time></trkpt><trkpt lat="42.668756763477596" lon="11.950812090164877"><ele>403.99999999999994</ele><time>2026-04-18T06:56:37.999Z</time></trkpt><trkpt lat="42.66883734258095" lon="11.950835770920152"><ele>404.0</ele><time>2026-04-18T06:56:39.999Z</time></trkpt><trkpt lat="42.66893759156365" lon="11.950781423383757"><ele>406.4</ele><time>2026-04-18T06:56:41.999Z</time></trkpt><trkpt lat="42.66897815771143" lon="11.950708190771001"><ele>408.79999999999995</ele><time>2026-04-18T06:56:42.999Z</time></trkpt><trkpt lat="42.6689897566991" lon="11.950589933052122"><ele>411.20000000000005</ele><time>2026-04-18T06:56:43.999Z</time></trkpt><trkpt lat="42.66901070967215" lon="11.950472278668263"><ele>413.6</ele><time>2026-04-18T06:56:44.999Z</time></trkpt><trkpt lat="42.66903301373712" lon="11.950331608357176"><ele>416.0</ele><time>2026-04-18T06:56:45.999Z</time></trkpt><trkpt lat="42.66905682051241" lon="11.950184765390091"><ele>415.0</ele><time>2026-04-18T06:56:46.998Z</time></trkpt><trkpt lat="42.66908445802399" lon="11.950019360743175"><ele>414.0</ele><time>2026-04-18T06:56:47.998Z</time></trkpt><trkpt lat="42.66911815262549" lon="11.94981770539318"><ele>413.0</ele><time>2026-04-18T06:56:48.998Z</time></trkpt><trkpt lat="42.66915229496683" lon="11.949608502921892"><ele>412.0</ele><time>2026-04-18T06:56:49.998Z</time></trkpt><trkpt lat="42.669186011415384" lon="11.949400602346177"><ele>412.0</ele><time>2026-04-18T06:56:50.998Z</time></trkpt><trkpt lat="42.66921702512225" lon="11.949209367288145"><ele>412.0</ele><time>2026-04-18T06:56:51.998Z</time></trkpt><trkpt lat="42.66924578213656" lon="11.949031306346178"><ele>412.0</ele><time>2026-04-18T06:56:52.998Z</time></trkpt><trkpt lat="42.66927527235262" lon="11.948848577663217"><ele>412.0</ele><time>2026-04-18T06:56:53.998Z</time></trkpt><trkpt lat="42.669304849625036" lon="11.948665309339725"><ele>412.0</ele><time>2026-04-18T06:56:54.998Z</time></trkpt><trkpt lat="42.66933744910529" lon="11.948469501538968"><ele>412.0</ele><time>2026-04-18T06:56:55.998Z</time></trkpt><trkpt lat="42.669375919492296" lon="11.948276351783393"><ele>412.0</ele><time>2026-04-18T06:56:56.998Z</time></trkpt><trkpt lat="42.669420065405575" lon="11.948068819138511"><ele>413.33333333333337</ele><time>2026-04-18T06:56:57.998Z</time></trkpt><trkpt lat="42.66945961914341" lon="11.947865283601766"><ele>414.66666666666663</ele><time>2026-04-18T06:56:59Z</time></trkpt><trkpt lat="42.66949829372989" lon="11.947654829916157"><ele>416.0</ele><time>2026-04-18T06:57:00Z</time></trkpt><trkpt lat="42.66953819351888" lon="11.947437708700122"><ele>416.0</ele><time>2026-04-18T06:57:01Z</time></trkpt><trkpt lat="42.66957599540169" lon="11.947224789700684"><ele>416.0</ele><time>2026-04-18T06:57:02Z</time></trkpt><trkpt lat="42.66960926234437" lon="11.947011245024743"><ele>416.0</ele><time>2026-04-18T06:57:03Z</time></trkpt><trkpt lat="42.669643219956455" lon="11.946791516307126"><ele>416.0</ele><time>2026-04-18T06:57:04Z</time></trkpt><trkpt lat="42.66967835300444" lon="11.94656533479251"><ele>416.0</ele><time>2026-04-18T06:57:05Z</time></trkpt><trkpt lat="42.669713218091225" lon="11.946361429761208"><ele>416.0</ele><time>2026-04-18T06:57:06Z</time></trkpt><trkpt lat="42.66974424616544" lon="11.946178985540277"><ele>416.0</ele><time>2026-04-18T06:57:07Z</time></trkpt><trkpt lat="42.66977219692083" lon="11.946002398095672"><ele>416.0</ele><time>2026-04-18T06:57:08Z</time></trkpt><trkpt lat="42.66979799787963" lon="11.945826729237247"><ele>416.0</ele><time>2026-04-18T06:57:09Z</time></trkpt><trkpt lat="42.66982235474867" lon="11.945652810828731"><ele>416.0</ele><time>2026-04-18T06:57:10Z</time></trkpt><trkpt lat="42.66984706366637" lon="11.945476378985905"><ele>416.0</ele><time>2026-04-18T06:57:11Z</time></trkpt><trkpt lat="42.669871167572225" lon="11.945304267218106"><ele>416.0</ele><time>2026-04-18T06:57:12Z</time></trkpt><trkpt lat="42.66989606430722" lon="11.94513285502228"><ele>416.0</ele><time>2026-04-18T06:57:13Z</time></trkpt><trkpt lat="42.66991410353037" lon="11.9449439446876"><ele>416.0</ele><time>2026-04-18T06:57:14Z</time></trkpt><trkpt lat="42.6699043285044" lon="11.944752463284363"><ele>415.75</ele><time>2026-04-18T06:57:15Z</time></trkpt><trkpt lat="42.669914222410156" lon="11.944562081391098"><ele>415.5</ele><time>2026-04-18T06:57:16Z</time></trkpt><trkpt lat="42.66993505153638" lon="11.944370758114689"><ele>415.25</ele><time>2026-04-18T06:57:17Z</time></trkpt><trkpt lat="42.66996086672383" lon="11.944164929542564"><ele>415.0</ele><time>2026-04-18T06:57:18Z</time></trkpt><trkpt lat="42.66998623019606" lon="11.943970301644676"><ele>414.0</ele><time>2026-04-18T06:57:19Z</time></trkpt><trkpt lat="42.67001317429934" lon="11.94375828102304"><ele>413.0</ele><time>2026-04-18T06:57:20Z</time></trkpt><trkpt lat="42.67003506715547" lon="11.943561366853624"><ele>412.0</ele><time>2026-04-18T06:57:21Z</time></trkpt><trkpt lat="42.67004903695609" lon="11.943345667662623"><ele>411.75</ele><time>2026-04-18T06:57:22Z</time></trkpt><trkpt lat="42.670060320706" lon="11.943146036533618"><ele>411.5</ele><time>2026-04-18T06:57:23Z</time></trkpt><trkpt lat="42.670076403089126" lon="11.942946759064363"><ele>411.25</ele><time>2026-04-18T06:57:24Z</time></trkpt><trkpt lat="42.6700932926394" lon="11.942774231927473"><ele>411.0</ele><time>2026-04-18T06:57:25Z</time></trkpt><trkpt lat="42.67011050507566" lon="11.942596921205864"><ele>411.0</ele><time>2026-04-18T06:57:26Z</time></trkpt><trkpt lat="42.67012574429309" lon="11.94241205208362"><ele>411.0</ele><time>2026-04-18T06:57:27Z</time></trkpt><trkpt lat="42.67014118165496" lon="11.942219420271137"><ele>411.0</ele><time>2026-04-18T06:57:28Z</time></trkpt><trkpt lat="42.67015709364946" lon="11.942022722685364"><ele>411.0</ele><time>2026-04-18T06:57:29Z</time></trkpt><trkpt lat="42.67017525347465" lon="11.941845442954978"><ele>411.0</ele><time>2026-04-18T06:57:30Z</time></trkpt><trkpt lat="42.67019314212112" lon="11.94167867743418"><ele>411.0</ele><time>2026-04-18T06:57:31Z</time></trkpt><trkpt lat="42.6702124183133" lon="11.941518960058938"><ele>411.0</ele><time>2026-04-18T06:57:32Z</time></trkpt><trkpt lat="42.67023397127015" lon="11.941379875398393"><ele>411.0</ele><time>2026-04-18T06:57:33Z</time></trkpt><trkpt lat="42.670259338476896" lon="11.941248225157654"><ele>411.0</ele><time>2026-04-18T06:57:34Z</time></trkpt><trkpt lat="42.67028816843476" lon="11.941138952707865"><ele>411.5</ele><time>2026-04-18T06:57:35Z</time></trkpt><trkpt lat="42.67032952348576" lon="11.941051999908051"><ele>412.0</ele><time>2026-04-18T06:57:36Z</time></trkpt><trkpt lat="42.67037075667486" lon="11.940965341098032"><ele>412.5</ele><time>2026-04-18T06:57:37Z</time></trkpt><trkpt lat="42.67040619152183" lon="11.940884899301299"><ele>413.0</ele><time>2026-04-18T06:57:38Z</time></trkpt><trkpt lat="42.67045272829118" lon="11.940776352254874"><ele>413.5</ele><time>2026-04-18T06:57:39Z</time></trkpt><trkpt lat="42.670495290454895" lon="11.94065265537037"><ele>414.0</ele><time>2026-04-18T06:57:40Z</time></trkpt><trkpt lat="42.67053345923251" lon="11.94051935123058"><ele>414.0</ele><time>2026-04-18T06:57:41Z</time></trkpt><trkpt lat="42.67057098665034" lon="11.94038420007707"><ele>414.0</ele><time>2026-04-18T06:57:42Z</time></trkpt><trkpt lat="42.67060949104672" lon="11.940245530283043"><ele>414.0</ele><time>2026-04-18T06:57:43Z</time></trkpt><trkpt lat="42.67064540837659" lon="11.940116177729854"><ele>414.0</ele><time>2026-04-18T06:57:44Z</time></trkpt><trkpt lat="42.67067618310006" lon="11.940008832617522"><ele>414.0</ele><time>2026-04-18T06:57:45Z</time></trkpt><trkpt lat="42.67070690998256" lon="11.93991135601378"><ele>413.0</ele><time>2026-04-18T06:57:46Z</time></trkpt><trkpt lat="42.670748062098994" lon="11.939835248555067"><ele>412.0</ele><time>2026-04-18T06:57:47Z</time></trkpt><trkpt lat="42.67081105298698" lon="11.939729542544235"><ele>411.0</ele><time>2026-04-18T06:57:48Z</time></trkpt><trkpt lat="42.67087288308175" lon="11.939613153717113"><ele>410.0</ele><time>2026-04-18T06:57:49Z</time></trkpt><trkpt lat="42.67091443012896" lon="11.939466845973095"><ele>409.0</ele><time>2026-04-18T06:57:50Z</time></trkpt><trkpt lat="42.670949022871994" lon="11.939323049196833"><ele>407.25</ele><time>2026-04-18T06:57:50.999Z</time></trkpt><trkpt lat="42.67098781401933" lon="11.939163611995768"><ele>405.5</ele><time>2026-04-18T06:57:51.999Z</time></trkpt><trkpt lat="42.671025324130696" lon="11.9390094402814"><ele>403.75</ele><time>2026-04-18T06:57:52.999Z</time></trkpt><trkpt lat="42.67105937594836" lon="11.93886948224158"><ele>402.0</ele><time>2026-04-18T06:57:53.999Z</time></trkpt><trkpt lat="42.67109412056613" lon="11.938726676768223"><ele>402.40000000000003</ele><time>2026-04-18T06:57:54.999Z</time></trkpt><trkpt lat="42.6711303676579" lon="11.938593054992067"><ele>402.8</ele><time>2026-04-18T06:57:55.999Z</time></trkpt><trkpt lat="42.67116167655374" lon="11.938477712806867"><ele>403.2</ele><time>2026-04-18T06:57:56.999Z</time></trkpt><trkpt lat="42.67118946748158" lon="11.938370474937038"><ele>403.6</ele><time>2026-04-18T06:57:57.999Z</time></trkpt><trkpt lat="42.67121544798323" lon="11.938260966219511"><ele>404.0</ele><time>2026-04-18T06:57:58.999Z</time></trkpt><trkpt lat="42.67125409957469" lon="11.93810093689329"><ele>404.0</ele><time>2026-04-18T06:58:00.999Z</time></trkpt><trkpt lat="42.671309015941" lon="11.937980159381912"><ele>404.0</ele><time>2026-04-18T06:58:02.999Z</time></trkpt><trkpt lat="42.67139176860419" lon="11.937896974179296"><ele>404.0</ele><time>2026-04-18T06:58:04.999Z</time></trkpt><trkpt lat="42.67148774843476" lon="11.937838735654509"><ele>404.0</ele><time>2026-04-18T06:58:05.999Z</time></trkpt><trkpt lat="42.67160654611048" lon="11.937778056478445"><ele>404.0</ele><time>2026-04-18T06:58:06.999Z</time></trkpt><trkpt lat="42.67172916156789" lon="11.937720160514912"><ele>404.0</ele><time>2026-04-18T06:58:07.999Z</time></trkpt><trkpt lat="42.67185157409792" lon="11.937655290403097"><ele>404.0</ele><time>2026-04-18T06:58:08.999Z</time></trkpt><trkpt lat="42.67195499404091" lon="11.937616245149982"><ele>404.0</ele><time>2026-04-18T06:58:09.999Z</time></trkpt><trkpt lat="42.672046433256405" lon="11.93756822578791"><ele>404.0</ele><time>2026-04-18T06:58:10.999Z</time></trkpt><trkpt lat="42.672136490199485" lon="11.937545202919075"><ele>404.0</ele><time>2026-04-18T06:58:11.999Z</time></trkpt><trkpt lat="42.67221464363562" lon="11.937515586885613"><ele>403.2857142857143</ele><time>2026-04-18T06:58:12.999Z</time></trkpt><trkpt lat="42.67228194901145" lon="11.93749008094108"><ele>402.57142857142856</ele><time>2026-04-18T06:58:13.999Z</time></trkpt><trkpt lat="42.67234695370896" lon="11.93746018658554"><ele>401.8571428571429</ele><time>2026-04-18T06:58:14.999Z</time></trkpt><trkpt lat="42.672408476893615" lon="11.937431255949924"><ele>401.1428571428571</ele><time>2026-04-18T06:58:15.999Z</time></trkpt><trkpt lat="42.67247447955157" lon="11.937409955651528"><ele>400.42857142857144</ele><time>2026-04-18T06:58:16.999Z</time></trkpt><trkpt lat="42.67254192018919" lon="11.937379456861661"><ele>399.7142857142857</ele><time>2026-04-18T06:58:17.999Z</time></trkpt><trkpt lat="42.6726161168444" lon="11.937346821260043"><ele>399.0</ele><time>2026-04-18T06:58:18.999Z</time></trkpt><trkpt lat="42.672690849337904" lon="11.937314312030182"><ele>399.0</ele><time>2026-04-18T06:58:19.999Z</time></trkpt><trkpt lat="42.67276122758267" lon="11.93728481383571"><ele>399.0</ele><time>2026-04-18T06:58:20.999Z</time></trkpt><trkpt lat="42.67283130458066" lon="11.937257593893943"><ele>399.0</ele><time>2026-04-18T06:58:21.999Z</time></trkpt><trkpt lat="42.67290655796435" lon="11.937227896552182"><ele>399.0</ele><time>2026-04-18T06:58:22.999Z</time></trkpt><trkpt lat="42.67298469233044" lon="11.937200527920014"><ele>399.0</ele><time>2026-04-18T06:58:23.999Z</time></trkpt><trkpt lat="42.67306290600901" lon="11.937175916316646"><ele>399.0</ele><time>2026-04-18T06:58:24.999Z</time></trkpt><trkpt lat="42.67313799151864" lon="11.937165851514287"><ele>401.4</ele><time>2026-04-18T06:58:25.999Z</time></trkpt><trkpt lat="42.673217816988114" lon="11.937164140946075"><ele>403.79999999999995</ele><time>2026-04-18T06:58:26.999Z</time></trkpt><trkpt lat="42.67329020542631" lon="11.937146374416763"><ele>406.20000000000005</ele><time>2026-04-18T06:58:27.999Z</time></trkpt><trkpt lat="42.67335489704476" lon="11.937031615674156"><ele>408.6</ele><time>2026-04-18T06:58:29.999Z</time></trkpt><trkpt lat="42.67336135358333" lon="11.936915016990275"><ele>411.0</ele><time>2026-04-18T06:58:30.999Z</time></trkpt><trkpt lat="42.6733624526564" lon="11.93676551142901"><ele>410.20000000000005</ele><time>2026-04-18T06:58:31.999Z</time></trkpt><trkpt lat="42.67336025623952" lon="11.936608269051158"><ele>409.40000000000003</ele><time>2026-04-18T06:58:32.999Z</time></trkpt><trkpt lat="42.67335350903955" lon="11.93645623597972"><ele>408.6</ele><time>2026-04-18T06:58:33.999Z</time></trkpt><trkpt lat="42.67334114336036" lon="11.936323692817362"><ele>407.8</ele><time>2026-04-18T06:58:34.999Z</time></trkpt><trkpt lat="42.6733110698371" lon="11.936197792344476"><ele>407.0</ele><time>2026-04-18T06:58:35.999Z</time></trkpt><trkpt lat="42.6732739137391" lon="11.936076175326862"><ele>407.0</ele><time>2026-04-18T06:58:36.999Z</time></trkpt><trkpt lat="42.67324746542123" lon="11.935939327656268"><ele>407.0</ele><time>2026-04-18T06:58:37.999Z</time></trkpt><trkpt lat="42.67323810968613" lon="11.935796775833092"><ele>407.0</ele><time>2026-04-18T06:58:38.999Z</time></trkpt><trkpt lat="42.6732360537078" lon="11.935605355814626"><ele>407.0</ele><time>2026-04-18T06:58:39.999Z</time></trkpt><trkpt lat="42.67323240537456" lon="11.935370075611655"><ele>404.66666666666663</ele><time>2026-04-18T06:58:40.999Z</time></trkpt><trkpt lat="42.67322476366407" lon="11.935065780402262"><ele>402.33333333333337</ele><time>2026-04-18T06:58:41.999Z</time></trkpt><trkpt lat="42.67321722561786" lon="11.934765613140906"><ele>400.0</ele><time>2026-04-18T06:58:42.999Z</time></trkpt><trkpt lat="42.67321123902751" lon="11.934527225627553"><ele>400.0</ele><time>2026-04-18T06:58:43.999Z</time></trkpt><trkpt lat="42.673205415199725" lon="11.934316892660615"><ele>400.0</ele><time>2026-04-18T06:58:44.999Z</time></trkpt><trkpt lat="42.67319929238235" lon="11.934132455698167"><ele>400.0</ele><time>2026-04-18T06:58:45.999Z</time></trkpt><trkpt lat="42.67319260144592" lon="11.933930904230445"><ele>400.0</ele><time>2026-04-18T06:58:46.999Z</time></trkpt><trkpt lat="42.67318606305749" lon="11.933715130716742"><ele>400.75</ele><time>2026-04-18T06:58:47.999Z</time></trkpt><trkpt lat="42.67318219258219" lon="11.9335064067139"><ele>401.5</ele><time>2026-04-18T06:58:48.999Z</time></trkpt><trkpt lat="42.673180672949115" lon="11.933305941150412"><ele>402.25</ele><time>2026-04-18T06:58:49.998Z</time></trkpt><trkpt lat="42.67317956221909" lon="11.933136111445492"><ele>403.0</ele><time>2026-04-18T06:58:50.998Z</time></trkpt><trkpt lat="42.673178446321955" lon="11.932965491396477"><ele>403.6666666666667</ele><time>2026-04-18T06:58:51.998Z</time></trkpt><trkpt lat="42.67317619480569" lon="11.93278490391816"><ele>404.33333333333337</ele><time>2026-04-18T06:58:52.998Z</time></trkpt><trkpt lat="42.67316479068925" lon="11.932547496584347"><ele>405.0</ele><time>2026-04-18T06:58:53.998Z</time></trkpt><trkpt lat="42.67314912407895" lon="11.932316032964305"><ele>407.0</ele><time>2026-04-18T06:58:54.998Z</time></trkpt><trkpt lat="42.6731394568055" lon="11.932135356808786"><ele>409.0</ele><time>2026-04-18T06:58:55.998Z</time></trkpt><trkpt lat="42.67313317459089" lon="11.931961122947074"><ele>411.0</ele><time>2026-04-18T06:58:56.998Z</time></trkpt><trkpt lat="42.67312685180663" lon="11.931785764175064"><ele>413.0</ele><time>2026-04-18T06:58:57.998Z</time></trkpt><trkpt lat="42.673120795240294" lon="11.931613860679445"><ele>414.75</ele><time>2026-04-18T06:58:58.998Z</time></trkpt><trkpt lat="42.673115222361844" lon="11.931448563411132"><ele>416.5</ele><time>2026-04-18T06:58:59.998Z</time></trkpt><trkpt lat="42.673110003217296" lon="11.931298831846494"><ele>418.25</ele><time>2026-04-18T06:59:00.998Z</time></trkpt><trkpt lat="42.673103602379285" lon="11.931140939872629"><ele>420.0</ele><time>2026-04-18T06:59:01.998Z</time></trkpt><trkpt lat="42.673083573247965" lon="11.93096736853525"><ele>421.2</ele><time>2026-04-18T06:59:02.998Z</time></trkpt><trkpt lat="42.673081274259104" lon="11.930839088400706"><ele>422.4</ele><time>2026-04-18T06:59:03.998Z</time></trkpt><trkpt lat="42.67310064447176" lon="11.930713112109919"><ele>423.6</ele><time>2026-04-18T06:59:05Z</time></trkpt><trkpt lat="42.67312156362911" lon="11.930604543494645"><ele>424.8</ele><time>2026-04-18T06:59:06Z</time></trkpt><trkpt lat="42.673159175222956" lon="11.93049454664105"><ele>426.0</ele><time>2026-04-18T06:59:07Z</time></trkpt><trkpt lat="42.67323692788006" lon="11.930411027559522"><ele>426.0</ele><time>2026-04-18T06:59:08Z</time></trkpt><trkpt lat="42.673315593493875" lon="11.930322752355645"><ele>426.0</ele><time>2026-04-18T06:59:09Z</time></trkpt><trkpt lat="42.67334424637139" lon="11.930204519734488"><ele>426.0</ele><time>2026-04-18T06:59:10Z</time></trkpt><trkpt lat="42.67337683665623" lon="11.930041202329038"><ele>426.0</ele><time>2026-04-18T06:59:11Z</time></trkpt><trkpt lat="42.673381682540764" lon="11.929808143351716"><ele>428.33333333333337</ele><time>2026-04-18T06:59:12Z</time></trkpt><trkpt lat="42.67337961286774" lon="11.92955350282227"><ele>430.6666666666667</ele><time>2026-04-18T06:59:13Z</time></trkpt><trkpt lat="42.67338095983755" lon="11.929342315813265"><ele>433.0</ele><time>2026-04-18T06:59:14Z</time></trkpt><trkpt lat="42.67338257125722" lon="11.929163578082772"><ele>434.25</ele><time>2026-04-18T06:59:15Z</time></trkpt><trkpt lat="42.67338414929395" lon="11.928983959771799"><ele>435.5</ele><time>2026-04-18T06:59:16Z</time></trkpt><trkpt lat="42.673388738589665" lon="11.928806980419534"><ele>436.75</ele><time>2026-04-18T06:59:17Z</time></trkpt><trkpt lat="42.67339996556217" lon="11.928630519925088"><ele>438.0</ele><time>2026-04-18T06:59:18Z</time></trkpt><trkpt lat="42.67341802473081" lon="11.928463921966065"><ele>438.0</ele><time>2026-04-18T06:59:19Z</time></trkpt><trkpt lat="42.673442064442796" lon="11.928325897071327"><ele>437.99999999999994</ele><time>2026-04-18T06:59:20Z</time></trkpt><trkpt lat="42.67347114537256" lon="11.928201494483844"><ele>437.99999999999994</ele><time>2026-04-18T06:59:21Z</time></trkpt><trkpt lat="42.673515842965465" lon="11.928093697092978"><ele>438.0</ele><time>2026-04-18T06:59:22Z</time></trkpt><trkpt lat="42.67355870302172" lon="11.9280059197425"><ele>438.0</ele><time>2026-04-18T06:59:23Z</time></trkpt><trkpt lat="42.673646958782015" lon="11.927868787183089"><ele>442.75</ele><time>2026-04-18T06:59:25Z</time></trkpt><trkpt lat="42.673739709187714" lon="11.92781499500343"><ele>447.5</ele><time>2026-04-18T06:59:26Z</time></trkpt><trkpt lat="42.673862430364835" lon="11.927749050477601"><ele>452.25</ele><time>2026-04-18T06:59:27Z</time></trkpt><trkpt lat="42.67398644736514" lon="11.927710139122691"><ele>457.0</ele><time>2026-04-18T06:59:28Z</time></trkpt><trkpt lat="42.674089377968585" lon="11.927683318575797"><ele>457.0</ele><time>2026-04-18T06:59:29Z</time></trkpt><trkpt lat="42.67421843399505" lon="11.927660895808938"><ele>457.0</ele><time>2026-04-18T06:59:30Z</time></trkpt><trkpt lat="42.674358163647724" lon="11.927670190041596"><ele>457.0</ele><time>2026-04-18T06:59:31Z</time></trkpt><trkpt lat="42.674511664259555" lon="11.927642977383943"><ele>457.0</ele><time>2026-04-18T06:59:32Z</time></trkpt><trkpt lat="42.67466422750905" lon="11.92764511677853"><ele>458.25</ele><time>2026-04-18T06:59:33Z</time></trkpt><trkpt lat="42.674807515807665" lon="11.927658628206563"><ele>459.5</ele><time>2026-04-18T06:59:34Z</time></trkpt><trkpt lat="42.67493103355153" lon="11.92767333991595"><ele>460.75</ele><time>2026-04-18T06:59:35Z</time></trkpt><trkpt lat="42.675035720367774" lon="11.92768203135676"><ele>462.0</ele><time>2026-04-18T06:59:36Z</time></trkpt><trkpt lat="42.67513111082049" lon="11.927692058748612"><ele>462.0</ele><time>2026-04-18T06:59:37Z</time></trkpt><trkpt lat="42.67522792345187" lon="11.92771228422874"><ele>462.00000000000006</ele><time>2026-04-18T06:59:38Z</time></trkpt><trkpt lat="42.67531838000178" lon="11.927744982814861"><ele>462.00000000000006</ele><time>2026-04-18T06:59:39Z</time></trkpt><trkpt lat="42.67541243673345" lon="11.927792162337779"><ele>462.0</ele><time>2026-04-18T06:59:40Z</time></trkpt><trkpt lat="42.675507813381145" lon="11.927842321496255"><ele>462.0</ele><time>2026-04-18T06:59:41Z</time></trkpt><trkpt lat="42.675595738208344" lon="11.927916446603163"><ele>458.5</ele><time>2026-04-18T06:59:42Z</time></trkpt><trkpt lat="42.67568032727109" lon="11.928007527846253"><ele>455.0</ele><time>2026-04-18T06:59:43Z</time></trkpt><trkpt lat="42.675757288923705" lon="11.928111140150598"><ele>451.5</ele><time>2026-04-18T06:59:44Z</time></trkpt><trkpt lat="42.67584697785508" lon="11.928214935334681"><ele>448.0</ele><time>2026-04-18T06:59:45Z</time></trkpt><trkpt lat="42.6759516843794" lon="11.928308671153214"><ele>448.25</ele><time>2026-04-18T06:59:46Z</time></trkpt><trkpt lat="42.676072461791385" lon="11.928412399826986"><ele>448.5</ele><time>2026-04-18T06:59:47Z</time></trkpt><trkpt lat="42.67618060728157" lon="11.92849151527345"><ele>448.75</ele><time>2026-04-18T06:59:48Z</time></trkpt><trkpt lat="42.67626388409426" lon="11.92858617603011"><ele>449.0</ele><time>2026-04-18T06:59:49Z</time></trkpt><trkpt lat="42.67634113403228" lon="11.928644287438548"><ele>449.0</ele><time>2026-04-18T06:59:50Z</time></trkpt><trkpt lat="42.67641199302332" lon="11.928667638222898"><ele>449.0</ele><time>2026-04-18T06:59:51Z</time></trkpt><trkpt lat="42.67653549461663" lon="11.928732018909342"><ele>449.0</ele><time>2026-04-18T06:59:53Z</time></trkpt><trkpt lat="42.676603775054076" lon="11.92872472324176"><ele>449.0</ele><time>2026-04-18T06:59:54Z</time></trkpt><trkpt lat="42.67668066042657" lon="11.92868998130591"><ele>449.0</ele><time>2026-04-18T06:59:54.999Z</time></trkpt><trkpt lat="42.67674785482261" lon="11.928583583194252"><ele>449.0</ele><time>2026-04-18T06:59:55.999Z</time></trkpt><trkpt lat="42.67678297365801" lon="11.928443165884659"><ele>449.0</ele><time>2026-04-18T06:59:56.999Z</time></trkpt><trkpt lat="42.67682161613852" lon="11.928282586321899"><ele>449.0</ele><time>2026-04-18T06:59:57.999Z</time></trkpt><trkpt lat="42.67685573932366" lon="11.92808459926437"><ele>449.0</ele><time>2026-04-18T06:59:58.999Z</time></trkpt><trkpt lat="42.676897534125374" lon="11.927851347352915"><ele>449.0</ele><time>2026-04-18T06:59:59.999Z</time></trkpt><trkpt lat="42.6769468117749" lon="11.927636243493291"><ele>449.0</ele><time>2026-04-18T07:00:00.999Z</time></trkpt><trkpt lat="42.67699626607264" lon="11.927444651265512"><ele>449.0</ele><time>2026-04-18T07:00:01.999Z</time></trkpt><trkpt lat="42.677044900880226" lon="11.927270954751311"><ele>447.5</ele><time>2026-04-18T07:00:02.999Z</time></trkpt><trkpt lat="42.67709538349139" lon="11.92710486800459"><ele>446.0</ele><time>2026-04-18T07:00:03.999Z</time></trkpt><trkpt lat="42.67714120518833" lon="11.92697365988667"><ele>444.5</ele><time>2026-04-18T07:00:04.999Z</time></trkpt><trkpt lat="42.67721376087187" lon="11.92680265810957"><ele>443.0</ele><time>2026-04-18T07:00:05.999Z</time></trkpt><trkpt lat="42.677292781613936" lon="11.926645600969016"><ele>441.25</ele><time>2026-04-18T07:00:06.999Z</time></trkpt><trkpt lat="42.677372207969945" lon="11.926501348932382"><ele>439.5</ele><time>2026-04-18T07:00:07.999Z</time></trkpt><trkpt lat="42.677459903833316" lon="11.926357275541763"><ele>437.75</ele><time>2026-04-18T07:00:08.999Z</time></trkpt><trkpt lat="42.67754561941794" lon="11.92622311211838"><ele>436.0</ele><time>2026-04-18T07:00:09.999Z</time></trkpt><trkpt lat="42.67763339082245" lon="11.926091278739598"><ele>436.0</ele><time>2026-04-18T07:00:10.999Z</time></trkpt><trkpt lat="42.67771345963898" lon="11.92598318746552"><ele>436.0</ele><time>2026-04-18T07:00:11.999Z</time></trkpt><trkpt lat="42.67778645062593" lon="11.925898452325043"><ele>436.0</ele><time>2026-04-18T07:00:12.999Z</time></trkpt><trkpt lat="42.677858027516876" lon="11.92581639455452"><ele>436.0</ele><time>2026-04-18T07:00:13.999Z</time></trkpt><trkpt lat="42.67794733028002" lon="11.925781086013057"><ele>436.0</ele><time>2026-04-18T07:00:14.999Z</time></trkpt><trkpt lat="42.67806426024457" lon="11.925762701682135"><ele>437.25</ele><time>2026-04-18T07:00:15.999Z</time></trkpt><trkpt lat="42.67821083989653" lon="11.92574717300467"><ele>438.5</ele><time>2026-04-18T07:00:16.999Z</time></trkpt><trkpt lat="42.67833414175863" lon="11.925754589713591"><ele>439.75</ele><time>2026-04-18T07:00:17.999Z</time></trkpt><trkpt lat="42.678432629539095" lon="11.925786863593695"><ele>441.0</ele><time>2026-04-18T07:00:18.999Z</time></trkpt><trkpt lat="42.67853235108198" lon="11.92576928398304"><ele>445.4</ele><time>2026-04-18T07:00:19.999Z</time></trkpt><trkpt lat="42.678623957201154" lon="11.92572947011577"><ele>449.8</ele><time>2026-04-18T07:00:20.999Z</time></trkpt><trkpt lat="42.67870558671185" lon="11.925667029923682"><ele>454.19999999999993</ele><time>2026-04-18T07:00:21.999Z</time></trkpt><trkpt lat="42.67878204652084" lon="11.925574785780338"><ele>458.59999999999997</ele><time>2026-04-18T07:00:22.999Z</time></trkpt><trkpt lat="42.67884340734261" lon="11.925473169294396"><ele>463.0</ele><time>2026-04-18T07:00:23.999Z</time></trkpt><trkpt lat="42.67888485760749" lon="11.925359919891452"><ele>463.0</ele><time>2026-04-18T07:00:24.999Z</time></trkpt><trkpt lat="42.67891498407774" lon="11.925219508467228"><ele>463.0</ele><time>2026-04-18T07:00:25.999Z</time></trkpt><trkpt lat="42.6789291432802" lon="11.925051509524163"><ele>463.0</ele><time>2026-04-18T07:00:26.999Z</time></trkpt><trkpt lat="42.67893430478976" lon="11.924880447240715"><ele>463.0</ele><time>2026-04-18T07:00:27.999Z</time></trkpt><trkpt lat="42.678931425184416" lon="11.924715072899712"><ele>461.2</ele><time>2026-04-18T07:00:28.999Z</time></trkpt><trkpt lat="42.67891612745588" lon="11.924568813297203"><ele>459.4</ele><time>2026-04-18T07:00:29.999Z</time></trkpt><trkpt lat="42.678900206020664" lon="11.92442036484669"><ele>457.59999999999997</ele><time>2026-04-18T07:00:30.999Z</time></trkpt><trkpt lat="42.6788878730443" lon="11.92428234505756"><ele>455.79999999999995</ele><time>2026-04-18T07:00:31.999Z</time></trkpt><trkpt lat="42.67887629031326" lon="11.924142764065532"><ele>454.0</ele><time>2026-04-18T07:00:32.999Z</time></trkpt><trkpt lat="42.6788672564414" lon="11.924017294321057"><ele>452.79999999999995</ele><time>2026-04-18T07:00:33.999Z</time></trkpt><trkpt lat="42.678863730654044" lon="11.92389081682522"><ele>451.59999999999997</ele><time>2026-04-18T07:00:34.999Z</time></trkpt><trkpt lat="42.67887369920129" lon="11.923771863809957"><ele>450.4</ele><time>2026-04-18T07:00:35.999Z</time></trkpt><trkpt lat="42.67890063149645" lon="11.923643801940301"><ele>449.2</ele><time>2026-04-18T07:00:36.999Z</time></trkpt><trkpt lat="42.678959026947204" lon="11.923546278112088"><ele>448.0</ele><time>2026-04-18T07:00:37.999Z</time></trkpt><trkpt lat="42.679006385898866" lon="11.923445841152155"><ele>445.0</ele><time>2026-04-18T07:00:38.999Z</time></trkpt><trkpt lat="42.67906712225427" lon="11.923327177413723"><ele>442.0</ele><time>2026-04-18T07:00:39.999Z</time></trkpt><trkpt lat="42.67913141518369" lon="11.92319920070281"><ele>439.0</ele><time>2026-04-18T07:00:40.999Z</time></trkpt><trkpt lat="42.67919808700032" lon="11.92306648886073"><ele>436.0</ele><time>2026-04-18T07:00:41.999Z</time></trkpt><trkpt lat="42.67926327317403" lon="11.92293673390479"><ele>436.0</ele><time>2026-04-18T07:00:42.999Z</time></trkpt><trkpt lat="42.679321155929166" lon="11.922821517206211"><ele>436.0</ele><time>2026-04-18T07:00:43.999Z</time></trkpt><trkpt lat="42.679383827002624" lon="11.92269611563626"><ele>436.0</ele><time>2026-04-18T07:00:44.999Z</time></trkpt><trkpt lat="42.67944220071237" lon="11.922576733047407"><ele>436.0</ele><time>2026-04-18T07:00:45.999Z</time></trkpt><trkpt lat="42.679498269737564" lon="11.922456379445876"><ele>436.0</ele><time>2026-04-18T07:00:46.999Z</time></trkpt><trkpt lat="42.679533088409784" lon="11.9223269710041"><ele>434.8</ele><time>2026-04-18T07:00:47.999Z</time></trkpt><trkpt lat="42.67959582061363" lon="11.92219737442563"><ele>433.6</ele><time>2026-04-18T07:00:48.999Z</time></trkpt><trkpt lat="42.679626102912394" lon="11.922053155996704"><ele>432.4</ele><time>2026-04-18T07:00:49.999Z</time></trkpt><trkpt lat="42.67963547942848" lon="11.921914661933723"><ele>431.2</ele><time>2026-04-18T07:00:50.999Z</time></trkpt><trkpt lat="42.67963595263316" lon="11.921789970773695"><ele>430.0</ele><time>2026-04-18T07:00:51.999Z</time></trkpt><trkpt lat="42.679609818075534" lon="11.921638084332498"><ele>428.75</ele><time>2026-04-18T07:00:52.999Z</time></trkpt><trkpt lat="42.67955026239479" lon="11.921472785198068"><ele>427.5</ele><time>2026-04-18T07:00:53.999Z</time></trkpt><trkpt lat="42.67946575164457" lon="11.921304052080949"><ele>426.25</ele><time>2026-04-18T07:00:54.999Z</time></trkpt><trkpt lat="42.679367475230066" lon="11.92115813468211"><ele>425.0</ele><time>2026-04-18T07:00:55.998Z</time></trkpt><trkpt lat="42.679278623618416" lon="11.920973999780644"><ele>422.8</ele><time>2026-04-18T07:00:56.998Z</time></trkpt><trkpt lat="42.67917711511206" lon="11.920830074059943"><ele>420.6</ele><time>2026-04-18T07:00:57.998Z</time></trkpt><trkpt lat="42.679100157032" lon="11.920718544785363"><ele>418.4</ele><time>2026-04-18T07:00:58.998Z</time></trkpt><trkpt lat="42.67904746374966" lon="11.92061697457638"><ele>416.2</ele><time>2026-04-18T07:00:59.998Z</time></trkpt><trkpt lat="42.67901790590926" lon="11.920526698963748"><ele>414.0</ele><time>2026-04-18T07:01:00.998Z</time></trkpt><trkpt lat="42.67899127205647" lon="11.92042522416702"><ele>414.0</ele><time>2026-04-18T07:01:01.998Z</time></trkpt><trkpt lat="42.67901593892568" lon="11.920276774514107"><ele>414.0</ele><time>2026-04-18T07:01:02.998Z</time></trkpt><trkpt lat="42.67905166296964" lon="11.920136314063491"><ele>414.0</ele><time>2026-04-18T07:01:03.998Z</time></trkpt><trkpt lat="42.679105531591745" lon="11.919977366926902"><ele>414.0</ele><time>2026-04-18T07:01:04.998Z</time></trkpt><trkpt lat="42.67916752964359" lon="11.919827454936192"><ele>414.75</ele><time>2026-04-18T07:01:05.998Z</time></trkpt><trkpt lat="42.67925744934298" lon="11.919684290078624"><ele>415.5</ele><time>2026-04-18T07:01:06.998Z</time></trkpt><trkpt lat="42.6793525569212" lon="11.91956502757736"><ele>416.25</ele><time>2026-04-18T07:01:07.998Z</time></trkpt><trkpt lat="42.6794550866258" lon="11.919429045861298"><ele>417.0</ele><time>2026-04-18T07:01:08.998Z</time></trkpt><trkpt lat="42.679539604770234" lon="11.91929866268497"><ele>419.0</ele><time>2026-04-18T07:01:09.998Z</time></trkpt><trkpt lat="42.6796072590348" lon="11.919189062532405"><ele>421.0</ele><time>2026-04-18T07:01:11Z</time></trkpt><trkpt lat="42.679667834836906" lon="11.919073157493619"><ele>423.00000000000006</ele><time>2026-04-18T07:01:12Z</time></trkpt><trkpt lat="42.6797257421221" lon="11.918948499132703"><ele>425.0</ele><time>2026-04-18T07:01:13Z</time></trkpt><trkpt lat="42.67975797593908" lon="11.918777632841353"><ele>427.0</ele><time>2026-04-18T07:01:14Z</time></trkpt><trkpt lat="42.67976835312702" lon="11.918607877317612"><ele>427.00000000000006</ele><time>2026-04-18T07:01:15Z</time></trkpt><trkpt lat="42.67976882065572" lon="11.918470376014762"><ele>427.0</ele><time>2026-04-18T07:01:16Z</time></trkpt><trkpt lat="42.679763923361996" lon="11.918352908177397"><ele>427.0</ele><time>2026-04-18T07:01:17Z</time></trkpt><trkpt lat="42.6797474885318" lon="11.918261826666447"><ele>427.0</ele><time>2026-04-18T07:01:18Z</time></trkpt><trkpt lat="42.679746847757094" lon="11.918163201232984"><ele>427.00000000000006</ele><time>2026-04-18T07:01:20Z</time></trkpt><trkpt lat="42.67974712947422" lon="11.918073248407838"><ele>427.0</ele><time>2026-04-18T07:01:22Z</time></trkpt><trkpt lat="42.67974373308729" lon="11.917971747455947"><ele>426.83333333333337</ele><time>2026-04-18T07:01:24Z</time></trkpt><trkpt lat="42.67980486502284" lon="11.917895929665896"><ele>426.6666666666667</ele><time>2026-04-18T07:01:25Z</time></trkpt><trkpt lat="42.67986762460848" lon="11.91783755844843"><ele>426.5</ele><time>2026-04-18T07:01:26Z</time></trkpt><trkpt lat="42.67993948562376" lon="11.917764401312787"><ele>426.33333333333337</ele><time>2026-04-18T07:01:27Z</time></trkpt><trkpt lat="42.680012321279996" lon="11.917672327881354"><ele>426.1666666666667</ele><time>2026-04-18T07:01:28Z</time></trkpt><trkpt lat="42.68007713413753" lon="11.917573810632314"><ele>426.0</ele><time>2026-04-18T07:01:29Z</time></trkpt><trkpt lat="42.6801391257407" lon="11.917463573435024"><ele>425.4</ele><time>2026-04-18T07:01:30Z</time></trkpt><trkpt lat="42.68020104063381" lon="11.917348547012706"><ele>424.8</ele><time>2026-04-18T07:01:30.999Z</time></trkpt><trkpt lat="42.68026202500294" lon="11.917225699664934"><ele>424.2</ele><time>2026-04-18T07:01:31.999Z</time></trkpt><trkpt lat="42.68032256888477" lon="11.917092806022362"><ele>423.59999999999997</ele><time>2026-04-18T07:01:32.999Z</time></trkpt><trkpt lat="42.680384661607306" lon="11.916961819343078"><ele>423.0</ele><time>2026-04-18T07:01:33.999Z</time></trkpt><trkpt lat="42.6804505892587" lon="11.91682889712869"><ele>426.0</ele><time>2026-04-18T07:01:34.999Z</time></trkpt><trkpt lat="42.68052867901619" lon="11.916710757866337"><ele>429.0</ele><time>2026-04-18T07:01:35.999Z</time></trkpt><trkpt lat="42.680619915576465" lon="11.916601386995323"><ele>432.0</ele><time>2026-04-18T07:01:36.999Z</time></trkpt><trkpt lat="42.680719743727046" lon="11.916501267574057"><ele>435.0</ele><time>2026-04-18T07:01:37.999Z</time></trkpt><trkpt lat="42.68082309285768" lon="11.916410935915975"><ele>435.0</ele><time>2026-04-18T07:01:38.999Z</time></trkpt><trkpt lat="42.680934099650045" lon="11.916328981331292"><ele>435.0</ele><time>2026-04-18T07:01:39.999Z</time></trkpt><trkpt lat="42.68105155221137" lon="11.916263634185984"><ele>435.0</ele><time>2026-04-18T07:01:40.999Z</time></trkpt><trkpt lat="42.6811703709326" lon="11.916211745857188"><ele>435.0</ele><time>2026-04-18T07:01:41.999Z</time></trkpt><trkpt lat="42.68129604904046" lon="11.91618483686134"><ele>437.0</ele><time>2026-04-18T07:01:42.999Z</time></trkpt><trkpt lat="42.68141543821652" lon="11.916177657620901"><ele>439.0</ele><time>2026-04-18T07:01:43.999Z</time></trkpt><trkpt lat="42.68154620576133" lon="11.916188471721956"><ele>441.0</ele><time>2026-04-18T07:01:44.999Z</time></trkpt><trkpt lat="42.68167467339972" lon="11.91622157897097"><ele>443.0</ele><time>2026-04-18T07:01:45.999Z</time></trkpt><trkpt lat="42.68180419540521" lon="11.916250557603083"><ele>443.0</ele><time>2026-04-18T07:01:46.999Z</time></trkpt><trkpt lat="42.68193294629876" lon="11.916319450382169"><ele>443.0</ele><time>2026-04-18T07:01:47.998Z</time></trkpt><trkpt lat="42.68207046818227" lon="11.916404511196019"><ele>443.0</ele><time>2026-04-18T07:01:48.998Z</time></trkpt><trkpt lat="42.682211320806" lon="11.91650148368129"><ele>443.0</ele><time>2026-04-18T07:01:49.998Z</time></trkpt><trkpt lat="42.682342300520126" lon="11.916588111340092"><ele>443.0</ele><time>2026-04-18T07:01:50.998Z</time></trkpt><trkpt lat="42.682492399751006" lon="11.916683358914419"><ele>443.0</ele><time>2026-04-18T07:01:51.998Z</time></trkpt><trkpt lat="42.68264677840503" lon="11.916777835855196"><ele>443.0</ele><time>2026-04-18T07:01:52.998Z</time></trkpt><trkpt lat="42.68277950537607" lon="11.91685964770754"><ele>443.5</ele><time>2026-04-18T07:01:53.998Z</time></trkpt><trkpt lat="42.68289856756903" lon="11.916917360310208"><ele>444.0</ele><time>2026-04-18T07:01:54.998Z</time></trkpt><trkpt lat="42.68302259804441" lon="11.916962252133908"><ele>444.5</ele><time>2026-04-18T07:01:55.998Z</time></trkpt><trkpt lat="42.68315426357232" lon="11.916988626401793"><ele>445.0</ele><time>2026-04-18T07:01:56.998Z</time></trkpt><trkpt lat="42.683284930894935" lon="11.91698014873028"><ele>445.0</ele><time>2026-04-18T07:01:57.998Z</time></trkpt><trkpt lat="42.68341180304631" lon="11.916943220492485"><ele>445.0</ele><time>2026-04-18T07:01:58.998Z</time></trkpt><trkpt lat="42.68352487108124" lon="11.91685867061434"><ele>445.0</ele><time>2026-04-18T07:01:59.998Z</time></trkpt><trkpt lat="42.683647268198975" lon="11.916719625378148"><ele>445.0</ele><time>2026-04-18T07:02:00.998Z</time></trkpt><trkpt lat="42.68376742012426" lon="11.916547840170644"><ele>446.33333333333337</ele><time>2026-04-18T07:02:01.998Z</time></trkpt><trkpt lat="42.6838766331836" lon="11.916368831220531"><ele>447.66666666666663</ele><time>2026-04-18T07:02:02.998Z</time></trkpt><trkpt lat="42.68399125822782" lon="11.916193321417687"><ele>449.0</ele><time>2026-04-18T07:02:03.998Z</time></trkpt><trkpt lat="42.68410549659457" lon="11.916028524251583"><ele>449.0</ele><time>2026-04-18T07:02:04.998Z</time></trkpt><trkpt lat="42.68422416800177" lon="11.915860656422883"><ele>449.0</ele><time>2026-04-18T07:02:05.998Z</time></trkpt><trkpt lat="42.684331192105454" lon="11.915709485666875"><ele>449.0</ele><time>2026-04-18T07:02:06.998Z</time></trkpt><trkpt lat="42.684423846022185" lon="11.915565083283404"><ele>452.75</ele><time>2026-04-18T07:02:07.998Z</time></trkpt><trkpt lat="42.68450889565987" lon="11.91542250863121"><ele>456.5</ele><time>2026-04-18T07:02:08.998Z</time></trkpt><trkpt lat="42.68460093970584" lon="11.915281857640135"><ele>460.25</ele><time>2026-04-18T07:02:09.998Z</time></trkpt><trkpt lat="42.684692826562454" lon="11.91514127500721"><ele>464.0</ele><time>2026-04-18T07:02:10.998Z</time></trkpt><trkpt lat="42.68477676631862" lon="11.914994074956597"><ele>464.0</ele><time>2026-04-18T07:02:11.998Z</time></trkpt><trkpt lat="42.684852175871946" lon="11.914822517756814"><ele>464.0</ele><time>2026-04-18T07:02:12.998Z</time></trkpt><trkpt lat="42.68489935051055" lon="11.914630256499366"><ele>464.0</ele><time>2026-04-18T07:02:13.998Z</time></trkpt><trkpt lat="42.68493155248231" lon="11.914432997788222"><ele>464.0</ele><time>2026-04-18T07:02:14.998Z</time></trkpt><trkpt lat="42.68496251499144" lon="11.914237235269336"><ele>466.3333333333333</ele><time>2026-04-18T07:02:15.998Z</time></trkpt><trkpt lat="42.68496684251858" lon="11.91402371789864"><ele>468.66666666666663</ele><time>2026-04-18T07:02:16.998Z</time></trkpt><trkpt lat="42.68495282340951" lon="11.913804745327582"><ele>471.0</ele><time>2026-04-18T07:02:17.998Z</time></trkpt><trkpt lat="42.684923032448125" lon="11.913590142354074"><ele>473.33333333333337</ele><time>2026-04-18T07:02:18.998Z</time></trkpt><trkpt lat="42.68488612645383" lon="11.913371741716722"><ele>475.6666666666667</ele><time>2026-04-18T07:02:19.998Z</time></trkpt><trkpt lat="42.68484913820324" lon="11.913152854306677"><ele>478.0</ele><time>2026-04-18T07:02:20.998Z</time></trkpt><trkpt lat="42.684812561620724" lon="11.912936403056257"><ele>478.0</ele><time>2026-04-18T07:02:21.998Z</time></trkpt><trkpt lat="42.68477417882556" lon="11.91270946611239"><ele>478.0</ele><time>2026-04-18T07:02:22.998Z</time></trkpt><trkpt lat="42.68473696434811" lon="11.912489581035345"><ele>478.0</ele><time>2026-04-18T07:02:23.998Z</time></trkpt><trkpt lat="42.68469834043929" lon="11.91225904670503"><ele>479.6666666666667</ele><time>2026-04-18T07:02:24.998Z</time></trkpt><trkpt lat="42.684664925310116" lon="11.91203453441653"><ele>481.33333333333337</ele><time>2026-04-18T07:02:25.998Z</time></trkpt><trkpt lat="42.68463929101529" lon="11.911809191523478"><ele>483.0</ele><time>2026-04-18T07:02:26.998Z</time></trkpt><trkpt lat="42.684622160652005" lon="11.91158584016269"><ele>484.0</ele><time>2026-04-18T07:02:27.998Z</time></trkpt><trkpt lat="42.684612125962566" lon="11.91136332816285"><ele>485.0</ele><time>2026-04-18T07:02:28.998Z</time></trkpt><trkpt lat="42.68461135244378" lon="11.911129254278977"><ele>486.0</ele><time>2026-04-18T07:02:29.997Z</time></trkpt><trkpt lat="42.68461135244188" lon="11.910907711081371"><ele>486.33333333333337</ele><time>2026-04-18T07:02:30.997Z</time></trkpt><trkpt lat="42.68460844426683" lon="11.910681635807729"><ele>486.6666666666667</ele><time>2026-04-18T07:02:31.997Z</time></trkpt><trkpt lat="42.68459299614252" lon="11.910447937919795"><ele>487.0</ele><time>2026-04-18T07:02:32.997Z</time></trkpt><trkpt lat="42.68455958008554" lon="11.910220844826002"><ele>485.6666666666667</ele><time>2026-04-18T07:02:33.997Z</time></trkpt><trkpt lat="42.68451663240352" lon="11.910003305255607"><ele>484.33333333333337</ele><time>2026-04-18T07:02:34.997Z</time></trkpt><trkpt lat="42.68446035866343" lon="11.90978380127041"><ele>483.0</ele><time>2026-04-18T07:02:35.997Z</time></trkpt><trkpt lat="42.68438972957726" lon="11.909587345703125"><ele>481.0</ele><time>2026-04-18T07:02:36.997Z</time></trkpt><trkpt lat="42.68433031501139" lon="11.909399444355026"><ele>479.0</ele><time>2026-04-18T07:02:37.997Z</time></trkpt><trkpt lat="42.68428782991011" lon="11.909232240069862"><ele>477.0</ele><time>2026-04-18T07:02:38.997Z</time></trkpt><trkpt lat="42.68424048836624" lon="11.909085692931336"><ele>475.0</ele><time>2026-04-18T07:02:39.997Z</time></trkpt><trkpt lat="42.68419440684176" lon="11.908941661482045"><ele>475.0</ele><time>2026-04-18T07:02:40.997Z</time></trkpt><trkpt lat="42.68413163791612" lon="11.908805456355578"><ele>475.0</ele><time>2026-04-18T07:02:41.997Z</time></trkpt><trkpt lat="42.68409388300392" lon="11.908647680805844"><ele>475.0</ele><time>2026-04-18T07:02:42.997Z</time></trkpt><trkpt lat="42.684065383092594" lon="11.908487919512977"><ele>475.0</ele><time>2026-04-18T07:02:43.997Z</time></trkpt><trkpt lat="42.68405084361115" lon="11.908323012537174"><ele>477.0</ele><time>2026-04-18T07:02:44.997Z</time></trkpt><trkpt lat="42.68405778328456" lon="11.908151018993175"><ele>479.0</ele><time>2026-04-18T07:02:45.997Z</time></trkpt><trkpt lat="42.68408573828706" lon="11.907980087258695"><ele>481.0</ele><time>2026-04-18T07:02:46.997Z</time></trkpt><trkpt lat="42.68412767625439" lon="11.907811534963827"><ele>483.0</ele><time>2026-04-18T07:02:47.997Z</time></trkpt><trkpt lat="42.68419113875376" lon="11.907652246044632"><ele>483.5</ele><time>2026-04-18T07:02:48.997Z</time></trkpt><trkpt lat="42.68427743831949" lon="11.90751143359354"><ele>484.0</ele><time>2026-04-18T07:02:49.997Z</time></trkpt><trkpt lat="42.68437840447764" lon="11.907389752550715"><ele>484.5</ele><time>2026-04-18T07:02:50.997Z</time></trkpt><trkpt lat="42.68448127767027" lon="11.907285204172227"><ele>485.0</ele><time>2026-04-18T07:02:51.997Z</time></trkpt><trkpt lat="42.68457191573875" lon="11.907204739407723"><ele>486.8</ele><time>2026-04-18T07:02:52.997Z</time></trkpt><trkpt lat="42.684654374274714" lon="11.907139789349278"><ele>488.6</ele><time>2026-04-18T07:02:53.997Z</time></trkpt><trkpt lat="42.68473116109519" lon="11.907079743576993"><ele>490.4</ele><time>2026-04-18T07:02:54.997Z</time></trkpt><trkpt lat="42.68480789406993" lon="11.907020615832108"><ele>492.2</ele><time>2026-04-18T07:02:55.997Z</time></trkpt><trkpt lat="42.68488863612872" lon="11.906961860690867"><ele>494.0</ele><time>2026-04-18T07:02:56.997Z</time></trkpt><trkpt lat="42.68496647522516" lon="11.90690405413492"><ele>493.99999999999994</ele><time>2026-04-18T07:02:57.997Z</time></trkpt><trkpt lat="42.68504424613753" lon="11.906852801932352"><ele>494.0</ele><time>2026-04-18T07:02:58.997Z</time></trkpt><trkpt lat="42.68511789299333" lon="11.906808855505984"><ele>494.0</ele><time>2026-04-18T07:02:59.997Z</time></trkpt><trkpt lat="42.685188360892894" lon="11.90676398288545"><ele>494.0</ele><time>2026-04-18T07:03:00.997Z</time></trkpt><trkpt lat="42.68524924084718" lon="11.906718891339676"><ele>493.99999999999994</ele><time>2026-04-18T07:03:01.997Z</time></trkpt><trkpt lat="42.68531063107256" lon="11.906673100823395"><ele>494.0</ele><time>2026-04-18T07:03:02.997Z</time></trkpt><trkpt lat="42.68537184850183" lon="11.906632333799486"><ele>494.2</ele><time>2026-04-18T07:03:03.997Z</time></trkpt><trkpt lat="42.68547843308134" lon="11.906548860462413"><ele>494.4</ele><time>2026-04-18T07:03:05.997Z</time></trkpt><trkpt lat="42.68558084218142" lon="11.906475195838329"><ele>494.6</ele><time>2026-04-18T07:03:07.997Z</time></trkpt><trkpt lat="42.68566039432537" lon="11.90642008536826"><ele>494.8</ele><time>2026-04-18T07:03:09.997Z</time></trkpt><trkpt lat="42.68571996432059" lon="11.90637628579896"><ele>495.0</ele><time>2026-04-18T07:03:11.997Z</time></trkpt><trkpt lat="42.68581695863356" lon="11.906309158238392"><ele>495.0</ele><time>2026-04-18T07:03:14.997Z</time></trkpt><trkpt lat="42.685892739527425" lon="11.906262388855625"><ele>495.0</ele><time>2026-04-18T07:03:15.997Z</time></trkpt><trkpt lat="42.68596331620199" lon="11.90621390556048"><ele>495.0</ele><time>2026-04-18T07:03:16.998Z</time></trkpt><trkpt lat="42.6860375358793" lon="11.906156767769952"><ele>495.0</ele><time>2026-04-18T07:03:17.998Z</time></trkpt><trkpt lat="42.68610198855308" lon="11.906109835742404"><ele>495.0</ele><time>2026-04-18T07:03:18.998Z</time></trkpt><trkpt lat="42.68616413188942" lon="11.906079396178491"><ele>495.0</ele><time>2026-04-18T07:03:19.999Z</time></trkpt><trkpt lat="42.686241196747545" lon="11.905988634752765"><ele>495.0</ele><time>2026-04-18T07:03:21.999Z</time></trkpt><trkpt lat="42.6861607930499" lon="11.905726943815674"><ele>495.0</ele><time>2026-04-18T07:03:24.999Z</time></trkpt><trkpt lat="42.686113723997664" lon="11.90560850046569"><ele>495.0</ele><time>2026-04-18T07:03:25.999Z</time></trkpt><trkpt lat="42.686053162813515" lon="11.90545427707709"><ele>495.0</ele><time>2026-04-18T07:03:26.999Z</time></trkpt><trkpt lat="42.68597479203401" lon="11.90529728100061"><ele>495.0</ele><time>2026-04-18T07:03:27.999Z</time></trkpt><trkpt lat="42.68591409495471" lon="11.905108336824092"><ele>495.0</ele><time>2026-04-18T07:03:28.999Z</time></trkpt><trkpt lat="42.685836344419414" lon="11.904922551242759"><ele>495.0</ele><time>2026-04-18T07:03:29.999Z</time></trkpt><trkpt lat="42.68577381715869" lon="11.904713309573959"><ele>495.33333333333337</ele><time>2026-04-18T07:03:30.999Z</time></trkpt><trkpt lat="42.685695064593354" lon="11.90451166437216"><ele>495.6666666666667</ele><time>2026-04-18T07:03:31.999Z</time></trkpt><trkpt lat="42.68561204441181" lon="11.904294321331966"><ele>496.0</ele><time>2026-04-18T07:03:32.999Z</time></trkpt><trkpt lat="42.6855400286477" lon="11.904090736352275"><ele>496.5</ele><time>2026-04-18T07:03:33.999Z</time></trkpt><trkpt lat="42.685487516103734" lon="11.903911799261394"><ele>497.0</ele><time>2026-04-18T07:03:34.999Z</time></trkpt><trkpt lat="42.685445443117786" lon="11.90374994936977"><ele>497.5</ele><time>2026-04-18T07:03:35.999Z</time></trkpt><trkpt lat="42.68542871828553" lon="11.903566159929257"><ele>498.0</ele><time>2026-04-18T07:03:36.999Z</time></trkpt><trkpt lat="42.68542097432516" lon="11.90336895102118"><ele>498.5</ele><time>2026-04-18T07:03:37.999Z</time></trkpt><trkpt lat="42.68542586024107" lon="11.903166644779771"><ele>499.0</ele><time>2026-04-18T07:03:39Z</time></trkpt><trkpt lat="42.68543343940381" lon="11.902964266710883"><ele>499.5</ele><time>2026-04-18T07:03:40Z</time></trkpt><trkpt lat="42.685435941283316" lon="11.902759526972098"><ele>500.0</ele><time>2026-04-18T07:03:41Z</time></trkpt><trkpt lat="42.68544477937063" lon="11.902577618801079"><ele>500.5</ele><time>2026-04-18T07:03:42Z</time></trkpt><trkpt lat="42.685475753818466" lon="11.902397667098803"><ele>501.0</ele><time>2026-04-18T07:03:43Z</time></trkpt><trkpt lat="42.68553117379307" lon="11.902221546904228"><ele>501.5</ele><time>2026-04-18T07:03:44Z</time></trkpt><trkpt lat="42.685594015943614" lon="11.902031989828618"><ele>502.0</ele><time>2026-04-18T07:03:45Z</time></trkpt><trkpt lat="42.685642205403774" lon="11.901841456701304"><ele>502.5</ele><time>2026-04-18T07:03:46Z</time></trkpt><trkpt lat="42.685681116171175" lon="11.901652313958888"><ele>503.0</ele><time>2026-04-18T07:03:47Z</time></trkpt><trkpt lat="42.685706967212305" lon="11.901468648448319"><ele>503.5</ele><time>2026-04-18T07:03:48Z</time></trkpt><trkpt lat="42.68575337170006" lon="11.90126877179845"><ele>504.0</ele><time>2026-04-18T07:03:49Z</time></trkpt><trkpt lat="42.68577267615639" lon="11.90105973357891"><ele>505.0</ele><time>2026-04-18T07:03:50Z</time></trkpt><trkpt lat="42.68578741284032" lon="11.900848980648576"><ele>506.0</ele><time>2026-04-18T07:03:51Z</time></trkpt><trkpt lat="42.68579129954575" lon="11.900637749602746"><ele>507.0</ele><time>2026-04-18T07:03:52Z</time></trkpt><trkpt lat="42.68581583264524" lon="11.900419627507443"><ele>507.0</ele><time>2026-04-18T07:03:53Z</time></trkpt><trkpt lat="42.68582708655297" lon="11.900211082389374"><ele>507.0</ele><time>2026-04-18T07:03:54Z</time></trkpt><trkpt lat="42.68583606223198" lon="11.900037883480634"><ele>507.0</ele><time>2026-04-18T07:03:55Z</time></trkpt><trkpt lat="42.685839367959574" lon="11.899878694066057"><ele>507.0</ele><time>2026-04-18T07:03:56Z</time></trkpt><trkpt lat="42.68582985489855" lon="11.899707322339276"><ele>507.0</ele><time>2026-04-18T07:03:57Z</time></trkpt><trkpt lat="42.68579772556363" lon="11.899528716155066"><ele>507.0</ele><time>2026-04-18T07:03:58Z</time></trkpt><trkpt lat="42.685749000373185" lon="11.899347227462316"><ele>507.0</ele><time>2026-04-18T07:03:59Z</time></trkpt><trkpt lat="42.685672367656615" lon="11.899180631738043"><ele>507.0</ele><time>2026-04-18T07:04:00Z</time></trkpt><trkpt lat="42.68556513851666" lon="11.89906410450484"><ele>507.0</ele><time>2026-04-18T07:04:01Z</time></trkpt><trkpt lat="42.6854235418057" lon="11.898975167369072"><ele>507.0</ele><time>2026-04-18T07:04:02Z</time></trkpt><trkpt lat="42.68525281204937" lon="11.898833311753336"><ele>507.0</ele><time>2026-04-18T07:04:03Z</time></trkpt><trkpt lat="42.685082122485916" lon="11.898708099015135"><ele>506.25</ele><time>2026-04-18T07:04:03.999Z</time></trkpt><trkpt lat="42.68494032286921" lon="11.898619423841565"><ele>505.5</ele><time>2026-04-18T07:04:04.999Z</time></trkpt><trkpt lat="42.68482575536618" lon="11.898495297415868"><ele>504.75</ele><time>2026-04-18T07:04:05.999Z</time></trkpt><trkpt lat="42.6847125708029" lon="11.898384474305148"><ele>504.0</ele><time>2026-04-18T07:04:06.999Z</time></trkpt><trkpt lat="42.684592682697605" lon="11.898263095512062"><ele>504.0</ele><time>2026-04-18T07:04:07.999Z</time></trkpt><trkpt lat="42.684479479623135" lon="11.898138149005396"><ele>504.0</ele><time>2026-04-18T07:04:08.999Z</time></trkpt><trkpt lat="42.68436477734341" lon="11.898032269197147"><ele>504.0</ele><time>2026-04-18T07:04:09.999Z</time></trkpt><trkpt lat="42.684269194439565" lon="11.897911746130248"><ele>504.0</ele><time>2026-04-18T07:04:10.999Z</time></trkpt><trkpt lat="42.68418576839267" lon="11.897789057703894"><ele>503.25</ele><time>2026-04-18T07:04:11.999Z</time></trkpt><trkpt lat="42.684124802908364" lon="11.897649890529888"><ele>502.5</ele><time>2026-04-18T07:04:12.999Z</time></trkpt><trkpt lat="42.68408363834161" lon="11.897497290802278"><ele>501.75</ele><time>2026-04-18T07:04:13.999Z</time></trkpt><trkpt lat="42.684061219168804" lon="11.897333205857677"><ele>501.0</ele><time>2026-04-18T07:04:14.999Z</time></trkpt><trkpt lat="42.684061158555856" lon="11.897157706490821"><ele>501.0</ele><time>2026-04-18T07:04:15.999Z</time></trkpt><trkpt lat="42.684079746990435" lon="11.896976009978948"><ele>501.0</ele><time>2026-04-18T07:04:16.999Z</time></trkpt><trkpt lat="42.684110526920726" lon="11.896798193540109"><ele>501.0</ele><time>2026-04-18T07:04:17.999Z</time></trkpt><trkpt lat="42.68415007269831" lon="11.896611984525046"><ele>501.0</ele><time>2026-04-18T07:04:18.999Z</time></trkpt><trkpt lat="42.68418940592904" lon="11.896427601461395"><ele>501.0</ele><time>2026-04-18T07:04:19.999Z</time></trkpt><trkpt lat="42.68423149061678" lon="11.896237221293738"><ele>501.0</ele><time>2026-04-18T07:04:20.999Z</time></trkpt><trkpt lat="42.684271965638075" lon="11.89603861792153"><ele>501.0</ele><time>2026-04-18T07:04:21.999Z</time></trkpt><trkpt lat="42.68431217277065" lon="11.895836564942366"><ele>501.0</ele><time>2026-04-18T07:04:22.999Z</time></trkpt><trkpt lat="42.68435792080757" lon="11.895630479091164"><ele>501.0</ele><time>2026-04-18T07:04:23.999Z</time></trkpt><trkpt lat="42.68440354362345" lon="11.895422449341396"><ele>501.0</ele><time>2026-04-18T07:04:24.999Z</time></trkpt><trkpt lat="42.68444722664052" lon="11.895222676846398"><ele>497.25</ele><time>2026-04-18T07:04:25.999Z</time></trkpt><trkpt lat="42.68449207783843" lon="11.895037527828144"><ele>493.5</ele><time>2026-04-18T07:04:26.999Z</time></trkpt><trkpt lat="42.684542762699614" lon="11.89486053650797"><ele>489.75</ele><time>2026-04-18T07:04:27.999Z</time></trkpt><trkpt lat="42.68460080377217" lon="11.894689284255122"><ele>486.0</ele><time>2026-04-18T07:04:28.999Z</time></trkpt><trkpt lat="42.68466475586295" lon="11.894522058725265"><ele>486.0</ele><time>2026-04-18T07:04:29.999Z</time></trkpt><trkpt lat="42.68473341455829" lon="11.894356023098569"><ele>486.0</ele><time>2026-04-18T07:04:30.999Z</time></trkpt><trkpt lat="42.68479291620066" lon="11.894179415136563"><ele>486.0</ele><time>2026-04-18T07:04:31.999Z</time></trkpt><trkpt lat="42.68482816614209" lon="11.893993526414002"><ele>486.0</ele><time>2026-04-18T07:04:32.999Z</time></trkpt><trkpt lat="42.684825970091936" lon="11.893793847575362"><ele>484.33333333333337</ele><time>2026-04-18T07:04:33.999Z</time></trkpt><trkpt lat="42.684792758688296" lon="11.893577169165162"><ele>482.6666666666667</ele><time>2026-04-18T07:04:34.999Z</time></trkpt><trkpt lat="42.68476812169487" lon="11.893355663510023"><ele>481.0</ele><time>2026-04-18T07:04:35.999Z</time></trkpt><trkpt lat="42.684713360601066" lon="11.893135464445049"><ele>479.0</ele><time>2026-04-18T07:04:36.999Z</time></trkpt><trkpt lat="42.68467864634025" lon="11.892918049938798"><ele>477.0</ele><time>2026-04-18T07:04:37.999Z</time></trkpt><trkpt lat="42.68463889378491" lon="11.892726712723455"><ele>475.0</ele><time>2026-04-18T07:04:38.999Z</time></trkpt><trkpt lat="42.68459839218554" lon="11.892542633713411"><ele>474.5</ele><time>2026-04-18T07:04:39.999Z</time></trkpt><trkpt lat="42.68456290053145" lon="11.892346296768658"><ele>474.0</ele><time>2026-04-18T07:04:40.999Z</time></trkpt><trkpt lat="42.684514990920746" lon="11.892160328906662"><ele>473.5</ele><time>2026-04-18T07:04:41.999Z</time></trkpt><trkpt lat="42.6844431692133" lon="11.891994515943997"><ele>473.0</ele><time>2026-04-18T07:04:42.999Z</time></trkpt><trkpt lat="42.684347539941676" lon="11.891854508161897"><ele>472.0</ele><time>2026-04-18T07:04:43.999Z</time></trkpt><trkpt lat="42.68420375154818" lon="11.891718676523563"><ele>471.0</ele><time>2026-04-18T07:04:44.999Z</time></trkpt><trkpt lat="42.68405750511814" lon="11.891608923145823"><ele>470.0</ele><time>2026-04-18T07:04:45.999Z</time></trkpt><trkpt lat="42.68394939516554" lon="11.891470484341106"><ele>470.0</ele><time>2026-04-18T07:04:46.999Z</time></trkpt><trkpt lat="42.68386306060226" lon="11.891327649024417"><ele>470.0</ele><time>2026-04-18T07:04:47.999Z</time></trkpt><trkpt lat="42.6837946643764" lon="11.891170575762072"><ele>470.0</ele><time>2026-04-18T07:04:48.999Z</time></trkpt><trkpt lat="42.68377329982619" lon="11.890975651464204"><ele>470.0</ele><time>2026-04-18T07:04:49.999Z</time></trkpt><trkpt lat="42.683787700735216" lon="11.89077083404522"><ele>469.0</ele><time>2026-04-18T07:04:50.999Z</time></trkpt><trkpt lat="42.68385863325238" lon="11.890576378665378"><ele>468.0</ele><time>2026-04-18T07:04:51.999Z</time></trkpt><trkpt lat="42.6839173014753" lon="11.890373802298239"><ele>467.0</ele><time>2026-04-18T07:04:52.999Z</time></trkpt><trkpt lat="42.683997121712345" lon="11.890165971956051"><ele>466.0</ele><time>2026-04-18T07:04:53.999Z</time></trkpt><trkpt lat="42.68406757554661" lon="11.889961108867734"><ele>465.0</ele><time>2026-04-18T07:04:54.999Z</time></trkpt><trkpt lat="42.684138760753136" lon="11.889742811685824"><ele>464.0</ele><time>2026-04-18T07:04:55.999Z</time></trkpt><trkpt lat="42.6842156434106" lon="11.889529611489763"><ele>464.0</ele><time>2026-04-18T07:04:56.999Z</time></trkpt><trkpt lat="42.684290047951336" lon="11.889327124663513"><ele>464.0</ele><time>2026-04-18T07:04:57.999Z</time></trkpt><trkpt lat="42.68435550450874" lon="11.889128394667768"><ele>464.0</ele><time>2026-04-18T07:04:58.999Z</time></trkpt><trkpt lat="42.68439369517315" lon="11.88891600495056"><ele>463.66666666666663</ele><time>2026-04-18T07:04:59.999Z</time></trkpt><trkpt lat="42.68439187574535" lon="11.888704205237243"><ele>463.33333333333337</ele><time>2026-04-18T07:05:00.999Z</time></trkpt><trkpt lat="42.684360039940806" lon="11.888492185999091"><ele>463.0</ele><time>2026-04-18T07:05:01.999Z</time></trkpt><trkpt lat="42.68431085382516" lon="11.888278820770704"><ele>463.0</ele><time>2026-04-18T07:05:02.999Z</time></trkpt><trkpt lat="42.68425564416644" lon="11.888071707937744"><ele>463.0</ele><time>2026-04-18T07:05:03.999Z</time></trkpt><trkpt lat="42.684197777953536" lon="11.887864314645144"><ele>463.0</ele><time>2026-04-18T07:05:04.999Z</time></trkpt><trkpt lat="42.68414162704589" lon="11.88764865457411"><ele>462.33333333333337</ele><time>2026-04-18T07:05:05.999Z</time></trkpt><trkpt lat="42.68409166997968" lon="11.88743843382792"><ele>461.66666666666663</ele><time>2026-04-18T07:05:06.999Z</time></trkpt><trkpt lat="42.68403876488313" lon="11.887210524919558"><ele>461.0</ele><time>2026-04-18T07:05:07.999Z</time></trkpt><trkpt lat="42.68398582680233" lon="11.88699780144191"><ele>461.0</ele><time>2026-04-18T07:05:08.999Z</time></trkpt><trkpt lat="42.68393199610222" lon="11.886777916361313"><ele>461.0</ele><time>2026-04-18T07:05:09.999Z</time></trkpt><trkpt lat="42.683880048534895" lon="11.886558663874158"><ele>461.0</ele><time>2026-04-18T07:05:10.999Z</time></trkpt><trkpt lat="42.68382890009511" lon="11.886343914736877"><ele>461.3333333333333</ele><time>2026-04-18T07:05:11.999Z</time></trkpt><trkpt lat="42.683783869777066" lon="11.886130921958657"><ele>461.66666666666663</ele><time>2026-04-18T07:05:12.998Z</time></trkpt><trkpt lat="42.68374503516101" lon="11.885912571965278"><ele>462.0</ele><time>2026-04-18T07:05:13.998Z</time></trkpt><trkpt lat="42.683715656467854" lon="11.885709380129386"><ele>462.0</ele><time>2026-04-18T07:05:14.998Z</time></trkpt><trkpt lat="42.683690775724855" lon="11.88551203976207"><ele>462.0</ele><time>2026-04-18T07:05:15.998Z</time></trkpt><trkpt lat="42.68367711400024" lon="11.885313368051182"><ele>462.0</ele><time>2026-04-18T07:05:16.998Z</time></trkpt><trkpt lat="42.68367998935443" lon="11.885117150244312"><ele>462.0</ele><time>2026-04-18T07:05:17.998Z</time></trkpt><trkpt lat="42.6837056367706" lon="11.88491572766463"><ele>462.0</ele><time>2026-04-18T07:05:18.998Z</time></trkpt><trkpt lat="42.683735639065404" lon="11.884711657385012"><ele>462.0</ele><time>2026-04-18T07:05:19.998Z</time></trkpt><trkpt lat="42.68376531951272" lon="11.884505421171406"><ele>462.0</ele><time>2026-04-18T07:05:20.998Z</time></trkpt><trkpt lat="42.68379089404705" lon="11.8842967350854"><ele>462.0</ele><time>2026-04-18T07:05:21.998Z</time></trkpt><trkpt lat="42.68381566393147" lon="11.88408317777811"><ele>462.0</ele><time>2026-04-18T07:05:23Z</time></trkpt><trkpt lat="42.683846502074104" lon="11.883871816944758"><ele>462.0</ele><time>2026-04-18T07:05:24Z</time></trkpt><trkpt lat="42.683874292936714" lon="11.883658966157654"><ele>462.0</ele><time>2026-04-18T07:05:25Z</time></trkpt><trkpt lat="42.683902953296624" lon="11.883440152946525"><ele>462.0</ele><time>2026-04-18T07:05:26Z</time></trkpt><trkpt lat="42.68393118716478" lon="11.883218297789071"><ele>462.0</ele><time>2026-04-18T07:05:27Z</time></trkpt><trkpt lat="42.68396388191259" lon="11.88299303142364"><ele>462.66666666666663</ele><time>2026-04-18T07:05:28Z</time></trkpt><trkpt lat="42.684001583328566" lon="11.8827669888305"><ele>463.3333333333333</ele><time>2026-04-18T07:05:29Z</time></trkpt><trkpt lat="42.684048699084904" lon="11.88254514385301"><ele>464.0</ele><time>2026-04-18T07:05:30Z</time></trkpt><trkpt lat="42.68409663088818" lon="11.882318027667292"><ele>464.3333333333333</ele><time>2026-04-18T07:05:31Z</time></trkpt><trkpt lat="42.68414430320678" lon="11.882089280420137"><ele>464.66666666666663</ele><time>2026-04-18T07:05:32Z</time></trkpt><trkpt lat="42.684192240048944" lon="11.88186566841555"><ele>465.0</ele><time>2026-04-18T07:05:33Z</time></trkpt><trkpt lat="42.6842363909475" lon="11.881642067906787"><ele>465.25</ele><time>2026-04-18T07:05:34Z</time></trkpt><trkpt lat="42.68427419624518" lon="11.881427334007734"><ele>465.5</ele><time>2026-04-18T07:05:35Z</time></trkpt><trkpt lat="42.68430755786987" lon="11.881229531055649"><ele>465.75</ele><time>2026-04-18T07:05:36Z</time></trkpt><trkpt lat="42.68433823550742" lon="11.88104770646851"><ele>466.0</ele><time>2026-04-18T07:05:37Z</time></trkpt><trkpt lat="42.68438248998195" lon="11.88087967839363"><ele>466.25</ele><time>2026-04-18T07:05:38Z</time></trkpt><trkpt lat="42.684409446593044" lon="11.880711378117399"><ele>466.5</ele><time>2026-04-18T07:05:39Z</time></trkpt><trkpt lat="42.68446601738015" lon="11.880563196714586"><ele>466.75</ele><time>2026-04-18T07:05:40Z</time></trkpt><trkpt lat="42.68453894752265" lon="11.880419922494378"><ele>467.0</ele><time>2026-04-18T07:05:41Z</time></trkpt><trkpt lat="42.684616761490446" lon="11.880284708445478"><ele>467.0</ele><time>2026-04-18T07:05:42Z</time></trkpt><trkpt lat="42.6846897095446" lon="11.880170458301354"><ele>467.0</ele><time>2026-04-18T07:05:43Z</time></trkpt><trkpt lat="42.68475151674971" lon="11.880039605574243"><ele>467.0</ele><time>2026-04-18T07:05:44Z</time></trkpt><trkpt lat="42.68478647918161" lon="11.87987540049219"><ele>467.0</ele><time>2026-04-18T07:05:45Z</time></trkpt><trkpt lat="42.68478277523774" lon="11.879685953294747"><ele>466.66666666666663</ele><time>2026-04-18T07:05:46Z</time></trkpt><trkpt lat="42.684750189190915" lon="11.879488893023389"><ele>466.33333333333337</ele><time>2026-04-18T07:05:47Z</time></trkpt><trkpt lat="42.68469940684464" lon="11.879297755287274"><ele>466.0</ele><time>2026-04-18T07:05:48Z</time></trkpt><trkpt lat="42.68462862596621" lon="11.879112426887247"><ele>466.0</ele><time>2026-04-18T07:05:49Z</time></trkpt><trkpt lat="42.684545881305255" lon="11.878927424270605"><ele>466.0</ele><time>2026-04-18T07:05:50Z</time></trkpt><trkpt lat="42.68445004081193" lon="11.878751794332022"><ele>466.0</ele><time>2026-04-18T07:05:51Z</time></trkpt><trkpt lat="42.68434703188305" lon="11.878581211952977"><ele>467.0</ele><time>2026-04-18T07:05:52Z</time></trkpt><trkpt lat="42.68424135908839" lon="11.878411391370642"><ele>468.0</ele><time>2026-04-18T07:05:53Z</time></trkpt><trkpt lat="42.68413442537647" lon="11.878235801433918"><ele>469.0</ele><time>2026-04-18T07:05:54Z</time></trkpt><trkpt lat="42.684023080446856" lon="11.878063608055314"><ele>469.0</ele><time>2026-04-18T07:05:55Z</time></trkpt><trkpt lat="42.683906469962814" lon="11.877884664418579"><ele>469.0</ele><time>2026-04-18T07:05:56Z</time></trkpt><trkpt lat="42.683789090255374" lon="11.877721832864657"><ele>469.0</ele><time>2026-04-18T07:05:57Z</time></trkpt><trkpt lat="42.683664435465914" lon="11.877572031500845"><ele>469.0</ele><time>2026-04-18T07:05:58Z</time></trkpt><trkpt lat="42.68354711939407" lon="11.87744549414412"><ele>469.0</ele><time>2026-04-18T07:05:59Z</time></trkpt><trkpt lat="42.68343787597397" lon="11.877329005532095"><ele>469.0</ele><time>2026-04-18T07:06:00Z</time></trkpt><trkpt lat="42.683343959866804" lon="11.877204231629323"><ele>469.0</ele><time>2026-04-18T07:06:01Z</time></trkpt><trkpt lat="42.68327729397744" lon="11.877043477156247"><ele>469.0</ele><time>2026-04-18T07:06:02Z</time></trkpt><trkpt lat="42.683210924015754" lon="11.876876295607996"><ele>469.0</ele><time>2026-04-18T07:06:03Z</time></trkpt><trkpt lat="42.68313313262891" lon="11.876705485802017"><ele>469.0</ele><time>2026-04-18T07:06:04Z</time></trkpt><trkpt lat="42.68307207897325" lon="11.876524713513433"><ele>469.0</ele><time>2026-04-18T07:06:05Z</time></trkpt><trkpt lat="42.68301066932215" lon="11.876337985139909"><ele>470.0</ele><time>2026-04-18T07:06:06Z</time></trkpt><trkpt lat="42.68296723032518" lon="11.876137801606438"><ele>471.0</ele><time>2026-04-18T07:06:07Z</time></trkpt><trkpt lat="42.6829120670846" lon="11.875942367948445"><ele>472.0</ele><time>2026-04-18T07:06:08Z</time></trkpt><trkpt lat="42.682844199041675" lon="11.875754917179579"><ele>472.0</ele><time>2026-04-18T07:06:09Z</time></trkpt><trkpt lat="42.682794744687094" lon="11.875564958008178"><ele>472.0</ele><time>2026-04-18T07:06:10Z</time></trkpt><trkpt lat="42.68274461346671" lon="11.875397140810234"><ele>472.0</ele><time>2026-04-18T07:06:10.999Z</time></trkpt><trkpt lat="42.6826703395153" lon="11.87525466283555"><ele>472.0</ele><time>2026-04-18T07:06:11.999Z</time></trkpt><trkpt lat="42.6825730697244" lon="11.875124264382569"><ele>472.25</ele><time>2026-04-18T07:06:12.999Z</time></trkpt><trkpt lat="42.682470925006" lon="11.875005737114563"><ele>472.5</ele><time>2026-04-18T07:06:13.999Z</time></trkpt><trkpt lat="42.68236954184179" lon="11.874887477548022"><ele>472.75</ele><time>2026-04-18T07:06:14.999Z</time></trkpt><trkpt lat="42.682263570559336" lon="11.874767248806194"><ele>473.0</ele><time>2026-04-18T07:06:15.999Z</time></trkpt><trkpt lat="42.68215383410459" lon="11.874652770831796"><ele>473.0</ele><time>2026-04-18T07:06:16.999Z</time></trkpt><trkpt lat="42.682037367656065" lon="11.874549099995015"><ele>473.0</ele><time>2026-04-18T07:06:17.999Z</time></trkpt><trkpt lat="42.68191230439422" lon="11.87447196020961"><ele>473.0</ele><time>2026-04-18T07:06:18.999Z</time></trkpt><trkpt lat="42.68179637158209" lon="11.87441117022543"><ele>473.0</ele><time>2026-04-18T07:06:19.999Z</time></trkpt><trkpt lat="42.68169434108986" lon="11.874346499413777"><ele>473.2</ele><time>2026-04-18T07:06:20.999Z</time></trkpt><trkpt lat="42.68159782203282" lon="11.874279429782263"><ele>473.4</ele><time>2026-04-18T07:06:21.999Z</time></trkpt><trkpt lat="42.68150736596793" lon="11.87421612249177"><ele>473.59999999999997</ele><time>2026-04-18T07:06:22.999Z</time></trkpt><trkpt lat="42.68141825049756" lon="11.874156861311059"><ele>473.79999999999995</ele><time>2026-04-18T07:06:23.999Z</time></trkpt><trkpt lat="42.681331782403475" lon="11.874100726408816"><ele>474.0</ele><time>2026-04-18T07:06:24.999Z</time></trkpt><trkpt lat="42.68124154784247" lon="11.874040485379846"><ele>474.0</ele><time>2026-04-18T07:06:25.999Z</time></trkpt><trkpt lat="42.68114736640413" lon="11.873979585667627"><ele>474.0</ele><time>2026-04-18T07:06:26.999Z</time></trkpt><trkpt lat="42.681048580722" lon="11.873922333551109"><ele>474.0</ele><time>2026-04-18T07:06:27.999Z</time></trkpt><trkpt lat="42.6809467329068" lon="11.87385434292523"><ele>474.0</ele><time>2026-04-18T07:06:28.999Z</time></trkpt><trkpt lat="42.68084587337295" lon="11.87378021084183"><ele>474.0</ele><time>2026-04-18T07:06:29.999Z</time></trkpt><trkpt lat="42.68074079384889" lon="11.873709854571024"><ele>474.2</ele><time>2026-04-18T07:06:30.999Z</time></trkpt><trkpt lat="42.68062960184777" lon="11.873643609128761"><ele>474.4</ele><time>2026-04-18T07:06:31.999Z</time></trkpt><trkpt lat="42.68051803201993" lon="11.87358256270854"><ele>474.6</ele><time>2026-04-18T07:06:32.999Z</time></trkpt><trkpt lat="42.680417727745215" lon="11.873542085155824"><ele>474.8</ele><time>2026-04-18T07:06:33.999Z</time></trkpt><trkpt lat="42.68031583634162" lon="11.873523707832947"><ele>475.0</ele><time>2026-04-18T07:06:34.999Z</time></trkpt><trkpt lat="42.6802193283484" lon="11.873528055981474"><ele>475.0</ele><time>2026-04-18T07:06:35.999Z</time></trkpt><trkpt lat="42.68013539106753" lon="11.873534063487131"><ele>475.0</ele><time>2026-04-18T07:06:36.999Z</time></trkpt><trkpt lat="42.680051001819976" lon="11.873523566222444"><ele>475.0</ele><time>2026-04-18T07:06:37.999Z</time></trkpt><trkpt lat="42.67997655644201" lon="11.873484070867596"><ele>475.0</ele><time>2026-04-18T07:06:38.999Z</time></trkpt><trkpt lat="42.67987709876352" lon="11.873284184634027"><ele>475.0</ele><time>2026-04-18T07:06:40.999Z</time></trkpt><trkpt lat="42.679843141463124" lon="11.873152704347628"><ele>475.0</ele><time>2026-04-18T07:06:41.999Z</time></trkpt><trkpt lat="42.67981757390758" lon="11.873014001096829"><ele>475.0</ele><time>2026-04-18T07:06:42.999Z</time></trkpt><trkpt lat="42.67979545599603" lon="11.872864566623733"><ele>475.0</ele><time>2026-04-18T07:06:43.999Z</time></trkpt><trkpt lat="42.679768708250286" lon="11.872717670557893"><ele>475.0</ele><time>2026-04-18T07:06:44.999Z</time></trkpt><trkpt lat="42.679731730450214" lon="11.872567103602437"><ele>475.0</ele><time>2026-04-18T07:06:45.999Z</time></trkpt><trkpt lat="42.67967626645448" lon="11.872414351938556"><ele>475.25</ele><time>2026-04-18T07:06:46.999Z</time></trkpt><trkpt lat="42.67959205110576" lon="11.872271030491454"><ele>475.5</ele><time>2026-04-18T07:06:47.999Z</time></trkpt><trkpt lat="42.67948524143813" lon="11.87213218242782"><ele>475.75</ele><time>2026-04-18T07:06:48.999Z</time></trkpt><trkpt lat="42.67937586367802" lon="11.872000142887064"><ele>476.0</ele><time>2026-04-18T07:06:49.999Z</time></trkpt><trkpt lat="42.67927846546685" lon="11.871884704027678"><ele>476.0</ele><time>2026-04-18T07:06:50.999Z</time></trkpt><trkpt lat="42.67919059427656" lon="11.871776854992714"><ele>476.0</ele><time>2026-04-18T07:06:51.999Z</time></trkpt><trkpt lat="42.67912060463315" lon="11.871635747522811"><ele>476.0</ele><time>2026-04-18T07:06:52.999Z</time></trkpt><trkpt lat="42.679032953284114" lon="11.871508771449355"><ele>476.0</ele><time>2026-04-18T07:06:53.999Z</time></trkpt><trkpt lat="42.678958335086094" lon="11.871361592684078"><ele>475.66666666666663</ele><time>2026-04-18T07:06:54.999Z</time></trkpt><trkpt lat="42.67886056258816" lon="11.871188474872781"><ele>475.33333333333337</ele><time>2026-04-18T07:06:55.999Z</time></trkpt><trkpt lat="42.678733120922615" lon="11.870973425282692"><ele>475.0</ele><time>2026-04-18T07:06:56.999Z</time></trkpt><trkpt lat="42.67860646870752" lon="11.870771107922199"><ele>476.75</ele><time>2026-04-18T07:06:57.999Z</time></trkpt><trkpt lat="42.67850673169949" lon="11.87059865369214"><ele>478.5</ele><time>2026-04-18T07:06:58.999Z</time></trkpt><trkpt lat="42.67843265960393" lon="11.870449074771699"><ele>480.25</ele><time>2026-04-18T07:06:59.999Z</time></trkpt><trkpt lat="42.678375472864865" lon="11.870298156869561"><ele>482.0</ele><time>2026-04-18T07:07:00.999Z</time></trkpt><trkpt lat="42.67832437915221" lon="11.87013439180267"><ele>483.20000000000005</ele><time>2026-04-18T07:07:01.999Z</time></trkpt><trkpt lat="42.67828004684103" lon="11.869963469652344"><ele>484.40000000000003</ele><time>2026-04-18T07:07:02.999Z</time></trkpt><trkpt lat="42.67823858792512" lon="11.869799901826854"><ele>485.59999999999997</ele><time>2026-04-18T07:07:03.999Z</time></trkpt><trkpt lat="42.6782220079787" lon="11.869706045012295"><ele>486.79999999999995</ele><time>2026-04-18T07:07:04.999Z</time></trkpt><trkpt lat="42.67828191955845" lon="11.869667465464978"><ele>488.0</ele><time>2026-04-18T07:07:06.999Z</time></trkpt><trkpt lat="42.67840697121199" lon="11.869622464136501"><ele>487.99999999999994</ele><time>2026-04-18T07:07:08.999Z</time></trkpt><trkpt lat="42.678475273089795" lon="11.869595830456381"><ele>488.0</ele><time>2026-04-18T07:07:09.999Z</time></trkpt><trkpt lat="42.678544602584715" lon="11.86958771310003"><ele>488.0</ele><time>2026-04-18T07:07:10.999Z</time></trkpt><trkpt lat="42.67861683066715" lon="11.86955021024345"><ele>488.0</ele><time>2026-04-18T07:07:12.999Z</time></trkpt><trkpt lat="42.67862812262396" lon="11.86968293604659"><ele>487.99999999999994</ele><time>2026-04-18T07:07:13.999Z</time></trkpt><trkpt lat="42.67866625063287" lon="11.869768752747438"><ele>488.0</ele><time>2026-04-18T07:07:15.999Z</time></trkpt><trkpt lat="42.678711613447" lon="11.869850916012098"><ele>486.66666666666663</ele><time>2026-04-18T07:07:18.998Z</time></trkpt><trkpt lat="42.67879301950993" lon="11.869854945153403"><ele>485.33333333333337</ele><time>2026-04-18T07:07:20.998Z</time></trkpt><trkpt lat="42.67889614313076" lon="11.869453994182715"><ele>484.0</ele><time>2026-04-18T07:07:22.998Z</time></trkpt><trkpt lat="42.67862543907581" lon="11.869284663106225"><ele>485.33333333333337</ele><time>2026-04-18T07:07:23.998Z</time></trkpt><trkpt lat="42.678534236383" lon="11.869263969962505"><ele>486.66666666666663</ele><time>2026-04-18T07:07:24.998Z</time></trkpt><trkpt lat="42.6784220615483" lon="11.869588891912331"><ele>488.0</ele><time>2026-04-18T07:07:25.998Z</time></trkpt><trkpt lat="42.67830582447287" lon="11.869632637942738"><ele>488.0</ele><time>2026-04-18T07:07:28Z</time></trkpt><trkpt lat="42.67824340577879" lon="11.86964389609465"><ele>487.99999999999994</ele><time>2026-04-18T07:07:37Z</time></trkpt><trkpt lat="42.678234103855964" lon="11.869883393394844"><ele>487.99999999999994</ele><time>2026-04-18T07:07:40Z</time></trkpt><trkpt lat="42.678261517823934" lon="11.870009070259753"><ele>488.0</ele><time>2026-04-18T07:07:41Z</time></trkpt><trkpt lat="42.67828437074784" lon="11.870095271586466"><ele>488.0</ele><time>2026-04-18T07:07:42Z</time></trkpt><trkpt lat="42.678324282673465" lon="11.870223331227576"><ele>486.99999999999994</ele><time>2026-04-18T07:07:44Z</time></trkpt><trkpt lat="42.67835781570251" lon="11.870321257471522"><ele>486.0</ele><time>2026-04-18T07:07:46Z</time></trkpt><trkpt lat="42.6784166065269" lon="11.870471659752754"><ele>485.0</ele><time>2026-04-18T07:07:48Z</time></trkpt><trkpt lat="42.678455744673336" lon="11.870562678742587"><ele>484.0</ele><time>2026-04-18T07:07:49Z</time></trkpt><trkpt lat="42.678496391953786" lon="11.870642265207293"><ele>482.99999999999994</ele><time>2026-04-18T07:07:50Z</time></trkpt><trkpt lat="42.67854000206517" lon="11.870722352299365"><ele>482.0</ele><time>2026-04-18T07:07:51Z</time></trkpt><trkpt lat="42.678602485807794" lon="11.870827982912127"><ele>482.0</ele><time>2026-04-18T07:07:52Z</time></trkpt><trkpt lat="42.67866815605991" lon="11.870939464726233"><ele>482.00000000000006</ele><time>2026-04-18T07:07:53Z</time></trkpt><trkpt lat="42.67873280519673" lon="11.871052275709513"><ele>482.00000000000006</ele><time>2026-04-18T07:07:54Z</time></trkpt><trkpt lat="42.6787891791555" lon="11.871150646702377"><ele>482.0</ele><time>2026-04-18T07:07:55Z</time></trkpt><trkpt lat="42.67884221975581" lon="11.871243201072737"><ele>482.0</ele><time>2026-04-18T07:07:56Z</time></trkpt><trkpt lat="42.67889816636478" lon="11.871340488303762"><ele>480.6</ele><time>2026-04-18T07:07:57Z</time></trkpt><trkpt lat="42.67896602491588" lon="11.871454136263244"><ele>479.20000000000005</ele><time>2026-04-18T07:07:58Z</time></trkpt><trkpt lat="42.67902621423702" lon="11.871554426215841"><ele>477.8</ele><time>2026-04-18T07:07:59Z</time></trkpt><trkpt lat="42.67907163555422" lon="11.871628007271012"><ele>476.4</ele><time>2026-04-18T07:08:00Z</time></trkpt><trkpt lat="42.67913649129047" lon="11.871728664383456"><ele>475.0</ele><time>2026-04-18T07:08:02Z</time></trkpt><trkpt lat="42.67927412454376" lon="11.87151189437329"><ele>475.0</ele><time>2026-04-18T07:08:05Z</time></trkpt><trkpt lat="42.679366650871046" lon="11.871376668490907"><ele>475.0</ele><time>2026-04-18T07:08:06Z</time></trkpt><trkpt lat="42.67944929844047" lon="11.87122780802479"><ele>475.0</ele><time>2026-04-18T07:08:07Z</time></trkpt><trkpt lat="42.67953973809085" lon="11.871082870355805"><ele>475.0</ele><time>2026-04-18T07:08:08Z</time></trkpt><trkpt lat="42.67963095163659" lon="11.870936693648956"><ele>475.6666666666667</ele><time>2026-04-18T07:08:09Z</time></trkpt><trkpt lat="42.67972690532101" lon="11.870782919568628"><ele>476.33333333333337</ele><time>2026-04-18T07:08:10Z</time></trkpt><trkpt lat="42.67982463212475" lon="11.870626304379698"><ele>477.0</ele><time>2026-04-18T07:08:11Z</time></trkpt><trkpt lat="42.67992266828513" lon="11.870456948290173"><ele>477.0</ele><time>2026-04-18T07:08:12Z</time></trkpt><trkpt lat="42.68003909232011" lon="11.87031445020115"><ele>477.0</ele><time>2026-04-18T07:08:13Z</time></trkpt><trkpt lat="42.68013223198187" lon="11.870181259100427"><ele>477.0</ele><time>2026-04-18T07:08:14Z</time></trkpt><trkpt lat="42.68020434902179" lon="11.870078130725823"><ele>477.0</ele><time>2026-04-18T07:08:15Z</time></trkpt><trkpt lat="42.68025914854118" lon="11.869999766674763"><ele>477.40000000000003</ele><time>2026-04-18T07:08:16Z</time></trkpt><trkpt lat="42.680297170398426" lon="11.869915272939899"><ele>477.80000000000007</ele><time>2026-04-18T07:08:17Z</time></trkpt><trkpt lat="42.68036541360712" lon="11.86982335797533"><ele>478.2</ele><time>2026-04-18T07:08:18.999Z</time></trkpt><trkpt lat="42.68042569150411" lon="11.86974130955122"><ele>478.6</ele><time>2026-04-18T07:08:20.999Z</time></trkpt><trkpt lat="42.680491829631045" lon="11.869667029544122"><ele>479.0</ele><time>2026-04-18T07:08:22.999Z</time></trkpt><trkpt lat="42.680495440927494" lon="11.869455278291555"><ele>479.0</ele><time>2026-04-18T07:08:24.999Z</time></trkpt><trkpt lat="42.680523316182246" lon="11.869338551679876"><ele>479.0</ele><time>2026-04-18T07:08:25.999Z</time></trkpt><trkpt lat="42.680537274102015" lon="11.86919791289909"><ele>479.0</ele><time>2026-04-18T07:08:26.999Z</time></trkpt><trkpt lat="42.68055043257288" lon="11.869052316444082"><ele>479.0</ele><time>2026-04-18T07:08:27.999Z</time></trkpt><trkpt lat="42.68053835393332" lon="11.86890317884503"><ele>479.0</ele><time>2026-04-18T07:08:28.999Z</time></trkpt><trkpt lat="42.680563692668606" lon="11.868777784779265"><ele>479.0</ele><time>2026-04-18T07:08:29.999Z</time></trkpt><trkpt lat="42.68058035513715" lon="11.868643335493783"><ele>479.0</ele><time>2026-04-18T07:08:30.999Z</time></trkpt><trkpt lat="42.680604224260776" lon="11.868505691495287"><ele>479.0</ele><time>2026-04-18T07:08:31.999Z</time></trkpt><trkpt lat="42.68069203513306" lon="11.868412272115537"><ele>479.0</ele><time>2026-04-18T07:08:32.999Z</time></trkpt><trkpt lat="42.680782507743274" lon="11.8683043871774"><ele>479.0</ele><time>2026-04-18T07:08:33.999Z</time></trkpt><trkpt lat="42.68088196145204" lon="11.868179727427762"><ele>480.0</ele><time>2026-04-18T07:08:34.999Z</time></trkpt><trkpt lat="42.68100440825247" lon="11.868086142200873"><ele>481.0</ele><time>2026-04-18T07:08:35.999Z</time></trkpt><trkpt lat="42.68112092032609" lon="11.868003844735123"><ele>482.0</ele><time>2026-04-18T07:08:36.999Z</time></trkpt><trkpt lat="42.68122667781779" lon="11.867945128787733"><ele>483.0</ele><time>2026-04-18T07:08:37.999Z</time></trkpt><trkpt lat="42.68133419742916" lon="11.86793765971404"><ele>483.0</ele><time>2026-04-18T07:08:38.999Z</time></trkpt><trkpt lat="42.68144372729631" lon="11.867931458970451"><ele>483.0</ele><time>2026-04-18T07:08:39.999Z</time></trkpt><trkpt lat="42.68157222760514" lon="11.867922256379805"><ele>483.0</ele><time>2026-04-18T07:08:40.999Z</time></trkpt><trkpt lat="42.681721648644064" lon="11.867884129742793"><ele>483.0</ele><time>2026-04-18T07:08:41.999Z</time></trkpt><trkpt lat="42.681881089485195" lon="11.8678601243077"><ele>480.66666666666663</ele><time>2026-04-18T07:08:42.999Z</time></trkpt><trkpt lat="42.68204388799053" lon="11.867833086083776"><ele>478.3333333333333</ele><time>2026-04-18T07:08:43.999Z</time></trkpt><trkpt lat="42.68220069739064" lon="11.867820956278141"><ele>476.0</ele><time>2026-04-18T07:08:44.999Z</time></trkpt><trkpt lat="42.68236943119671" lon="11.867813141314826"><ele>476.0</ele><time>2026-04-18T07:08:45.999Z</time></trkpt><trkpt lat="42.68252863108867" lon="11.867797529148035"><ele>476.0</ele><time>2026-04-18T07:08:46.999Z</time></trkpt><trkpt lat="42.682674888132446" lon="11.867770747728741"><ele>476.0</ele><time>2026-04-18T07:08:47.999Z</time></trkpt><trkpt lat="42.682821974657415" lon="11.86774107273852"><ele>472.66666666666663</ele><time>2026-04-18T07:08:48.999Z</time></trkpt><trkpt lat="42.682975498866384" lon="11.867704711721673"><ele>469.33333333333337</ele><time>2026-04-18T07:08:49.999Z</time></trkpt><trkpt lat="42.683127105898585" lon="11.867675500537738"><ele>466.0</ele><time>2026-04-18T07:08:50.999Z</time></trkpt><trkpt lat="42.683272227270734" lon="11.86766389603198"><ele>466.0</ele><time>2026-04-18T07:08:51.999Z</time></trkpt><trkpt lat="42.683404335144736" lon="11.867667653865174"><ele>466.0</ele><time>2026-04-18T07:08:52.999Z</time></trkpt><trkpt lat="42.68354115554403" lon="11.867673717672847"><ele>466.0</ele><time>2026-04-18T07:08:53.999Z</time></trkpt><trkpt lat="42.683669790690615" lon="11.867651656919023"><ele>466.0</ele><time>2026-04-18T07:08:54.999Z</time></trkpt><trkpt lat="42.68379720607889" lon="11.867588264654469"><ele>463.5</ele><time>2026-04-18T07:08:55.999Z</time></trkpt><trkpt lat="42.683909593122365" lon="11.86750762059192"><ele>461.0</ele><time>2026-04-18T07:08:56.999Z</time></trkpt><trkpt lat="42.68399074628567" lon="11.867402140837761"><ele>458.5</ele><time>2026-04-18T07:08:57.999Z</time></trkpt><trkpt lat="42.68404681181289" lon="11.867248806961882"><ele>456.0</ele><time>2026-04-18T07:08:58.999Z</time></trkpt><trkpt lat="42.684099995778055" lon="11.867031280571988"><ele>456.0</ele><time>2026-04-18T07:08:59.999Z</time></trkpt><trkpt lat="42.68418002296538" lon="11.86684158718568"><ele>456.0</ele><time>2026-04-18T07:09:00.999Z</time></trkpt><trkpt lat="42.684245565706135" lon="11.866686415955972"><ele>456.0</ele><time>2026-04-18T07:09:01.999Z</time></trkpt><trkpt lat="42.68434867839306" lon="11.866560058653198"><ele>456.0</ele><time>2026-04-18T07:09:02.999Z</time></trkpt><trkpt lat="42.68446224510931" lon="11.866420396993647"><ele>457.5</ele><time>2026-04-18T07:09:03.999Z</time></trkpt><trkpt lat="42.68456333658031" lon="11.866273746716658"><ele>459.0</ele><time>2026-04-18T07:09:04.999Z</time></trkpt><trkpt lat="42.68466338583051" lon="11.866155018190874"><ele>460.5</ele><time>2026-04-18T07:09:05.999Z</time></trkpt><trkpt lat="42.684752167886565" lon="11.86604404957481"><ele>462.0</ele><time>2026-04-18T07:09:06.999Z</time></trkpt><trkpt lat="42.68482715763881" lon="11.865925630931473"><ele>463.0</ele><time>2026-04-18T07:09:07.999Z</time></trkpt><trkpt lat="42.68490434705333" lon="11.865795012214157"><ele>464.0</ele><time>2026-04-18T07:09:08.999Z</time></trkpt><trkpt lat="42.68491641562996" lon="11.865610426216657"><ele>465.0</ele><time>2026-04-18T07:09:09.999Z</time></trkpt><trkpt lat="42.684923095763246" lon="11.865438445681322"><ele>466.0</ele><time>2026-04-18T07:09:10.999Z</time></trkpt><trkpt lat="42.684949015830796" lon="11.865296497262547"><ele>466.0</ele><time>2026-04-18T07:09:11.999Z</time></trkpt><trkpt lat="42.68495860943183" lon="11.865167521089719"><ele>466.0</ele><time>2026-04-18T07:09:12.999Z</time></trkpt><trkpt lat="42.68501579082503" lon="11.865047225298941"><ele>466.0</ele><time>2026-04-18T07:09:13.999Z</time></trkpt><trkpt lat="42.68512094181362" lon="11.864960512451475"><ele>466.0</ele><time>2026-04-18T07:09:14.999Z</time></trkpt><trkpt lat="42.685224535300996" lon="11.864869299431628"><ele>466.0</ele><time>2026-04-18T07:09:15.999Z</time></trkpt><trkpt lat="42.68534011795675" lon="11.864778784719345"><ele>469.0</ele><time>2026-04-18T07:09:16.999Z</time></trkpt><trkpt lat="42.68544789119187" lon="11.864694933948934"><ele>472.0</ele><time>2026-04-18T07:09:17.999Z</time></trkpt><trkpt lat="42.68554277647039" lon="11.864621110344697"><ele>475.0</ele><time>2026-04-18T07:09:18.999Z</time></trkpt><trkpt lat="42.68563591551116" lon="11.864539270153386"><ele>478.0</ele><time>2026-04-18T07:09:19.999Z</time></trkpt><trkpt lat="42.68573912380339" lon="11.86448176478865"><ele>478.0</ele><time>2026-04-18T07:09:20.999Z</time></trkpt><trkpt lat="42.685819292281785" lon="11.864390580133314"><ele>477.99999999999994</ele><time>2026-04-18T07:09:21.999Z</time></trkpt><trkpt lat="42.685844475738904" lon="11.864226253155815"><ele>477.99999999999994</ele><time>2026-04-18T07:09:22.999Z</time></trkpt><trkpt lat="42.68586295862655" lon="11.86407127671895"><ele>478.0</ele><time>2026-04-18T07:09:23.999Z</time></trkpt><trkpt lat="42.68588142254417" lon="11.863935974233321"><ele>478.0</ele><time>2026-04-18T07:09:24.999Z</time></trkpt><trkpt lat="42.68589988200027" lon="11.863800820008786"><ele>479.25</ele><time>2026-04-18T07:09:25.999Z</time></trkpt><trkpt lat="42.685918994942504" lon="11.863656723522986"><ele>480.5</ele><time>2026-04-18T07:09:26.998Z</time></trkpt><trkpt lat="42.68593857430471" lon="11.86349391083527"><ele>481.75</ele><time>2026-04-18T07:09:27.998Z</time></trkpt><trkpt lat="42.68594794120205" lon="11.863314646496375"><ele>483.0</ele><time>2026-04-18T07:09:28.998Z</time></trkpt><trkpt lat="42.685991196323144" lon="11.863127167101814"><ele>483.0</ele><time>2026-04-18T07:09:29.998Z</time></trkpt><trkpt lat="42.68604285368657" lon="11.862940570262616"><ele>483.0</ele><time>2026-04-18T07:09:30.998Z</time></trkpt><trkpt lat="42.686122659128856" lon="11.862772381349611"><ele>483.0</ele><time>2026-04-18T07:09:31.998Z</time></trkpt><trkpt lat="42.686209676107495" lon="11.862615879704675"><ele>483.0</ele><time>2026-04-18T07:09:32.998Z</time></trkpt><trkpt lat="42.6863026071321" lon="11.862491136920049"><ele>481.25</ele><time>2026-04-18T07:09:34Z</time></trkpt><trkpt lat="42.68639164889218" lon="11.862376207464667"><ele>479.5</ele><time>2026-04-18T07:09:35Z</time></trkpt><trkpt lat="42.68646657847993" lon="11.862254184274477"><ele>477.75</ele><time>2026-04-18T07:09:36Z</time></trkpt><trkpt lat="42.686550762917456" lon="11.862150644948526"><ele>476.0</ele><time>2026-04-18T07:09:37Z</time></trkpt><trkpt lat="42.686630409973944" lon="11.862032421520112"><ele>476.0</ele><time>2026-04-18T07:09:38Z</time></trkpt><trkpt lat="42.686711057702645" lon="11.861914843919518"><ele>476.0</ele><time>2026-04-18T07:09:39Z</time></trkpt><trkpt lat="42.68679234957051" lon="11.861809144063793"><ele>476.0</ele><time>2026-04-18T07:09:40Z</time></trkpt><trkpt lat="42.686868955783254" lon="11.861729611851773"><ele>476.0</ele><time>2026-04-18T07:09:41Z</time></trkpt><trkpt lat="42.686919070777996" lon="11.861634851108892"><ele>476.0</ele><time>2026-04-18T07:09:42Z</time></trkpt><trkpt lat="42.686960241233024" lon="11.861533313916265"><ele>477.5</ele><time>2026-04-18T07:09:43Z</time></trkpt><trkpt lat="42.687003450379315" lon="11.861408214092489"><ele>479.0</ele><time>2026-04-18T07:09:44Z</time></trkpt><trkpt lat="42.687026323843895" lon="11.861235632800183"><ele>480.5</ele><time>2026-04-18T07:09:45Z</time></trkpt><trkpt lat="42.687033798217705" lon="11.861076725303542"><ele>482.0</ele><time>2026-04-18T07:09:46Z</time></trkpt><trkpt lat="42.68704773088028" lon="11.86093498451419"><ele>482.0</ele><time>2026-04-18T07:09:47Z</time></trkpt><trkpt lat="42.68707601900524" lon="11.860785218572037"><ele>482.0</ele><time>2026-04-18T07:09:48Z</time></trkpt><trkpt lat="42.6871111409682" lon="11.860637602565301"><ele>482.0</ele><time>2026-04-18T07:09:49Z</time></trkpt><trkpt lat="42.68715299947013" lon="11.860494849223567"><ele>482.0</ele><time>2026-04-18T07:09:50Z</time></trkpt><trkpt lat="42.68720879706171" lon="11.860362351255429"><ele>482.0</ele><time>2026-04-18T07:09:51Z</time></trkpt><trkpt lat="42.687278161527715" lon="11.860223006260824"><ele>482.0</ele><time>2026-04-18T07:09:52Z</time></trkpt><trkpt lat="42.68735506936904" lon="11.860074726471685"><ele>482.0</ele><time>2026-04-18T07:09:53Z</time></trkpt><trkpt lat="42.687437806321924" lon="11.859922169760472"><ele>482.0</ele><time>2026-04-18T07:09:54Z</time></trkpt><trkpt lat="42.68751760442044" lon="11.859778362239407"><ele>479.6</ele><time>2026-04-18T07:09:55Z</time></trkpt><trkpt lat="42.68759356688408" lon="11.859635423762038"><ele>477.20000000000005</ele><time>2026-04-18T07:09:56Z</time></trkpt><trkpt lat="42.68765215994482" lon="11.859504772302612"><ele>474.8</ele><time>2026-04-18T07:09:57Z</time></trkpt><trkpt lat="42.68768454269699" lon="11.859370345524841"><ele>472.4</ele><time>2026-04-18T07:09:58Z</time></trkpt><trkpt lat="42.687724463194066" lon="11.859254003291682"><ele>470.0</ele><time>2026-04-18T07:09:59Z</time></trkpt><trkpt lat="42.687721192751695" lon="11.859137127833609"><ele>469.8</ele><time>2026-04-18T07:10:00Z</time></trkpt><trkpt lat="42.687683044469054" lon="11.859025957080608"><ele>469.6</ele><time>2026-04-18T07:10:01Z</time></trkpt><trkpt lat="42.68761936961304" lon="11.858949193341115"><ele>469.4</ele><time>2026-04-18T07:10:02Z</time></trkpt><trkpt lat="42.68753239669342" lon="11.85890205917396"><ele>469.2</ele><time>2026-04-18T07:10:03Z</time></trkpt><trkpt lat="42.687423803718644" lon="11.858918504995641"><ele>469.0</ele><time>2026-04-18T07:10:04Z</time></trkpt><trkpt lat="42.687297027124984" lon="11.858924697653329"><ele>469.0</ele><time>2026-04-18T07:10:05Z</time></trkpt><trkpt lat="42.68715199932188" lon="11.85892941027713"><ele>469.0</ele><time>2026-04-18T07:10:06Z</time></trkpt><trkpt lat="42.687029634683086" lon="11.858928847066444"><ele>469.0</ele><time>2026-04-18T07:10:07Z</time></trkpt><trkpt lat="42.686905374852614" lon="11.858921359680616"><ele>469.0</ele><time>2026-04-18T07:10:08Z</time></trkpt><trkpt lat="42.68678127602687" lon="11.8589105406947"><ele>468.5</ele><time>2026-04-18T07:10:09Z</time></trkpt><trkpt lat="42.68664790022086" lon="11.858888326148168"><ele>468.0</ele><time>2026-04-18T07:10:10Z</time></trkpt><trkpt lat="42.686524615231875" lon="11.858843757533734"><ele>467.5</ele><time>2026-04-18T07:10:11Z</time></trkpt><trkpt lat="42.686421984089755" lon="11.858789685694987"><ele>467.0</ele><time>2026-04-18T07:10:12Z</time></trkpt><trkpt lat="42.686328041258705" lon="11.858720393066621"><ele>467.0</ele><time>2026-04-18T07:10:13Z</time></trkpt><trkpt lat="42.68622935500317" lon="11.858627426307"><ele>467.0</ele><time>2026-04-18T07:10:14Z</time></trkpt><trkpt lat="42.686112589038615" lon="11.858487238897778"><ele>467.0</ele><time>2026-04-18T07:10:15Z</time></trkpt><trkpt lat="42.68599410919423" lon="11.85833051149973"><ele>467.0</ele><time>2026-04-18T07:10:16Z</time></trkpt><trkpt lat="42.685878193016" lon="11.858184569884742"><ele>468.0</ele><time>2026-04-18T07:10:17Z</time></trkpt><trkpt lat="42.68576249757859" lon="11.858058775144773"><ele>469.0</ele><time>2026-04-18T07:10:18Z</time></trkpt><trkpt lat="42.68565062214736" lon="11.857942341255171"><ele>470.0</ele><time>2026-04-18T07:10:19Z</time></trkpt><trkpt lat="42.68554910329883" lon="11.857836050409185"><ele>471.0</ele><time>2026-04-18T07:10:19.999Z</time></trkpt><trkpt lat="42.685451336592216" lon="11.85772683616294"><ele>471.25</ele><time>2026-04-18T07:10:20.999Z</time></trkpt><trkpt lat="42.68534813819268" lon="11.857601198404655"><ele>471.5</ele><time>2026-04-18T07:10:21.999Z</time></trkpt><trkpt lat="42.68526625407559" lon="11.857480475413071"><ele>471.75</ele><time>2026-04-18T07:10:22.999Z</time></trkpt><trkpt lat="42.685201714068185" lon="11.857355750551642"><ele>472.0</ele><time>2026-04-18T07:10:23.999Z</time></trkpt><trkpt lat="42.685152108197414" lon="11.857209794353697"><ele>472.0</ele><time>2026-04-18T07:10:24.999Z</time></trkpt><trkpt lat="42.68512520868655" lon="11.857050081885522"><ele>472.0</ele><time>2026-04-18T07:10:25.999Z</time></trkpt><trkpt lat="42.68509715276511" lon="11.85686123985648"><ele>472.0</ele><time>2026-04-18T07:10:26.999Z</time></trkpt><trkpt lat="42.685062848094574" lon="11.856670284804752"><ele>472.0</ele><time>2026-04-18T07:10:27.999Z</time></trkpt><trkpt lat="42.685025207658015" lon="11.856471760607612"><ele>474.33333333333337</ele><time>2026-04-18T07:10:28.999Z</time></trkpt><trkpt lat="42.684979887892" lon="11.856272514032351"><ele>476.66666666666663</ele><time>2026-04-18T07:10:29.999Z</time></trkpt><trkpt lat="42.68492232478318" lon="11.85608800634796"><ele>479.0</ele><time>2026-04-18T07:10:30.999Z</time></trkpt><trkpt lat="42.68485100374609" lon="11.855908526327672"><ele>480.75</ele><time>2026-04-18T07:10:31.999Z</time></trkpt><trkpt lat="42.684767751792414" lon="11.855733897303331"><ele>482.5</ele><time>2026-04-18T07:10:32.999Z</time></trkpt><trkpt lat="42.684680987451884" lon="11.855562938121551"><ele>484.25</ele><time>2026-04-18T07:10:33.999Z</time></trkpt><trkpt lat="42.68460772634276" lon="11.855402977466122"><ele>486.0</ele><time>2026-04-18T07:10:34.999Z</time></trkpt><trkpt lat="42.684543916208526" lon="11.855253317764351"><ele>488.25</ele><time>2026-04-18T07:10:35.999Z</time></trkpt><trkpt lat="42.68448829800555" lon="11.855107768676062"><ele>490.5</ele><time>2026-04-18T07:10:36.999Z</time></trkpt><trkpt lat="42.68445889509703" lon="11.854951445322786"><ele>492.75</ele><time>2026-04-18T07:10:37.999Z</time></trkpt><trkpt lat="42.68440647773414" lon="11.85477702976484"><ele>495.0</ele><time>2026-04-18T07:10:38.999Z</time></trkpt><trkpt lat="42.68431909363359" lon="11.85462974935187"><ele>491.33333333333337</ele><time>2026-04-18T07:10:39.999Z</time></trkpt><trkpt lat="42.68422895710476" lon="11.854457620344613"><ele>487.6666666666667</ele><time>2026-04-18T07:10:40.999Z</time></trkpt><trkpt lat="42.68409292131029" lon="11.854303792099438"><ele>484.0</ele><time>2026-04-18T07:10:41.999Z</time></trkpt><trkpt lat="42.683972880982076" lon="11.854160522112341"><ele>484.0</ele><time>2026-04-18T07:10:42.999Z</time></trkpt><trkpt lat="42.68387578374429" lon="11.85403077362989"><ele>484.0</ele><time>2026-04-18T07:10:43.999Z</time></trkpt><trkpt lat="42.68379001157512" lon="11.853904427901501"><ele>484.0</ele><time>2026-04-18T07:10:44.999Z</time></trkpt><trkpt lat="42.683707962494" lon="11.853766631480593"><ele>484.0</ele><time>2026-04-18T07:10:45.999Z</time></trkpt><trkpt lat="42.683623270842595" lon="11.853619126833037"><ele>483.75</ele><time>2026-04-18T07:10:46.999Z</time></trkpt><trkpt lat="42.683527602151706" lon="11.853473907483822"><ele>483.5</ele><time>2026-04-18T07:10:47.999Z</time></trkpt><trkpt lat="42.6834230825252" lon="11.853345211556132"><ele>483.25</ele><time>2026-04-18T07:10:48.999Z</time></trkpt><trkpt lat="42.68330605340469" lon="11.853227240972286"><ele>483.0</ele><time>2026-04-18T07:10:49.999Z</time></trkpt><trkpt lat="42.68318829087469" lon="11.853114884744505"><ele>483.0</ele><time>2026-04-18T07:10:50.999Z</time></trkpt><trkpt lat="42.68306447329127" lon="11.853001270625398"><ele>483.0</ele><time>2026-04-18T07:10:51.999Z</time></trkpt><trkpt lat="42.68293850922772" lon="11.852887757448537"><ele>483.0</ele><time>2026-04-18T07:10:52.999Z</time></trkpt><trkpt lat="42.68281942300833" lon="11.852782789313965"><ele>483.0</ele><time>2026-04-18T07:10:53.999Z</time></trkpt><trkpt lat="42.682690789676165" lon="11.852669936100174"><ele>484.0</ele><time>2026-04-18T07:10:54.999Z</time></trkpt><trkpt lat="42.68256322979352" lon="11.852561943972855"><ele>485.0</ele><time>2026-04-18T07:10:55.999Z</time></trkpt><trkpt lat="42.68242559422892" lon="11.852452736796657"><ele>486.0</ele><time>2026-04-18T07:10:56.999Z</time></trkpt><trkpt lat="42.68229347521525" lon="11.852355773996349"><ele>486.0</ele><time>2026-04-18T07:10:57.999Z</time></trkpt><trkpt lat="42.682154917988505" lon="11.852261382314678"><ele>486.0</ele><time>2026-04-18T07:10:58.999Z</time></trkpt><trkpt lat="42.682025469530565" lon="11.852188370414597"><ele>486.0</ele><time>2026-04-18T07:10:59.999Z</time></trkpt><trkpt lat="42.68189410623071" lon="11.852126767761675"><ele>486.0</ele><time>2026-04-18T07:11:00.999Z</time></trkpt><trkpt lat="42.68175997825081" lon="11.85206210189631"><ele>484.8</ele><time>2026-04-18T07:11:01.999Z</time></trkpt><trkpt lat="42.68163837224318" lon="11.852002963751707"><ele>483.6</ele><time>2026-04-18T07:11:02.999Z</time></trkpt><trkpt lat="42.68152986728055" lon="11.851949102437272"><ele>482.4</ele><time>2026-04-18T07:11:03.999Z</time></trkpt><trkpt lat="42.681432911375694" lon="11.851900373905456"><ele>481.2</ele><time>2026-04-18T07:11:04.999Z</time></trkpt><trkpt lat="42.68135165805418" lon="11.851851866006756"><ele>480.0</ele><time>2026-04-18T07:11:05.999Z</time></trkpt><trkpt lat="42.68126927249195" lon="11.851793496559619"><ele>480.6</ele><time>2026-04-18T07:11:06.999Z</time></trkpt><trkpt lat="42.68119494359399" lon="11.851712098331875"><ele>481.2</ele><time>2026-04-18T07:11:07.999Z</time></trkpt><trkpt lat="42.681143561609375" lon="11.851600044274008"><ele>481.79999999999995</ele><time>2026-04-18T07:11:08.999Z</time></trkpt><trkpt lat="42.68108203153183" lon="11.851451485274199"><ele>482.4</ele><time>2026-04-18T07:11:09.999Z</time></trkpt><trkpt lat="42.68100869613162" lon="11.851306518110201"><ele>483.0</ele><time>2026-04-18T07:11:10.999Z</time></trkpt><trkpt lat="42.680942405783675" lon="11.851181325919931"><ele>483.0</ele><time>2026-04-18T07:11:11.999Z</time></trkpt><trkpt lat="42.68088530134207" lon="11.851071817960339"><ele>482.99999999999994</ele><time>2026-04-18T07:11:12.999Z</time></trkpt><trkpt lat="42.68084058075358" lon="11.8509849797304"><ele>482.99999999999994</ele><time>2026-04-18T07:11:13.999Z</time></trkpt><trkpt lat="42.68077690130204" lon="11.850862912418581"><ele>483.0</ele><time>2026-04-18T07:11:15.999Z</time></trkpt><trkpt lat="42.680770264553104" lon="11.8507660845648"><ele>483.0</ele><time>2026-04-18T07:11:17.999Z</time></trkpt><trkpt lat="42.680890272019234" lon="11.850665346003089"><ele>484.75</ele><time>2026-04-18T07:11:18.999Z</time></trkpt><trkpt lat="42.680969778688" lon="11.850559435335006"><ele>486.5</ele><time>2026-04-18T07:11:19.999Z</time></trkpt><trkpt lat="42.681078552685314" lon="11.850486392930003"><ele>488.25</ele><time>2026-04-18T07:11:20.999Z</time></trkpt><trkpt lat="42.681197341571824" lon="11.850410830841385"><ele>490.0</ele><time>2026-04-18T07:11:21.999Z</time></trkpt><trkpt lat="42.68132350177283" lon="11.850334445372418"><ele>494.0</ele><time>2026-04-18T07:11:22.999Z</time></trkpt><trkpt lat="42.68144544403434" lon="11.850266274181491"><ele>498.0</ele><time>2026-04-18T07:11:23.999Z</time></trkpt><trkpt lat="42.68156717853967" lon="11.850203591044062"><ele>502.0</ele><time>2026-04-18T07:11:24.999Z</time></trkpt><trkpt lat="42.681701473871165" lon="11.850136531881168"><ele>506.0</ele><time>2026-04-18T07:11:25.999Z</time></trkpt><trkpt lat="42.68182867577739" lon="11.850070536788417"><ele>507.25</ele><time>2026-04-18T07:11:26.999Z</time></trkpt><trkpt lat="42.68195681007142" lon="11.850006752642127"><ele>508.5</ele><time>2026-04-18T07:11:27.999Z</time></trkpt><trkpt lat="42.682092654638645" lon="11.849964544622367"><ele>509.75</ele><time>2026-04-18T07:11:28.998Z</time></trkpt><trkpt lat="42.682227884391516" lon="11.849925280254174"><ele>511.0</ele><time>2026-04-18T07:11:29.998Z</time></trkpt><trkpt lat="42.682364554678195" lon="11.849889903502993"><ele>511.0</ele><time>2026-04-18T07:11:30.998Z</time></trkpt><trkpt lat="42.682480348094884" lon="11.849837949822406"><ele>511.0</ele><time>2026-04-18T07:11:31.998Z</time></trkpt><trkpt lat="42.682579576826235" lon="11.849767741395887"><ele>511.0</ele><time>2026-04-18T07:11:32.998Z</time></trkpt><trkpt lat="42.6826702348772" lon="11.849657176920845"><ele>511.0</ele><time>2026-04-18T07:11:33.998Z</time></trkpt><trkpt lat="42.682762903064" lon="11.849523585512193"><ele>509.75</ele><time>2026-04-18T07:11:34.998Z</time></trkpt><trkpt lat="42.6828486057379" lon="11.849381201357115"><ele>508.5</ele><time>2026-04-18T07:11:35.998Z</time></trkpt><trkpt lat="42.682928358814344" lon="11.849228447262295"><ele>507.25</ele><time>2026-04-18T07:11:36.998Z</time></trkpt><trkpt lat="42.68301926735109" lon="11.849096850790941"><ele>506.0</ele><time>2026-04-18T07:11:37.998Z</time></trkpt><trkpt lat="42.683110945608526" lon="11.848965732168317"><ele>506.0</ele><time>2026-04-18T07:11:39Z</time></trkpt><trkpt lat="42.68321113654801" lon="11.848851219180034"><ele>506.0</ele><time>2026-04-18T07:11:40Z</time></trkpt><trkpt lat="42.68332370709144" lon="11.848746513925013"><ele>506.0</ele><time>2026-04-18T07:11:41Z</time></trkpt><trkpt lat="42.68344300157813" lon="11.848638046117244"><ele>506.0</ele><time>2026-04-18T07:11:42Z</time></trkpt><trkpt lat="42.68355915850007" lon="11.848509788161174"><ele>506.3333333333333</ele><time>2026-04-18T07:11:43Z</time></trkpt><trkpt lat="42.68368788822178" lon="11.848418146718279"><ele>506.66666666666663</ele><time>2026-04-18T07:11:44Z</time></trkpt><trkpt lat="42.683805550577276" lon="11.848286822593467"><ele>507.0</ele><time>2026-04-18T07:11:45Z</time></trkpt><trkpt lat="42.68393948610856" lon="11.848172683654536"><ele>507.0</ele><time>2026-04-18T07:11:46Z</time></trkpt><trkpt lat="42.684069369351654" lon="11.84805545243414"><ele>507.0</ele><time>2026-04-18T07:11:47Z</time></trkpt><trkpt lat="42.68420629966616" lon="11.847931562673217"><ele>507.0</ele><time>2026-04-18T07:11:48Z</time></trkpt><trkpt lat="42.684343967349804" lon="11.84781154634877"><ele>507.0</ele><time>2026-04-18T07:11:49Z</time></trkpt><trkpt lat="42.6844767902806" lon="11.84770010439763"><ele>507.0</ele><time>2026-04-18T07:11:50Z</time></trkpt><trkpt lat="42.6846136358391" lon="11.847568428710995"><ele>507.0</ele><time>2026-04-18T07:11:51Z</time></trkpt><trkpt lat="42.684744697838575" lon="11.847446771914289"><ele>508.75</ele><time>2026-04-18T07:11:52Z</time></trkpt><trkpt lat="42.68488353452487" lon="11.847328568541638"><ele>510.5</ele><time>2026-04-18T07:11:53Z</time></trkpt><trkpt lat="42.685011421496185" lon="11.847224082776352"><ele>512.25</ele><time>2026-04-18T07:11:54Z</time></trkpt><trkpt lat="42.68512966923594" lon="11.847133021090654"><ele>514.0</ele><time>2026-04-18T07:11:55Z</time></trkpt><trkpt lat="42.6852415777733" lon="11.847052880169333"><ele>513.5</ele><time>2026-04-18T07:11:56Z</time></trkpt><trkpt lat="42.68535644676468" lon="11.846980477145328"><ele>513.0</ele><time>2026-04-18T07:11:57Z</time></trkpt><trkpt lat="42.6854708822686" lon="11.846902167132196"><ele>512.5</ele><time>2026-04-18T07:11:58Z</time></trkpt><trkpt lat="42.68558914276915" lon="11.846829511904364"><ele>512.0</ele><time>2026-04-18T07:11:59Z</time></trkpt><trkpt lat="42.68570969289376" lon="11.846755433155359"><ele>512.75</ele><time>2026-04-18T07:12:00Z</time></trkpt><trkpt lat="42.68583641272827" lon="11.846678664408675"><ele>513.5</ele><time>2026-04-18T07:12:01Z</time></trkpt><trkpt lat="42.685969461120955" lon="11.846606783826015"><ele>514.25</ele><time>2026-04-18T07:12:02Z</time></trkpt><trkpt lat="42.686105700110595" lon="11.84652707100892"><ele>515.0</ele><time>2026-04-18T07:12:03Z</time></trkpt><trkpt lat="42.686229444165356" lon="11.846439868802289"><ele>515.0</ele><time>2026-04-18T07:12:04Z</time></trkpt><trkpt lat="42.68635564113962" lon="11.846362514461214"><ele>515.0</ele><time>2026-04-18T07:12:05Z</time></trkpt><trkpt lat="42.686470810651734" lon="11.846276965446727"><ele>515.0</ele><time>2026-04-18T07:12:06Z</time></trkpt><trkpt lat="42.68659150425588" lon="11.846206525387059"><ele>515.0</ele><time>2026-04-18T07:12:07Z</time></trkpt><trkpt lat="42.686712386237645" lon="11.84613677154538"><ele>515.0</ele><time>2026-04-18T07:12:08Z</time></trkpt><trkpt lat="42.68682173246419" lon="11.846057192150766"><ele>515.0</ele><time>2026-04-18T07:12:09Z</time></trkpt><trkpt lat="42.686939986663404" lon="11.845982806407845"><ele>515.0</ele><time>2026-04-18T07:12:10Z</time></trkpt><trkpt lat="42.68707616988261" lon="11.845939768807174"><ele>515.0</ele><time>2026-04-18T07:12:11Z</time></trkpt><trkpt lat="42.68721317946392" lon="11.845975460123535"><ele>515.0</ele><time>2026-04-18T07:12:12Z</time></trkpt><trkpt lat="42.68734193424105" lon="11.846007533422002"><ele>515.0</ele><time>2026-04-18T07:12:13Z</time></trkpt><trkpt lat="42.68747877316963" lon="11.846040199571519"><ele>515.0</ele><time>2026-04-18T07:12:14Z</time></trkpt><trkpt lat="42.687605357273334" lon="11.846085354087258"><ele>515.0</ele><time>2026-04-18T07:12:15Z</time></trkpt><trkpt lat="42.68772193809715" lon="11.84611762133969"><ele>514.5</ele><time>2026-04-18T07:12:16Z</time></trkpt><trkpt lat="42.68783517892568" lon="11.846142503341829"><ele>514.0</ele><time>2026-04-18T07:12:17Z</time></trkpt><trkpt lat="42.68793176500543" lon="11.846099590276003"><ele>513.5</ele><time>2026-04-18T07:12:18Z</time></trkpt><trkpt lat="42.688031108767014" lon="11.84597153254531"><ele>513.0</ele><time>2026-04-18T07:12:19Z</time></trkpt><trkpt lat="42.68810987758867" lon="11.84581337455247"><ele>509.5</ele><time>2026-04-18T07:12:20Z</time></trkpt><trkpt lat="42.6881718398011" lon="11.84565023509678"><ele>506.0</ele><time>2026-04-18T07:12:21Z</time></trkpt><trkpt lat="42.68824713904945" lon="11.845518481931915"><ele>502.5</ele><time>2026-04-18T07:12:22Z</time></trkpt><trkpt lat="42.688358471398494" lon="11.84545975111248"><ele>499.0</ele><time>2026-04-18T07:12:23Z</time></trkpt><trkpt lat="42.68852148715555" lon="11.84536182562709"><ele>501.0</ele><time>2026-04-18T07:12:24Z</time></trkpt><trkpt lat="42.688713233367245" lon="11.845240987122338"><ele>503.0</ele><time>2026-04-18T07:12:25Z</time></trkpt><trkpt lat="42.68890169084575" lon="11.845118747194533"><ele>505.0</ele><time>2026-04-18T07:12:26Z</time></trkpt><trkpt lat="42.68907148332863" lon="11.84501642785554"><ele>500.33333333333337</ele><time>2026-04-18T07:12:27Z</time></trkpt><trkpt lat="42.6892321801456" lon="11.844919143850083"><ele>495.66666666666663</ele><time>2026-04-18T07:12:28Z</time></trkpt><trkpt lat="42.68938729536173" lon="11.84482022678187"><ele>491.0</ele><time>2026-04-18T07:12:29Z</time></trkpt><trkpt lat="42.68951740498448" lon="11.844734539703666"><ele>490.75</ele><time>2026-04-18T07:12:30Z</time></trkpt><trkpt lat="42.68963940558894" lon="11.844660025754006"><ele>490.5</ele><time>2026-04-18T07:12:31Z</time></trkpt><trkpt lat="42.68974576940411" lon="11.844594236102349"><ele>490.25</ele><time>2026-04-18T07:12:32Z</time></trkpt><trkpt lat="42.689849826785554" lon="11.844557362807949"><ele>490.0</ele><time>2026-04-18T07:12:33Z</time></trkpt><trkpt lat="42.689942821399704" lon="11.844521921889136"><ele>490.00000000000006</ele><time>2026-04-18T07:12:33.999Z</time></trkpt><trkpt lat="42.690038512391546" lon="11.844500123953969"><ele>490.0</ele><time>2026-04-18T07:12:34.999Z</time></trkpt><trkpt lat="42.690134002635624" lon="11.84447657825005"><ele>490.0</ele><time>2026-04-18T07:12:35.999Z</time></trkpt><trkpt lat="42.69022075247613" lon="11.844475863763948"><ele>490.0</ele><time>2026-04-18T07:12:36.999Z</time></trkpt><trkpt lat="42.69028644837929" lon="11.844469508514528"><ele>490.00000000000006</ele><time>2026-04-18T07:12:37.999Z</time></trkpt><trkpt lat="42.69036036535644" lon="11.844446889354618"><ele>490.0</ele><time>2026-04-18T07:12:39.999Z</time></trkpt><trkpt lat="42.69027197059837" lon="11.844328578518718"><ele>490.0</ele><time>2026-04-18T07:12:43.999Z</time></trkpt><trkpt lat="42.69016439477624" lon="11.844319298233968"><ele>490.0</ele><time>2026-04-18T07:12:44.999Z</time></trkpt><trkpt lat="42.69003481588754" lon="11.84431546167969"><ele>490.0</ele><time>2026-04-18T07:12:45.999Z</time></trkpt><trkpt lat="42.689927499020556" lon="11.844297964964026"><ele>490.0</ele><time>2026-04-18T07:12:46.999Z</time></trkpt><trkpt lat="42.68983517030164" lon="11.844258821172405"><ele>490.0</ele><time>2026-04-18T07:12:47.999Z</time></trkpt><trkpt lat="42.689735703148195" lon="11.844217075555624"><ele>490.2</ele><time>2026-04-18T07:12:48.999Z</time></trkpt><trkpt lat="42.68962790399279" lon="11.8442033455656"><ele>490.4</ele><time>2026-04-18T07:12:49.999Z</time></trkpt><trkpt lat="42.68951503467001" lon="11.844209330137454"><ele>490.6</ele><time>2026-04-18T07:12:50.999Z</time></trkpt><trkpt lat="42.68939603564847" lon="11.844231943571586"><ele>490.8</ele><time>2026-04-18T07:12:51.999Z</time></trkpt><trkpt lat="42.68929863241412" lon="11.844282341053688"><ele>491.0</ele><time>2026-04-18T07:12:52.999Z</time></trkpt><trkpt lat="42.689190639957204" lon="11.844349889799647"><ele>491.0</ele><time>2026-04-18T07:12:53.999Z</time></trkpt><trkpt lat="42.68908147225044" lon="11.8444244808384"><ele>491.0</ele><time>2026-04-18T07:12:54.999Z</time></trkpt><trkpt lat="42.68898439433068" lon="11.844490351357313"><ele>491.0</ele><time>2026-04-18T07:12:55.999Z</time></trkpt><trkpt lat="42.6889030821614" lon="11.844545056466142"><ele>491.0</ele><time>2026-04-18T07:12:56.999Z</time></trkpt><trkpt lat="42.68882725513935" lon="11.84458658044001"><ele>491.0</ele><time>2026-04-18T07:12:57.999Z</time></trkpt><trkpt lat="42.688768864217266" lon="11.844622746206314"><ele>491.0</ele><time>2026-04-18T07:12:58.999Z</time></trkpt><trkpt lat="42.68867749492503" lon="11.844690489829764"><ele>491.0</ele><time>2026-04-18T07:13:00.999Z</time></trkpt><trkpt lat="42.6885663621965" lon="11.84474563477688"><ele>491.0</ele><time>2026-04-18T07:13:02.999Z</time></trkpt><trkpt lat="42.688461740738575" lon="11.844763536216789"><ele>491.0</ele><time>2026-04-18T07:13:04.999Z</time></trkpt><trkpt lat="42.68834743873435" lon="11.844781395290749"><ele>491.0</ele><time>2026-04-18T07:13:06.999Z</time></trkpt><trkpt lat="42.688233938103295" lon="11.844785023995673"><ele>489.0</ele><time>2026-04-18T07:13:08.999Z</time></trkpt><trkpt lat="42.68812312178076" lon="11.844797138064445"><ele>487.0</ele><time>2026-04-18T07:13:10.999Z</time></trkpt><trkpt lat="42.68801659414573" lon="11.844691063648085"><ele>485.0</ele><time>2026-04-18T07:13:12.999Z</time></trkpt><trkpt lat="42.68796778434456" lon="11.84456447946057"><ele>483.0</ele><time>2026-04-18T07:13:13.999Z</time></trkpt><trkpt lat="42.687927690444106" lon="11.844426542844658"><ele>483.0</ele><time>2026-04-18T07:13:14.999Z</time></trkpt><trkpt lat="42.68789753567916" lon="11.844310951506987"><ele>483.0</ele><time>2026-04-18T07:13:15.999Z</time></trkpt><trkpt lat="42.687870190971424" lon="11.844209267453339"><ele>483.0</ele><time>2026-04-18T07:13:16.999Z</time></trkpt><trkpt lat="42.68784664897307" lon="11.84410551686612"><ele>483.0</ele><time>2026-04-18T07:13:17.999Z</time></trkpt><trkpt lat="42.687829800539134" lon="11.84401567945223"><ele>483.0</ele><time>2026-04-18T07:13:18.999Z</time></trkpt><trkpt lat="42.68783434692792" lon="11.843853344738232"><ele>483.0</ele><time>2026-04-18T07:13:20.999Z</time></trkpt><trkpt lat="42.687929090498514" lon="11.843724496541542"><ele>481.75</ele><time>2026-04-18T07:13:22.999Z</time></trkpt><trkpt lat="42.688017715853086" lon="11.84365024296312"><ele>480.5</ele><time>2026-04-18T07:13:23.999Z</time></trkpt><trkpt lat="42.68812592519743" lon="11.84354930788395"><ele>479.25</ele><time>2026-04-18T07:13:24.999Z</time></trkpt><trkpt lat="42.68822867177533" lon="11.843453484185154"><ele>478.0</ele><time>2026-04-18T07:13:25.999Z</time></trkpt><trkpt lat="42.688306155483396" lon="11.843384328599518"><ele>478.0</ele><time>2026-04-18T07:13:26.999Z</time></trkpt><trkpt lat="42.68840332251388" lon="11.843348055656431"><ele>478.0</ele><time>2026-04-18T07:13:27.999Z</time></trkpt><trkpt lat="42.68851766196564" lon="11.843306146249171"><ele>478.0</ele><time>2026-04-18T07:13:28.999Z</time></trkpt><trkpt lat="42.6886424619364" lon="11.843262142104336"><ele>478.0</ele><time>2026-04-18T07:13:29.999Z</time></trkpt><trkpt lat="42.688776821828554" lon="11.843194575681443"><ele>476.0</ele><time>2026-04-18T07:13:30.999Z</time></trkpt><trkpt lat="42.68889911619543" lon="11.843129986298266"><ele>474.0</ele><time>2026-04-18T07:13:31.999Z</time></trkpt><trkpt lat="42.689017290238006" lon="11.843066504153706"><ele>472.0</ele><time>2026-04-18T07:13:32.999Z</time></trkpt><trkpt lat="42.6891183043724" lon="11.84300760068587"><ele>470.0</ele><time>2026-04-18T07:13:33.999Z</time></trkpt><trkpt lat="42.68920999077041" lon="11.842954311705215"><ele>470.0</ele><time>2026-04-18T07:13:34.999Z</time></trkpt><trkpt lat="42.6892846037291" lon="11.842915795435516"><ele>470.0</ele><time>2026-04-18T07:13:35.999Z</time></trkpt><trkpt lat="42.68936139572794" lon="11.842845145827976"><ele>470.0</ele><time>2026-04-18T07:13:36.999Z</time></trkpt><trkpt lat="42.68940492855124" lon="11.84277679618972"><ele>470.0</ele><time>2026-04-18T07:13:37.999Z</time></trkpt><trkpt lat="42.68946282540025" lon="11.842637767028867"><ele>470.0</ele><time>2026-04-18T07:13:39.999Z</time></trkpt><trkpt lat="42.68944806627033" lon="11.84249300138057"><ele>471.16666666666663</ele><time>2026-04-18T07:13:41.999Z</time></trkpt><trkpt lat="42.68939745424771" lon="11.842434690143413"><ele>472.3333333333333</ele><time>2026-04-18T07:13:42.999Z</time></trkpt><trkpt lat="42.68933250957261" lon="11.842393970463124"><ele>473.5</ele><time>2026-04-18T07:13:43.998Z</time></trkpt><trkpt lat="42.68923363722708" lon="11.842363162720643"><ele>474.66666666666663</ele><time>2026-04-18T07:13:45Z</time></trkpt><trkpt lat="42.68916587602601" lon="11.842359651253707"><ele>475.8333333333333</ele><time>2026-04-18T07:13:46Z</time></trkpt><trkpt lat="42.689062985220545" lon="11.842337722242194"><ele>477.0</ele><time>2026-04-18T07:13:48Z</time></trkpt><trkpt lat="42.6889656119167" lon="11.84227408500219"><ele>477.0</ele><time>2026-04-18T07:13:50Z</time></trkpt><trkpt lat="42.688857038606876" lon="11.842213169847717"><ele>477.00000000000006</ele><time>2026-04-18T07:13:52Z</time></trkpt><trkpt lat="42.6887829070332" lon="11.84216593042646"><ele>477.00000000000006</ele><time>2026-04-18T07:13:53Z</time></trkpt><trkpt lat="42.68869511476215" lon="11.842120255999319"><ele>477.0</ele><time>2026-04-18T07:13:54Z</time></trkpt><trkpt lat="42.68862451718135" lon="11.841989126714788"><ele>477.0</ele><time>2026-04-18T07:13:55Z</time></trkpt><trkpt lat="42.68854216474922" lon="11.841955389874967"><ele>479.0</ele><time>2026-04-18T07:13:56Z</time></trkpt><trkpt lat="42.68844261023219" lon="11.841927693626833"><ele>481.0</ele><time>2026-04-18T07:13:57Z</time></trkpt><trkpt lat="42.688329806957825" lon="11.841892084768842"><ele>483.0</ele><time>2026-04-18T07:13:58Z</time></trkpt><trkpt lat="42.6882081489712" lon="11.841848360537352"><ele>485.0</ele><time>2026-04-18T07:13:59Z</time></trkpt><trkpt lat="42.688098914849384" lon="11.841803170278869"><ele>483.25</ele><time>2026-04-18T07:14:00Z</time></trkpt><trkpt lat="42.68798277056017" lon="11.841752041356004"><ele>481.5</ele><time>2026-04-18T07:14:01Z</time></trkpt><trkpt lat="42.68785901686965" lon="11.84169608349076"><ele>479.75</ele><time>2026-04-18T07:14:02Z</time></trkpt><trkpt lat="42.687753892632934" lon="11.841648549308166"><ele>478.0</ele><time>2026-04-18T07:14:03Z</time></trkpt><trkpt lat="42.68764455904928" lon="11.84160355117137"><ele>478.00000000000006</ele><time>2026-04-18T07:14:04Z</time></trkpt><trkpt lat="42.687554710830796" lon="11.841569837113344"><ele>478.0</ele><time>2026-04-18T07:14:05Z</time></trkpt><trkpt lat="42.68747224073234" lon="11.84154340508907"><ele>478.0</ele><time>2026-04-18T07:14:06Z</time></trkpt><trkpt lat="42.68741232504613" lon="11.841438076809059"><ele>478.0</ele><time>2026-04-18T07:14:07Z</time></trkpt><trkpt lat="42.68738098205996" lon="11.84134995173539"><ele>478.00000000000006</ele><time>2026-04-18T07:14:08Z</time></trkpt><trkpt lat="42.68734030215793" lon="11.84124411869332"><ele>478.0</ele><time>2026-04-18T07:14:09Z</time></trkpt><trkpt lat="42.687300458026314" lon="11.84112113916284"><ele>478.0</ele><time>2026-04-18T07:14:10Z</time></trkpt><trkpt lat="42.6872437687639" lon="11.841010222304616"><ele>477.99999999999994</ele><time>2026-04-18T07:14:11Z</time></trkpt><trkpt lat="42.68715909723052" lon="11.840911519559475"><ele>477.99999999999994</ele><time>2026-04-18T07:14:12Z</time></trkpt><trkpt lat="42.687121545148976" lon="11.84079932145978"><ele>478.0</ele><time>2026-04-18T07:14:13Z</time></trkpt><trkpt lat="42.687110816561415" lon="11.840699264372093"><ele>478.0</ele><time>2026-04-18T07:14:14Z</time></trkpt><trkpt lat="42.68716921388946" lon="11.84059588502802"><ele>476.5</ele><time>2026-04-18T07:14:15Z</time></trkpt><trkpt lat="42.687162460542" lon="11.840444881267958"><ele>475.0</ele><time>2026-04-18T07:14:16Z</time></trkpt><trkpt lat="42.68714035238125" lon="11.840247595750993"><ele>473.5</ele><time>2026-04-18T07:14:17Z</time></trkpt><trkpt lat="42.68711266318656" lon="11.840053987292542"><ele>472.0</ele><time>2026-04-18T07:14:18Z</time></trkpt><trkpt lat="42.687079558115634" lon="11.839892518446414"><ele>473.25</ele><time>2026-04-18T07:14:19Z</time></trkpt><trkpt lat="42.687032376530496" lon="11.839743576939984"><ele>474.5</ele><time>2026-04-18T07:14:20Z</time></trkpt><trkpt lat="42.68697699624571" lon="11.83959884991698"><ele>475.75</ele><time>2026-04-18T07:14:21Z</time></trkpt><trkpt lat="42.68691079707626" lon="11.839461992966612"><ele>477.0</ele><time>2026-04-18T07:14:22Z</time></trkpt><trkpt lat="42.68687230212357" lon="11.839310627483147"><ele>480.75</ele><time>2026-04-18T07:14:23Z</time></trkpt><trkpt lat="42.68682451276001" lon="11.839175425834975"><ele>484.5</ele><time>2026-04-18T07:14:24Z</time></trkpt><trkpt lat="42.68675796890207" lon="11.839032647676508"><ele>488.25</ele><time>2026-04-18T07:14:25Z</time></trkpt><trkpt lat="42.68668911026776" lon="11.838893222840738"><ele>492.0</ele><time>2026-04-18T07:14:26Z</time></trkpt><trkpt lat="42.68661112396156" lon="11.838778622081085"><ele>492.0</ele><time>2026-04-18T07:14:27Z</time></trkpt><trkpt lat="42.68655240223842" lon="11.838636116611022"><ele>492.00000000000006</ele><time>2026-04-18T07:14:28Z</time></trkpt><trkpt lat="42.68646665754881" lon="11.838517166271643"><ele>492.00000000000006</ele><time>2026-04-18T07:14:29Z</time></trkpt><trkpt lat="42.68640078256641" lon="11.838413244233776"><ele>492.0</ele><time>2026-04-18T07:14:30Z</time></trkpt><trkpt lat="42.686344996662264" lon="11.838314624575702"><ele>492.0</ele><time>2026-04-18T07:14:31Z</time></trkpt><trkpt lat="42.68630172329556" lon="11.838213185985481"><ele>492.20000000000005</ele><time>2026-04-18T07:14:32Z</time></trkpt><trkpt lat="42.68626813106321" lon="11.838136581339006"><ele>492.40000000000003</ele><time>2026-04-18T07:14:33Z</time></trkpt><trkpt lat="42.68622375732842" lon="11.838033981648977"><ele>492.59999999999997</ele><time>2026-04-18T07:14:34Z</time></trkpt><trkpt lat="42.68617927623471" lon="11.837936630407603"><ele>492.79999999999995</ele><time>2026-04-18T07:14:35Z</time></trkpt><trkpt lat="42.68610173412588" lon="11.837813396986821"><ele>493.0</ele><time>2026-04-18T07:14:37Z</time></trkpt><trkpt lat="42.68603490365955" lon="11.837683249338285"><ele>496.25</ele><time>2026-04-18T07:14:39Z</time></trkpt><trkpt lat="42.685933811683576" lon="11.837619970518203"><ele>499.5</ele><time>2026-04-18T07:14:41Z</time></trkpt><trkpt lat="42.68582246411435" lon="11.837513260695083"><ele>502.75</ele><time>2026-04-18T07:14:43Z</time></trkpt><trkpt lat="42.6857137105487" lon="11.837451551726247"><ele>506.0</ele><time>2026-04-18T07:14:44Z</time></trkpt><trkpt lat="42.68562404553416" lon="11.837368180881734"><ele>506.0</ele><time>2026-04-18T07:14:45Z</time></trkpt><trkpt lat="42.685533238715394" lon="11.837311097867538"><ele>506.0</ele><time>2026-04-18T07:14:45.999Z</time></trkpt><trkpt lat="42.68542889254509" lon="11.837270298563965"><ele>506.0</ele><time>2026-04-18T07:14:46.999Z</time></trkpt><trkpt lat="42.68531992935478" lon="11.837187232346846"><ele>506.0</ele><time>2026-04-18T07:14:47.999Z</time></trkpt><trkpt lat="42.685222273658525" lon="11.837129611171376"><ele>506.0</ele><time>2026-04-18T07:14:48.999Z</time></trkpt><trkpt lat="42.685152983132475" lon="11.837070135045911"><ele>506.8333333333333</ele><time>2026-04-18T07:14:49.999Z</time></trkpt><trkpt lat="42.6850940342008" lon="11.837016889081971"><ele>507.66666666666663</ele><time>2026-04-18T07:14:50.999Z</time></trkpt><trkpt lat="42.68503968516614" lon="11.836963040668094"><ele>508.5</ele><time>2026-04-18T07:14:52.999Z</time></trkpt><trkpt lat="42.68496072500017" lon="11.836858618101413"><ele>509.33333333333337</ele><time>2026-04-18T07:14:57.999Z</time></trkpt><trkpt lat="42.684912203923076" lon="11.836799277617063"><ele>510.1666666666667</ele><time>2026-04-18T07:14:58.999Z</time></trkpt><trkpt lat="42.68488012880905" lon="11.836702670247082"><ele>511.0</ele><time>2026-04-18T07:14:59.999Z</time></trkpt><trkpt lat="42.684713350644955" lon="11.836761929802051"><ele>511.00000000000006</ele><time>2026-04-18T07:15:00.999Z</time></trkpt><trkpt lat="42.684641663538464" lon="11.83672777977487"><ele>511.0</ele><time>2026-04-18T07:15:01.999Z</time></trkpt><trkpt lat="42.68455307868035" lon="11.836699923468107"><ele>511.0</ele><time>2026-04-18T07:15:02.999Z</time></trkpt><trkpt lat="42.68446025108102" lon="11.836668068759648"><ele>511.0</ele><time>2026-04-18T07:15:03.999Z</time></trkpt><trkpt lat="42.6843707760736" lon="11.836625347234042"><ele>511.00000000000006</ele><time>2026-04-18T07:15:04.999Z</time></trkpt><trkpt lat="42.684285729493865" lon="11.836577500828472"><ele>511.0</ele><time>2026-04-18T07:15:05.999Z</time></trkpt><trkpt lat="42.684198622479265" lon="11.836537552776738"><ele>510.6</ele><time>2026-04-18T07:15:06.999Z</time></trkpt><trkpt lat="42.684095904193825" lon="11.836494528187965"><ele>510.20000000000005</ele><time>2026-04-18T07:15:07.999Z</time></trkpt><trkpt lat="42.68398859893436" lon="11.83646214854453"><ele>509.79999999999995</ele><time>2026-04-18T07:15:08.999Z</time></trkpt><trkpt lat="42.68387426807302" lon="11.836426943844536"><ele>509.4</ele><time>2026-04-18T07:15:09.999Z</time></trkpt><trkpt lat="42.68377396783878" lon="11.836393552824715"><ele>509.0</ele><time>2026-04-18T07:15:10.999Z</time></trkpt><trkpt lat="42.68368292554466" lon="11.836344827756784"><ele>507.4</ele><time>2026-04-18T07:15:11.999Z</time></trkpt><trkpt lat="42.68357958357149" lon="11.836304579822064"><ele>505.79999999999995</ele><time>2026-04-18T07:15:12.999Z</time></trkpt><trkpt lat="42.683484335975315" lon="11.8362708450813"><ele>504.20000000000005</ele><time>2026-04-18T07:15:13.999Z</time></trkpt><trkpt lat="42.683386423705144" lon="11.836211636896818"><ele>502.6</ele><time>2026-04-18T07:15:14.999Z</time></trkpt><trkpt lat="42.68328959775232" lon="11.83614604361281"><ele>501.0</ele><time>2026-04-18T07:15:15.999Z</time></trkpt><trkpt lat="42.68320364643755" lon="11.836086315706472"><ele>501.0</ele><time>2026-04-18T07:15:16.999Z</time></trkpt><trkpt lat="42.68311815533661" lon="11.836023682986722"><ele>501.0</ele><time>2026-04-18T07:15:17.999Z</time></trkpt><trkpt lat="42.683031630158496" lon="11.835964720662975"><ele>501.0</ele><time>2026-04-18T07:15:18.999Z</time></trkpt><trkpt lat="42.68294995350465" lon="11.835920731057092"><ele>501.0</ele><time>2026-04-18T07:15:19.999Z</time></trkpt><trkpt lat="42.682853663512255" lon="11.835869760032523"><ele>501.0</ele><time>2026-04-18T07:15:20.999Z</time></trkpt><trkpt lat="42.68275219281717" lon="11.835810492015035"><ele>502.6</ele><time>2026-04-18T07:15:21.999Z</time></trkpt><trkpt lat="42.682658527570894" lon="11.835755374758108"><ele>504.20000000000005</ele><time>2026-04-18T07:15:22.999Z</time></trkpt><trkpt lat="42.68256911453894" lon="11.835724636288942"><ele>505.79999999999995</ele><time>2026-04-18T07:15:23.999Z</time></trkpt><trkpt lat="42.682469716708816" lon="11.835693622604484"><ele>507.4</ele><time>2026-04-18T07:15:24.999Z</time></trkpt><trkpt lat="42.6823626005731" lon="11.835667217366982"><ele>509.0</ele><time>2026-04-18T07:15:25.999Z</time></trkpt><trkpt lat="42.682257971774774" lon="11.835653684686825"><ele>509.0</ele><time>2026-04-18T07:15:26.999Z</time></trkpt><trkpt lat="42.68215003835135" lon="11.83563418234544"><ele>509.0</ele><time>2026-04-18T07:15:27.999Z</time></trkpt><trkpt lat="42.68202055706814" lon="11.83562578385859"><ele>509.0</ele><time>2026-04-18T07:15:28.999Z</time></trkpt><trkpt lat="42.6818958262783" lon="11.835619565942968"><ele>509.0</ele><time>2026-04-18T07:15:29.999Z</time></trkpt><trkpt lat="42.681769373466345" lon="11.835600530425245"><ele>508.75</ele><time>2026-04-18T07:15:30.999Z</time></trkpt><trkpt lat="42.6816377510934" lon="11.835574021225185"><ele>508.5</ele><time>2026-04-18T07:15:31.999Z</time></trkpt><trkpt lat="42.68149913489727" lon="11.835553619522711"><ele>508.25</ele><time>2026-04-18T07:15:32.999Z</time></trkpt><trkpt lat="42.68137651487084" lon="11.835538325791529"><ele>508.0</ele><time>2026-04-18T07:15:33.999Z</time></trkpt><trkpt lat="42.68125854004116" lon="11.835518091973958"><ele>508.0</ele><time>2026-04-18T07:15:34.999Z</time></trkpt><trkpt lat="42.68113549122067" lon="11.835496678256558"><ele>508.0</ele><time>2026-04-18T07:15:35.999Z</time></trkpt><trkpt lat="42.68101095029865" lon="11.83547447102785"><ele>508.0</ele><time>2026-04-18T07:15:36.999Z</time></trkpt><trkpt lat="42.68088426835192" lon="11.835458542796946"><ele>508.0</ele><time>2026-04-18T07:15:37.999Z</time></trkpt><trkpt lat="42.68076124232763" lon="11.83543410058758"><ele>508.0</ele><time>2026-04-18T07:15:38.999Z</time></trkpt><trkpt lat="42.68065647707786" lon="11.835403661117644"><ele>507.99999999999994</ele><time>2026-04-18T07:15:39.999Z</time></trkpt><trkpt lat="42.68056006475604" lon="11.835373097962524"><ele>507.99999999999994</ele><time>2026-04-18T07:15:40.999Z</time></trkpt><trkpt lat="42.68046578720243" lon="11.83533601034483"><ele>508.0</ele><time>2026-04-18T07:15:41.999Z</time></trkpt><trkpt lat="42.68036780556558" lon="11.83528695718099"><ele>508.0</ele><time>2026-04-18T07:15:42.999Z</time></trkpt><trkpt lat="42.680284612515756" lon="11.835231306844094"><ele>508.59999999999997</ele><time>2026-04-18T07:15:43.999Z</time></trkpt><trkpt lat="42.68020617187678" lon="11.835183340707438"><ele>509.19999999999993</ele><time>2026-04-18T07:15:44.999Z</time></trkpt><trkpt lat="42.68014629489634" lon="11.835150884180475"><ele>509.8</ele><time>2026-04-18T07:15:45.999Z</time></trkpt><trkpt lat="42.680021266055114" lon="11.835086713994675"><ele>510.4</ele><time>2026-04-18T07:15:47.999Z</time></trkpt><trkpt lat="42.679919682891104" lon="11.835042041306824"><ele>511.0</ele><time>2026-04-18T07:15:48.999Z</time></trkpt><trkpt lat="42.67977936831975" lon="11.834977147832316"><ele>511.0</ele><time>2026-04-18T07:15:49.999Z</time></trkpt><trkpt lat="42.67964026602031" lon="11.83490498507115"><ele>511.0</ele><time>2026-04-18T07:15:51Z</time></trkpt><trkpt lat="42.67950780155579" lon="11.834806937899817"><ele>511.0</ele><time>2026-04-18T07:15:52Z</time></trkpt><trkpt lat="42.67936344644334" lon="11.834699261685152"><ele>510.75</ele><time>2026-04-18T07:15:53Z</time></trkpt><trkpt lat="42.679224676384976" lon="11.834595780899525"><ele>510.5</ele><time>2026-04-18T07:15:54Z</time></trkpt><trkpt lat="42.67910711782341" lon="11.83451572366642"><ele>510.25</ele><time>2026-04-18T07:15:55Z</time></trkpt><trkpt lat="42.67899514817129" lon="11.834442273418734"><ele>510.0</ele><time>2026-04-18T07:15:56Z</time></trkpt><trkpt lat="42.678876418444375" lon="11.834365910783461"><ele>510.5</ele><time>2026-04-18T07:15:57Z</time></trkpt><trkpt lat="42.67874703247637" lon="11.834293444425942"><ele>511.0</ele><time>2026-04-18T07:15:58Z</time></trkpt><trkpt lat="42.67862630302359" lon="11.834223181236192"><ele>511.5</ele><time>2026-04-18T07:15:59Z</time></trkpt><trkpt lat="42.67849316287818" lon="11.834162948864158"><ele>512.0</ele><time>2026-04-18T07:16:00Z</time></trkpt><trkpt lat="42.67836229301735" lon="11.8340985380745"><ele>512.25</ele><time>2026-04-18T07:16:01Z</time></trkpt><trkpt lat="42.67823566070329" lon="11.834042706502736"><ele>512.5</ele><time>2026-04-18T07:16:02Z</time></trkpt><trkpt lat="42.67811579658461" lon="11.83398511852914"><ele>512.75</ele><time>2026-04-18T07:16:03Z</time></trkpt><trkpt lat="42.6780146888914" lon="11.833938078631178"><ele>513.0</ele><time>2026-04-18T07:16:04Z</time></trkpt><trkpt lat="42.67792035984157" lon="11.83387965650595"><ele>513.0</ele><time>2026-04-18T07:16:05Z</time></trkpt><trkpt lat="42.6777907730638" lon="11.83379202490239"><ele>513.0</ele><time>2026-04-18T07:16:06Z</time></trkpt><trkpt lat="42.67768360016479" lon="11.833716937046526"><ele>513.0</ele><time>2026-04-18T07:16:07Z</time></trkpt><trkpt lat="42.67758705627024" lon="11.833657873595415"><ele>513.0</ele><time>2026-04-18T07:16:08Z</time></trkpt><trkpt lat="42.67748610485312" lon="11.833594550107271"><ele>512.25</ele><time>2026-04-18T07:16:09Z</time></trkpt><trkpt lat="42.67737434669145" lon="11.83353277042004"><ele>511.5</ele><time>2026-04-18T07:16:10Z</time></trkpt><trkpt lat="42.67725354046948" lon="11.833482166238987"><ele>510.75</ele><time>2026-04-18T07:16:11Z</time></trkpt><trkpt lat="42.67711024197555" lon="11.833449693677128"><ele>510.0</ele><time>2026-04-18T07:16:12Z</time></trkpt><trkpt lat="42.676969186581005" lon="11.83339546794659"><ele>511.25</ele><time>2026-04-18T07:16:13Z</time></trkpt><trkpt lat="42.676837745468575" lon="11.833346358301188"><ele>512.5</ele><time>2026-04-18T07:16:14Z</time></trkpt><trkpt lat="42.676723779074244" lon="11.83328702619"><ele>513.75</ele><time>2026-04-18T07:16:15Z</time></trkpt><trkpt lat="42.67659328791717" lon="11.833216960404998"><ele>515.0</ele><time>2026-04-18T07:16:16Z</time></trkpt><trkpt lat="42.67647210384622" lon="11.833181085274234"><ele>515.0</ele><time>2026-04-18T07:16:17Z</time></trkpt><trkpt lat="42.67635219955978" lon="11.833128821851393"><ele>515.0</ele><time>2026-04-18T07:16:18Z</time></trkpt><trkpt lat="42.67620652095414" lon="11.833093816541275"><ele>515.0</ele><time>2026-04-18T07:16:19Z</time></trkpt><trkpt lat="42.676017820660874" lon="11.83306840684083"><ele>515.0</ele><time>2026-04-18T07:16:20Z</time></trkpt><trkpt lat="42.67586192322279" lon="11.833042552162473"><ele>515.0</ele><time>2026-04-18T07:16:21Z</time></trkpt><trkpt lat="42.675725577364716" lon="11.833016207422103"><ele>515.0</ele><time>2026-04-18T07:16:22Z</time></trkpt><trkpt lat="42.67559014400024" lon="11.832986465538678"><ele>515.0</ele><time>2026-04-18T07:16:23Z</time></trkpt><trkpt lat="42.67546392203005" lon="11.83295811264581"><ele>515.0</ele><time>2026-04-18T07:16:24Z</time></trkpt><trkpt lat="42.675344874145836" lon="11.832898608299077"><ele>515.0</ele><time>2026-04-18T07:16:25Z</time></trkpt><trkpt lat="42.67521152478136" lon="11.832872579720009"><ele>515.0</ele><time>2026-04-18T07:16:26Z</time></trkpt><trkpt lat="42.675055766771855" lon="11.8327819597809"><ele>515.0</ele><time>2026-04-18T07:16:27Z</time></trkpt><trkpt lat="42.67489846303109" lon="11.832727003293742"><ele>514.4</ele><time>2026-04-18T07:16:28Z</time></trkpt><trkpt lat="42.674785381217646" lon="11.832645222318721"><ele>513.8</ele><time>2026-04-18T07:16:29Z</time></trkpt><trkpt lat="42.67468567648319" lon="11.832586966267291"><ele>513.2</ele><time>2026-04-18T07:16:30Z</time></trkpt><trkpt lat="42.67460286383405" lon="11.83253689559878"><ele>512.6</ele><time>2026-04-18T07:16:31Z</time></trkpt><trkpt lat="42.67454194835859" lon="11.832499088222034"><ele>512.0</ele><time>2026-04-18T07:16:32Z</time></trkpt><trkpt lat="42.67445208671679" lon="11.832434774806652"><ele>513.2</ele><time>2026-04-18T07:16:34Z</time></trkpt><trkpt lat="42.674538392634695" lon="11.832376718334219"><ele>514.4000000000001</ele><time>2026-04-18T07:16:39Z</time></trkpt><trkpt lat="42.67463351938665" lon="11.83236509220983"><ele>515.5999999999999</ele><time>2026-04-18T07:16:40Z</time></trkpt><trkpt lat="42.67473629836144" lon="11.832336882815197"><ele>516.8</ele><time>2026-04-18T07:16:41Z</time></trkpt><trkpt lat="42.67483579568818" lon="11.832296538042474"><ele>518.0</ele><time>2026-04-18T07:16:42Z</time></trkpt><trkpt lat="42.67492695046558" lon="11.832238317771573"><ele>518.0</ele><time>2026-04-18T07:16:43Z</time></trkpt><trkpt lat="42.6749901327954" lon="11.832150739185884"><ele>518.0</ele><time>2026-04-18T07:16:44Z</time></trkpt><trkpt lat="42.67504612329848" lon="11.83203824841303"><ele>518.0</ele><time>2026-04-18T07:16:45Z</time></trkpt><trkpt lat="42.67507865885889" lon="11.83191961196209"><ele>518.0</ele><time>2026-04-18T07:16:46Z</time></trkpt><trkpt lat="42.67509493237437" lon="11.831782977857591"><ele>518.0</ele><time>2026-04-18T07:16:47Z</time></trkpt><trkpt lat="42.675095411264735" lon="11.831634096275797"><ele>518.0</ele><time>2026-04-18T07:16:48Z</time></trkpt><trkpt lat="42.675083503640934" lon="11.831477788330144"><ele>518.0</ele><time>2026-04-18T07:16:49Z</time></trkpt><trkpt lat="42.67505728625151" lon="11.831324857903013"><ele>518.0</ele><time>2026-04-18T07:16:50Z</time></trkpt><trkpt lat="42.675028689517056" lon="11.831179908706046"><ele>518.0</ele><time>2026-04-18T07:16:51Z</time></trkpt><trkpt lat="42.675028896308184" lon="11.8310436098353"><ele>518.0</ele><time>2026-04-18T07:16:52Z</time></trkpt><trkpt lat="42.67501486858856" lon="11.830926712161464"><ele>517.8</ele><time>2026-04-18T07:16:53Z</time></trkpt><trkpt lat="42.674986831862554" lon="11.830803865717648"><ele>517.5999999999999</ele><time>2026-04-18T07:16:54Z</time></trkpt><trkpt lat="42.67499504176286" lon="11.830658854618632"><ele>517.4000000000001</ele><time>2026-04-18T07:16:55Z</time></trkpt><trkpt lat="42.67499145157705" lon="11.830570817303462"><ele>517.2</ele><time>2026-04-18T07:16:55.999Z</time></trkpt><trkpt lat="42.67498061742674" lon="11.830457633372928"><ele>517.0</ele><time>2026-04-18T07:16:56.999Z</time></trkpt><trkpt lat="42.67495037891546" lon="11.830322975143778"><ele>517.0</ele><time>2026-04-18T07:16:57.999Z</time></trkpt><trkpt lat="42.67486446959259" lon="11.830235814808214"><ele>517.0</ele><time>2026-04-18T07:16:58.999Z</time></trkpt><trkpt lat="42.67477721020997" lon="11.830181975380931"><ele>517.0</ele><time>2026-04-18T07:16:59.999Z</time></trkpt><trkpt lat="42.674660029511465" lon="11.830159639594513"><ele>517.0</ele><time>2026-04-18T07:17:00.999Z</time></trkpt><trkpt lat="42.67453187026785" lon="11.830163001628836"><ele>517.0</ele><time>2026-04-18T07:17:01.999Z</time></trkpt><trkpt lat="42.6744347861122" lon="11.830075773440333"><ele>517.0</ele><time>2026-04-18T07:17:02.999Z</time></trkpt><trkpt lat="42.6743318596281" lon="11.830042322968431"><ele>517.0</ele><time>2026-04-18T07:17:03.999Z</time></trkpt><trkpt lat="42.67423315541342" lon="11.830009217337615"><ele>517.0</ele><time>2026-04-18T07:17:04.999Z</time></trkpt><trkpt lat="42.6741443156307" lon="11.829968638423649"><ele>517.0</ele><time>2026-04-18T07:17:05.999Z</time></trkpt><trkpt lat="42.67406572239604" lon="11.829920642397601"><ele>517.0</ele><time>2026-04-18T07:17:06.999Z</time></trkpt><trkpt lat="42.674001019316755" lon="11.82985861752502"><ele>517.0</ele><time>2026-04-18T07:17:07.999Z</time></trkpt><trkpt lat="42.67393732092488" lon="11.829785399862937"><ele>517.0</ele><time>2026-04-18T07:17:08.999Z</time></trkpt><trkpt lat="42.673888663247496" lon="11.829713692883537"><ele>517.0</ele><time>2026-04-18T07:17:09.999Z</time></trkpt><trkpt lat="42.67384308752742" lon="11.829633767403765"><ele>517.0</ele><time>2026-04-18T07:17:10.999Z</time></trkpt><trkpt lat="42.67380969779805" lon="11.82955271299031"><ele>517.0</ele><time>2026-04-18T07:17:11.999Z</time></trkpt><trkpt lat="42.6737736107754" lon="11.829449905784662"><ele>517.0</ele><time>2026-04-18T07:17:12.999Z</time></trkpt><trkpt lat="42.673748364456635" lon="11.829349699226976"><ele>517.0</ele><time>2026-04-18T07:17:13.999Z</time></trkpt><trkpt lat="42.67373573821142" lon="11.829247635536571"><ele>517.0</ele><time>2026-04-18T07:17:14.999Z</time></trkpt><trkpt lat="42.67374589812392" lon="11.829102093409654"><ele>517.0</ele><time>2026-04-18T07:17:16.999Z</time></trkpt><trkpt lat="42.67380452017864" lon="11.828951340536113"><ele>517.0</ele><time>2026-04-18T07:17:18.999Z</time></trkpt><trkpt lat="42.673885943147326" lon="11.828891850100753"><ele>517.0</ele><time>2026-04-18T07:17:19.999Z</time></trkpt><trkpt lat="42.67396497430609" lon="11.828839775562923"><ele>517.0</ele><time>2026-04-18T07:17:20.999Z</time></trkpt><trkpt lat="42.67405851256775" lon="11.828784299963237"><ele>517.0</ele><time>2026-04-18T07:17:21.999Z</time></trkpt><trkpt lat="42.67416652472756" lon="11.828708758021369"><ele>517.0</ele><time>2026-04-18T07:17:22.999Z</time></trkpt><trkpt lat="42.674291020665216" lon="11.828660727594638"><ele>517.0</ele><time>2026-04-18T07:17:23.999Z</time></trkpt><trkpt lat="42.67443026774055" lon="11.828619872840063"><ele>518.25</ele><time>2026-04-18T07:17:24.999Z</time></trkpt><trkpt lat="42.674581918062344" lon="11.828574788933615"><ele>519.5</ele><time>2026-04-18T07:17:25.999Z</time></trkpt><trkpt lat="42.67472028217832" lon="11.828530856408625"><ele>520.75</ele><time>2026-04-18T07:17:26.999Z</time></trkpt><trkpt lat="42.674849522944555" lon="11.828484870676707"><ele>522.0</ele><time>2026-04-18T07:17:27.999Z</time></trkpt><trkpt lat="42.67496963228079" lon="11.828448735587216"><ele>517.75</ele><time>2026-04-18T07:17:28.999Z</time></trkpt><trkpt lat="42.6750785422355" lon="11.828411526081004"><ele>513.5</ele><time>2026-04-18T07:17:29.999Z</time></trkpt><trkpt lat="42.67519117026059" lon="11.828369269091777"><ele>509.25</ele><time>2026-04-18T07:17:30.999Z</time></trkpt><trkpt lat="42.675311790789564" lon="11.828319357382425"><ele>505.0</ele><time>2026-04-18T07:17:31.999Z</time></trkpt><trkpt lat="42.67542086799993" lon="11.828311513699413"><ele>504.2</ele><time>2026-04-18T07:17:32.999Z</time></trkpt><trkpt lat="42.675518134468085" lon="11.828294252095002"><ele>503.4</ele><time>2026-04-18T07:17:33.999Z</time></trkpt><trkpt lat="42.67560857976105" lon="11.82828188581691"><ele>502.6</ele><time>2026-04-18T07:17:34.999Z</time></trkpt><trkpt lat="42.675700711594004" lon="11.828278722684678"><ele>501.8</ele><time>2026-04-18T07:17:35.999Z</time></trkpt><trkpt lat="42.675800015538215" lon="11.828281959340307"><ele>501.0</ele><time>2026-04-18T07:17:36.999Z</time></trkpt><trkpt lat="42.67589846527678" lon="11.828296751881743"><ele>501.0</ele><time>2026-04-18T07:17:37.999Z</time></trkpt><trkpt lat="42.67599668012605" lon="11.828313946447773"><ele>501.0</ele><time>2026-04-18T07:17:38.999Z</time></trkpt><trkpt lat="42.67610156096317" lon="11.828327104962959"><ele>501.0</ele><time>2026-04-18T07:17:39.999Z</time></trkpt><trkpt lat="42.67619559533071" lon="11.828320046745104"><ele>501.0</ele><time>2026-04-18T07:17:40.999Z</time></trkpt><trkpt lat="42.67628396640256" lon="11.828339430542714"><ele>501.0</ele><time>2026-04-18T07:17:41.999Z</time></trkpt><trkpt lat="42.67637767396992" lon="11.828336746580812"><ele>500.6</ele><time>2026-04-18T07:17:42.999Z</time></trkpt><trkpt lat="42.67645949943071" lon="11.828328097930436"><ele>500.20000000000005</ele><time>2026-04-18T07:17:43.999Z</time></trkpt><trkpt lat="42.67653550808733" lon="11.828321461986679"><ele>499.79999999999995</ele><time>2026-04-18T07:17:44.999Z</time></trkpt><trkpt lat="42.676616823358295" lon="11.82822457382749"><ele>499.4</ele><time>2026-04-18T07:17:45.999Z</time></trkpt><trkpt lat="42.67663150767046" lon="11.828061422407417"><ele>499.0</ele><time>2026-04-18T07:17:46.999Z</time></trkpt><trkpt lat="42.67665174963078" lon="11.827874734964583"><ele>495.6666666666667</ele><time>2026-04-18T07:17:47.999Z</time></trkpt><trkpt lat="42.67667496499364" lon="11.827638931791077"><ele>492.33333333333337</ele><time>2026-04-18T07:17:48.999Z</time></trkpt><trkpt lat="42.67670548735998" lon="11.827411401516489"><ele>489.0</ele><time>2026-04-18T07:17:49.999Z</time></trkpt><trkpt lat="42.676722334814535" lon="11.827246208909918"><ele>489.0</ele><time>2026-04-18T07:17:50.999Z</time></trkpt><trkpt lat="42.67672935802833" lon="11.827102050289833"><ele>489.0</ele><time>2026-04-18T07:17:51.999Z</time></trkpt><trkpt lat="42.67671131783495" lon="11.826948446207318"><ele>489.0</ele><time>2026-04-18T07:17:52.999Z</time></trkpt><trkpt lat="42.67664668567549" lon="11.826789923749343"><ele>489.0</ele><time>2026-04-18T07:17:53.999Z</time></trkpt><trkpt lat="42.67661032685142" lon="11.826591302819502"><ele>490.25</ele><time>2026-04-18T07:17:54.999Z</time></trkpt><trkpt lat="42.67657051696761" lon="11.826368445272276"><ele>491.5</ele><time>2026-04-18T07:17:55.999Z</time></trkpt><trkpt lat="42.67653191944193" lon="11.826176749328184"><ele>492.75</ele><time>2026-04-18T07:17:57Z</time></trkpt><trkpt lat="42.67649033127722" lon="11.826020291481719"><ele>494.0</ele><time>2026-04-18T07:17:58Z</time></trkpt><trkpt lat="42.676426219865675" lon="11.825885381108382"><ele>496.75</ele><time>2026-04-18T07:17:59Z</time></trkpt><trkpt lat="42.67635237227251" lon="11.825755470428117"><ele>499.5</ele><time>2026-04-18T07:18:00Z</time></trkpt><trkpt lat="42.676279400903425" lon="11.82561425962224"><ele>502.25</ele><time>2026-04-18T07:18:01Z</time></trkpt><trkpt lat="42.67620469141056" lon="11.825458857346828"><ele>505.0</ele><time>2026-04-18T07:18:02Z</time></trkpt><trkpt lat="42.67612077694322" lon="11.825280434502169"><ele>505.0</ele><time>2026-04-18T07:18:03Z</time></trkpt><trkpt lat="42.67603916128907" lon="11.825101968611692"><ele>505.0</ele><time>2026-04-18T07:18:04Z</time></trkpt><trkpt lat="42.67596504273257" lon="11.824930760751183"><ele>505.0</ele><time>2026-04-18T07:18:05Z</time></trkpt><trkpt lat="42.67589368333388" lon="11.824751736049576"><ele>505.0</ele><time>2026-04-18T07:18:06Z</time></trkpt><trkpt lat="42.67581913148234" lon="11.824560102486869"><ele>505.0</ele><time>2026-04-18T07:18:07Z</time></trkpt><trkpt lat="42.67575778812189" lon="11.824397678700644"><ele>505.0</ele><time>2026-04-18T07:18:08Z</time></trkpt><trkpt lat="42.675709628075815" lon="11.824271277133512"><ele>505.0</ele><time>2026-04-18T07:18:09Z</time></trkpt><trkpt lat="42.67564297668797" lon="11.824143539477543"><ele>507.0</ele><time>2026-04-18T07:18:10Z</time></trkpt><trkpt lat="42.675560268360336" lon="11.824013872881682"><ele>509.0</ele><time>2026-04-18T07:18:11Z</time></trkpt><trkpt lat="42.67546057692601" lon="11.823863128923955"><ele>511.0</ele><time>2026-04-18T07:18:12Z</time></trkpt><trkpt lat="42.67530546525497" lon="11.823746678988353"><ele>511.25</ele><time>2026-04-18T07:18:13Z</time></trkpt><trkpt lat="42.67516191860858" lon="11.823597299868803"><ele>511.5</ele><time>2026-04-18T07:18:14Z</time></trkpt><trkpt lat="42.67505978195662" lon="11.823491882080413"><ele>511.75</ele><time>2026-04-18T07:18:15Z</time></trkpt><trkpt lat="42.674992581640005" lon="11.823406389768403"><ele>512.0</ele><time>2026-04-18T07:18:16Z</time></trkpt><trkpt lat="42.67494069182672" lon="11.82330416388692"><ele>512.8333333333333</ele><time>2026-04-18T07:18:18Z</time></trkpt><trkpt lat="42.67492216697308" lon="11.823221407605418"><ele>513.6666666666666</ele><time>2026-04-18T07:18:19Z</time></trkpt><trkpt lat="42.6749205523624" lon="11.823105577395667"><ele>514.5</ele><time>2026-04-18T07:18:20Z</time></trkpt><trkpt lat="42.67492682246609" lon="11.822995508510813"><ele>515.3333333333334</ele><time>2026-04-18T07:18:21Z</time></trkpt><trkpt lat="42.67493790777608" lon="11.822911001923124"><ele>516.1666666666667</ele><time>2026-04-18T07:18:22Z</time></trkpt><trkpt lat="42.67496107383349" lon="11.822762810418068"><ele>517.0</ele><time>2026-04-18T07:18:24Z</time></trkpt><trkpt lat="42.67498035928205" lon="11.822669156654882"><ele>515.0</ele><time>2026-04-18T07:18:25Z</time></trkpt><trkpt lat="42.67501344025311" lon="11.822549063270085"><ele>513.0</ele><time>2026-04-18T07:18:26Z</time></trkpt><trkpt lat="42.67506351212642" lon="11.82242768479321"><ele>511.0</ele><time>2026-04-18T07:18:27Z</time></trkpt><trkpt lat="42.67512720619761" lon="11.822262651348385"><ele>509.0</ele><time>2026-04-18T07:18:28Z</time></trkpt><trkpt lat="42.67518114425547" lon="11.8220988007412"><ele>509.0</ele><time>2026-04-18T07:18:29Z</time></trkpt><trkpt lat="42.67522941957665" lon="11.821950265538081"><ele>509.0</ele><time>2026-04-18T07:18:30Z</time></trkpt><trkpt lat="42.675279682034116" lon="11.821802023287272"><ele>509.0</ele><time>2026-04-18T07:18:31Z</time></trkpt><trkpt lat="42.6753339257828" lon="11.8216539016823"><ele>509.0</ele><time>2026-04-18T07:18:32Z</time></trkpt><trkpt lat="42.67538469522593" lon="11.821515467542712"><ele>509.0</ele><time>2026-04-18T07:18:33Z</time></trkpt><trkpt lat="42.67544409439531" lon="11.821361435895483"><ele>509.0</ele><time>2026-04-18T07:18:34Z</time></trkpt><trkpt lat="42.67550969924169" lon="11.821198427517288"><ele>509.0</ele><time>2026-04-18T07:18:35Z</time></trkpt><trkpt lat="42.6755603894666" lon="11.821063148078293"><ele>509.0</ele><time>2026-04-18T07:18:36Z</time></trkpt><trkpt lat="42.67562431439838" lon="11.820971649964116"><ele>509.3333333333333</ele><time>2026-04-18T07:18:37Z</time></trkpt><trkpt lat="42.67567880979397" lon="11.82089744957953"><ele>509.66666666666663</ele><time>2026-04-18T07:18:38Z</time></trkpt><trkpt lat="42.67573295268791" lon="11.82080454352804"><ele>510.0</ele><time>2026-04-18T07:18:40Z</time></trkpt><trkpt lat="42.675761604292056" lon="11.820707743615575"><ele>510.33333333333337</ele><time>2026-04-18T07:18:43Z</time></trkpt><trkpt lat="42.67572026276299" lon="11.820568194399856"><ele>510.6666666666667</ele><time>2026-04-18T07:18:46Z</time></trkpt><trkpt lat="42.6756324931574" lon="11.820522401329848"><ele>511.0</ele><time>2026-04-18T07:18:47Z</time></trkpt><trkpt lat="42.67554751163278" lon="11.820508370887072"><ele>511.00000000000006</ele><time>2026-04-18T07:18:48Z</time></trkpt><trkpt lat="42.67546660234259" lon="11.820476912817613"><ele>511.0</ele><time>2026-04-18T07:18:49Z</time></trkpt><trkpt lat="42.675405479467265" lon="11.820441569047526"><ele>511.0</ele><time>2026-04-18T07:18:50Z</time></trkpt><trkpt lat="42.67532520199527" lon="11.820401160057527"><ele>511.0</ele><time>2026-04-18T07:18:51Z</time></trkpt><trkpt lat="42.67523628922713" lon="11.820358588673665"><ele>511.00000000000006</ele><time>2026-04-18T07:18:52Z</time></trkpt><trkpt lat="42.67514182243153" lon="11.820313112450577"><ele>511.0</ele><time>2026-04-18T07:18:53Z</time></trkpt><trkpt lat="42.675044028034115" lon="11.820273337980659"><ele>511.25</ele><time>2026-04-18T07:18:54Z</time></trkpt><trkpt lat="42.67493266485053" lon="11.820231912654194"><ele>511.5</ele><time>2026-04-18T07:18:55Z</time></trkpt><trkpt lat="42.6748019351793" lon="11.820169132082038"><ele>511.75</ele><time>2026-04-18T07:18:56Z</time></trkpt><trkpt lat="42.67465617424095" lon="11.820136587741755"><ele>512.0</ele><time>2026-04-18T07:18:57Z</time></trkpt><trkpt lat="42.674509790914875" lon="11.82012096262919"><ele>512.5</ele><time>2026-04-18T07:18:58Z</time></trkpt><trkpt lat="42.67437909078647" lon="11.82010959017145"><ele>513.0</ele><time>2026-04-18T07:18:59Z</time></trkpt><trkpt lat="42.67426593761094" lon="11.82009603343835"><ele>513.5</ele><time>2026-04-18T07:19:00Z</time></trkpt><trkpt lat="42.67415938447494" lon="11.820083164010198"><ele>514.0</ele><time>2026-04-18T07:19:01Z</time></trkpt><trkpt lat="42.67406081183499" lon="11.820073216799289"><ele>514.0</ele><time>2026-04-18T07:19:01.999Z</time></trkpt><trkpt lat="42.673970251769916" lon="11.820063799179325"><ele>514.0</ele><time>2026-04-18T07:19:02.999Z</time></trkpt><trkpt lat="42.67388727232995" lon="11.820051593771598"><ele>514.0</ele><time>2026-04-18T07:19:03.999Z</time></trkpt><trkpt lat="42.67379688151834" lon="11.82003767565391"><ele>514.0</ele><time>2026-04-18T07:19:04.999Z</time></trkpt><trkpt lat="42.67370119957201" lon="11.820034789758108"><ele>514.0</ele><time>2026-04-18T07:19:05.999Z</time></trkpt><trkpt lat="42.67360605044348" lon="11.820019747081574"><ele>514.75</ele><time>2026-04-18T07:19:06.999Z</time></trkpt><trkpt lat="42.673504614582406" lon="11.820009464077023"><ele>515.5</ele><time>2026-04-18T07:19:07.999Z</time></trkpt><trkpt lat="42.673397586995684" lon="11.819990562985241"><ele>516.25</ele><time>2026-04-18T07:19:08.999Z</time></trkpt><trkpt lat="42.6732817936566" lon="11.81997433836382"><ele>517.0</ele><time>2026-04-18T07:19:09.999Z</time></trkpt><trkpt lat="42.67315280511953" lon="11.819956746113244"><ele>517.0</ele><time>2026-04-18T07:19:10.999Z</time></trkpt><trkpt lat="42.6730236883591" lon="11.819939240480288"><ele>517.0</ele><time>2026-04-18T07:19:11.999Z</time></trkpt><trkpt lat="42.67289607645488" lon="11.81991187238374"><ele>517.0</ele><time>2026-04-18T07:19:12.999Z</time></trkpt><trkpt lat="42.672780096609095" lon="11.81987473409632"><ele>517.0</ele><time>2026-04-18T07:19:13.999Z</time></trkpt><trkpt lat="42.672679979746114" lon="11.819822326799725"><ele>516.0</ele><time>2026-04-18T07:19:14.999Z</time></trkpt><trkpt lat="42.672578439504505" lon="11.819747786165289"><ele>515.0</ele><time>2026-04-18T07:19:15.999Z</time></trkpt><trkpt lat="42.67246977720158" lon="11.819649344437797"><ele>514.0</ele><time>2026-04-18T07:19:16.999Z</time></trkpt><trkpt lat="42.672370199918774" lon="11.819521855213232"><ele>513.0</ele><time>2026-04-18T07:19:17.999Z</time></trkpt><trkpt lat="42.67228597186724" lon="11.819372029814268"><ele>514.6666666666666</ele><time>2026-04-18T07:19:18.999Z</time></trkpt><trkpt lat="42.67222147182846" lon="11.819198637344792"><ele>516.3333333333333</ele><time>2026-04-18T07:19:19.999Z</time></trkpt><trkpt lat="42.67216264383044" lon="11.819003422982636"><ele>518.0</ele><time>2026-04-18T07:19:20.999Z</time></trkpt><trkpt lat="42.672124029861955" lon="11.818794598989529"><ele>518.0</ele><time>2026-04-18T07:19:21.999Z</time></trkpt><trkpt lat="42.67206893869295" lon="11.818576651262903"><ele>518.0</ele><time>2026-04-18T07:19:22.999Z</time></trkpt><trkpt lat="42.67200631398046" lon="11.818360324842594"><ele>518.0</ele><time>2026-04-18T07:19:23.999Z</time></trkpt><trkpt lat="42.67191816508148" lon="11.818158598187399"><ele>517.0</ele><time>2026-04-18T07:19:24.999Z</time></trkpt><trkpt lat="42.671790071347175" lon="11.817987626971073"><ele>516.0</ele><time>2026-04-18T07:19:25.999Z</time></trkpt><trkpt lat="42.67166642986499" lon="11.817820241323597"><ele>515.0</ele><time>2026-04-18T07:19:26.999Z</time></trkpt><trkpt lat="42.67154532088879" lon="11.81768199358858"><ele>516.0</ele><time>2026-04-18T07:19:27.999Z</time></trkpt><trkpt lat="42.671437239261074" lon="11.81755552192688"><ele>517.0</ele><time>2026-04-18T07:19:28.999Z</time></trkpt><trkpt lat="42.67136075237331" lon="11.817406712903772"><ele>518.0</ele><time>2026-04-18T07:19:29.999Z</time></trkpt><trkpt lat="42.671310019767226" lon="11.817273646574554"><ele>519.0</ele><time>2026-04-18T07:19:30.999Z</time></trkpt><trkpt lat="42.67128401377886" lon="11.817147639711562"><ele>519.0</ele><time>2026-04-18T07:19:31.999Z</time></trkpt><trkpt lat="42.671256284556726" lon="11.817043585134975"><ele>519.0</ele><time>2026-04-18T07:19:32.999Z</time></trkpt><trkpt lat="42.67125273618971" lon="11.816955460090703"><ele>519.0</ele><time>2026-04-18T07:19:33.999Z</time></trkpt><trkpt lat="42.6712584791475" lon="11.816852312068077"><ele>519.0</ele><time>2026-04-18T07:19:35.999Z</time></trkpt><trkpt lat="42.67138611029588" lon="11.816782427413738"><ele>519.0</ele><time>2026-04-18T07:19:37.999Z</time></trkpt><trkpt lat="42.6714756176823" lon="11.816762721943222"><ele>518.5</ele><time>2026-04-18T07:19:38.999Z</time></trkpt><trkpt lat="42.67157622836092" lon="11.816746028491814"><ele>518.0</ele><time>2026-04-18T07:19:39.999Z</time></trkpt><trkpt lat="42.67168493269111" lon="11.816730150221282"><ele>517.5</ele><time>2026-04-18T07:19:40.999Z</time></trkpt><trkpt lat="42.67180133786197" lon="11.816716451345696"><ele>517.0</ele><time>2026-04-18T07:19:41.999Z</time></trkpt><trkpt lat="42.67192525971127" lon="11.816703902074506"><ele>516.6666666666667</ele><time>2026-04-18T07:19:42.999Z</time></trkpt><trkpt lat="42.672037245202176" lon="11.816688509994918"><ele>516.3333333333334</ele><time>2026-04-18T07:19:43.999Z</time></trkpt><trkpt lat="42.67212996637936" lon="11.816677038971303"><ele>516.0</ele><time>2026-04-18T07:19:44.999Z</time></trkpt><trkpt lat="42.67220853054571" lon="11.816665829379618"><ele>515.6666666666666</ele><time>2026-04-18T07:19:45.999Z</time></trkpt><trkpt lat="42.672282001115434" lon="11.81665650935158"><ele>515.3333333333333</ele><time>2026-04-18T07:19:46.999Z</time></trkpt><trkpt lat="42.67234910644111" lon="11.81664483056075"><ele>515.0</ele><time>2026-04-18T07:19:47.999Z</time></trkpt><trkpt lat="42.67245998317676" lon="11.81662569842131"><ele>515.0</ele><time>2026-04-18T07:19:49.999Z</time></trkpt><trkpt lat="42.67245036534476" lon="11.816452875713226"><ele>515.0</ele><time>2026-04-18T07:19:53.999Z</time></trkpt><trkpt lat="42.672365769756254" lon="11.816465254553343"><ele>515.0</ele><time>2026-04-18T07:19:54.999Z</time></trkpt><trkpt lat="42.6722566436399" lon="11.81645154428716"><ele>515.0</ele><time>2026-04-18T07:19:56.999Z</time></trkpt><trkpt lat="42.67218905742175" lon="11.816416830912722"><ele>515.0</ele><time>2026-04-18T07:19:57.999Z</time></trkpt><trkpt lat="42.672126395118376" lon="11.816361941263263"><ele>515.0</ele><time>2026-04-18T07:19:58.999Z</time></trkpt><trkpt lat="42.67207604875114" lon="11.816303797096058"><ele>515.0</ele><time>2026-04-18T07:19:59.999Z</time></trkpt><trkpt lat="42.67201141014532" lon="11.816257030248478"><ele>515.0</ele><time>2026-04-18T07:20:00.999Z</time></trkpt><trkpt lat="42.671970612671224" lon="11.81617696027564"><ele>515.0</ele><time>2026-04-18T07:20:01.999Z</time></trkpt><trkpt lat="42.67191891507846" lon="11.816102741052218"><ele>515.0</ele><time>2026-04-18T07:20:03Z</time></trkpt><trkpt lat="42.67188900214926" lon="11.816007174739555"><ele>515.0</ele><time>2026-04-18T07:20:04Z</time></trkpt><trkpt lat="42.671880499694026" lon="11.815908326219416"><ele>515.0</ele><time>2026-04-18T07:20:05Z</time></trkpt><trkpt lat="42.671859261858486" lon="11.815787309700262"><ele>513.6666666666666</ele><time>2026-04-18T07:20:06Z</time></trkpt><trkpt lat="42.67184040254197" lon="11.81565502624998"><ele>512.3333333333333</ele><time>2026-04-18T07:20:07Z</time></trkpt><trkpt lat="42.67182415105539" lon="11.815530325915931"><ele>511.0</ele><time>2026-04-18T07:20:08Z</time></trkpt><trkpt lat="42.67180922225134" lon="11.815414299746863"><ele>509.66666666666663</ele><time>2026-04-18T07:20:09Z</time></trkpt><trkpt lat="42.671800039499765" lon="11.815309454314601"><ele>508.3333333333333</ele><time>2026-04-18T07:20:10Z</time></trkpt><trkpt lat="42.671805179907864" lon="11.81521083499777"><ele>507.0</ele><time>2026-04-18T07:20:11Z</time></trkpt><trkpt lat="42.67186318568857" lon="11.815094681375605"><ele>507.0</ele><time>2026-04-18T07:20:13Z</time></trkpt><trkpt lat="42.67193142839864" lon="11.815065802514814"><ele>507.00000000000006</ele><time>2026-04-18T07:20:14Z</time></trkpt><trkpt lat="42.672019407353595" lon="11.815036063192547"><ele>507.00000000000006</ele><time>2026-04-18T07:20:15Z</time></trkpt><trkpt lat="42.672151440251696" lon="11.815019911085274"><ele>507.0</ele><time>2026-04-18T07:20:16Z</time></trkpt><trkpt lat="42.67229623988748" lon="11.814976487615262"><ele>507.0</ele><time>2026-04-18T07:20:17Z</time></trkpt><trkpt lat="42.672413719039305" lon="11.814927955091322"><ele>506.8</ele><time>2026-04-18T07:20:18Z</time></trkpt><trkpt lat="42.672518458268875" lon="11.814855023043176"><ele>506.6</ele><time>2026-04-18T07:20:19Z</time></trkpt><trkpt lat="42.672626356394076" lon="11.814745825343826"><ele>506.40000000000003</ele><time>2026-04-18T07:20:20Z</time></trkpt><trkpt lat="42.67269406153095" lon="11.814644104055583"><ele>506.20000000000005</ele><time>2026-04-18T07:20:21Z</time></trkpt><trkpt lat="42.67273356660599" lon="11.81453798728998"><ele>506.0</ele><time>2026-04-18T07:20:22Z</time></trkpt><trkpt lat="42.672766534286374" lon="11.814436019984157"><ele>506.0</ele><time>2026-04-18T07:20:23Z</time></trkpt><trkpt lat="42.67276040275346" lon="11.814334732518173"><ele>506.0</ele><time>2026-04-18T07:20:24Z</time></trkpt><trkpt lat="42.67270827488291" lon="11.814201921911996"><ele>506.0</ele><time>2026-04-18T07:20:25Z</time></trkpt><trkpt lat="42.67258064109564" lon="11.814104330598038"><ele>506.0</ele><time>2026-04-18T07:20:26Z</time></trkpt><trkpt lat="42.6725142796704" lon="11.813975648008283"><ele>506.0</ele><time>2026-04-18T07:20:27Z</time></trkpt><trkpt lat="42.67247318752591" lon="11.813853315477806"><ele>505.49999999999994</ele><time>2026-04-18T07:20:28Z</time></trkpt><trkpt lat="42.67245115314566" lon="11.813731545840643"><ele>505.0</ele><time>2026-04-18T07:20:29Z</time></trkpt><trkpt lat="42.67245726544004" lon="11.813615153432561"><ele>504.5</ele><time>2026-04-18T07:20:30Z</time></trkpt><trkpt lat="42.67245109850288" lon="11.813505932342029"><ele>504.0</ele><time>2026-04-18T07:20:31Z</time></trkpt><trkpt lat="42.67243375540474" lon="11.813413048088904"><ele>503.49999999999994</ele><time>2026-04-18T07:20:32Z</time></trkpt><trkpt lat="42.672410282768524" lon="11.813311494073485"><ele>503.0</ele><time>2026-04-18T07:20:33Z</time></trkpt><trkpt lat="42.67231001287419" lon="11.813221852335975"><ele>503.0</ele><time>2026-04-18T07:20:34Z</time></trkpt><trkpt lat="42.67219901171875" lon="11.813129679992374"><ele>503.0</ele><time>2026-04-18T07:20:35Z</time></trkpt><trkpt lat="42.67207399664581" lon="11.813086189529171"><ele>503.0</ele><time>2026-04-18T07:20:36Z</time></trkpt><trkpt lat="42.67195251110088" lon="11.813069333540037"><ele>503.0</ele><time>2026-04-18T07:20:37Z</time></trkpt><trkpt lat="42.67183481694044" lon="11.813052315097819"><ele>503.66666666666663</ele><time>2026-04-18T07:20:38Z</time></trkpt><trkpt lat="42.6717343522767" lon="11.81303838861433"><ele>504.3333333333333</ele><time>2026-04-18T07:20:39Z</time></trkpt><trkpt lat="42.67164545939151" lon="11.813022677595978"><ele>505.0</ele><time>2026-04-18T07:20:40Z</time></trkpt><trkpt lat="42.67157284865768" lon="11.813000782228347"><ele>505.66666666666663</ele><time>2026-04-18T07:20:41Z</time></trkpt><trkpt lat="42.67148906842166" lon="11.812919076012689"><ele>506.3333333333333</ele><time>2026-04-18T07:20:43Z</time></trkpt><trkpt lat="42.67145848270449" lon="11.81284029347512"><ele>507.0</ele><time>2026-04-18T07:20:44Z</time></trkpt><trkpt lat="42.67144384303932" lon="11.812732574373637"><ele>505.40000000000003</ele><time>2026-04-18T07:20:44.999Z</time></trkpt><trkpt lat="42.67143356439285" lon="11.81260543340275"><ele>503.80000000000007</ele><time>2026-04-18T07:20:45.999Z</time></trkpt><trkpt lat="42.67141763850839" lon="11.812486403833029"><ele>502.2</ele><time>2026-04-18T07:20:46.999Z</time></trkpt><trkpt lat="42.67133839693795" lon="11.812385422375081"><ele>500.6</ele><time>2026-04-18T07:20:47.999Z</time></trkpt><trkpt lat="42.671271829998574" lon="11.812259233001855"><ele>499.0</ele><time>2026-04-18T07:20:48.999Z</time></trkpt><trkpt lat="42.6712562577826" lon="11.812144854242383"><ele>499.00000000000006</ele><time>2026-04-18T07:20:49.999Z</time></trkpt><trkpt lat="42.671242016431044" lon="11.812048582632961"><ele>499.0</ele><time>2026-04-18T07:20:50.999Z</time></trkpt><trkpt lat="42.67124267157936" lon="11.811940858716465"><ele>499.0</ele><time>2026-04-18T07:20:51.999Z</time></trkpt><trkpt lat="42.67123460756232" lon="11.811829254942191"><ele>499.0</ele><time>2026-04-18T07:20:52.999Z</time></trkpt><trkpt lat="42.671206244158185" lon="11.811722779660888"><ele>499.00000000000006</ele><time>2026-04-18T07:20:53.999Z</time></trkpt><trkpt lat="42.67114665128797" lon="11.811648532640264"><ele>499.0</ele><time>2026-04-18T07:20:54.999Z</time></trkpt><trkpt lat="42.67105430542829" lon="11.81162604228285"><ele>500.79999999999995</ele><time>2026-04-18T07:20:55.999Z</time></trkpt><trkpt lat="42.67096222272311" lon="11.811597583401593"><ele>502.59999999999997</ele><time>2026-04-18T07:20:56.999Z</time></trkpt><trkpt lat="42.67086976667798" lon="11.811546439659388"><ele>504.4</ele><time>2026-04-18T07:20:57.999Z</time></trkpt><trkpt lat="42.67077428667815" lon="11.8114985769478"><ele>506.2</ele><time>2026-04-18T07:20:58.999Z</time></trkpt><trkpt lat="42.67069909853906" lon="11.81144476467839"><ele>508.0</ele><time>2026-04-18T07:20:59.999Z</time></trkpt><trkpt lat="42.67063826420124" lon="11.811382975759708"><ele>508.00000000000006</ele><time>2026-04-18T07:21:00.999Z</time></trkpt><trkpt lat="42.67059647230283" lon="11.811316177670083"><ele>508.0</ele><time>2026-04-18T07:21:01.999Z</time></trkpt><trkpt lat="42.670566647800136" lon="11.811214404811198"><ele>508.0</ele><time>2026-04-18T07:21:03.999Z</time></trkpt><trkpt lat="42.67060971273072" lon="11.81111708086291"><ele>508.0</ele><time>2026-04-18T07:21:05.999Z</time></trkpt><trkpt lat="42.670667756299295" lon="11.811066163823021"><ele>508.00000000000006</ele><time>2026-04-18T07:21:06.999Z</time></trkpt><trkpt lat="42.67076127487112" lon="11.810975137286539"><ele>508.0</ele><time>2026-04-18T07:21:07.999Z</time></trkpt><trkpt lat="42.670856484023254" lon="11.810929633548941"><ele>507.50000000000006</ele><time>2026-04-18T07:21:08.999Z</time></trkpt><trkpt lat="42.67091894523742" lon="11.81089275013104"><ele>507.0</ele><time>2026-04-18T07:21:09.999Z</time></trkpt><trkpt lat="42.67097206563742" lon="11.810845685543786"><ele>506.5</ele><time>2026-04-18T07:21:10.999Z</time></trkpt><trkpt lat="42.671011000787594" lon="11.810731130318329"><ele>506.0</ele><time>2026-04-18T07:21:12.999Z</time></trkpt><trkpt lat="42.67097670679816" lon="11.810625887694254"><ele>505.50000000000006</ele><time>2026-04-18T07:21:13.999Z</time></trkpt><trkpt lat="42.67086698806049" lon="11.810572619677904"><ele>505.0</ele><time>2026-04-18T07:21:14.999Z</time></trkpt><trkpt lat="42.67073626045214" lon="11.810628941490362"><ele>505.0</ele><time>2026-04-18T07:21:15.999Z</time></trkpt><trkpt lat="42.67062893453175" lon="11.810708128776986"><ele>505.0</ele><time>2026-04-18T07:21:16.999Z</time></trkpt><trkpt lat="42.67053498840786" lon="11.810741931951043"><ele>505.0</ele><time>2026-04-18T07:21:17.999Z</time></trkpt><trkpt lat="42.67044651642555" lon="11.810738757904108"><ele>505.0</ele><time>2026-04-18T07:21:18.999Z</time></trkpt><trkpt lat="42.67034777790901" lon="11.810714046262394"><ele>505.0</ele><time>2026-04-18T07:21:19.999Z</time></trkpt><trkpt lat="42.670270542854276" lon="11.810685569791795"><ele>503.8</ele><time>2026-04-18T07:21:20.999Z</time></trkpt><trkpt lat="42.670199003215195" lon="11.810602301389356"><ele>502.6</ele><time>2026-04-18T07:21:22.999Z</time></trkpt><trkpt lat="42.67015064963144" lon="11.810496074922968"><ele>501.4</ele><time>2026-04-18T07:21:23.999Z</time></trkpt><trkpt lat="42.67009773352855" lon="11.810364031055169"><ele>500.2</ele><time>2026-04-18T07:21:24.999Z</time></trkpt><trkpt lat="42.67007957236018" lon="11.8102239340764"><ele>499.0</ele><time>2026-04-18T07:21:25.999Z</time></trkpt><trkpt lat="42.670084990363264" lon="11.810104804169159"><ele>496.79999999999995</ele><time>2026-04-18T07:21:26.999Z</time></trkpt><trkpt lat="42.67007435965804" lon="11.809984689100466"><ele>494.59999999999997</ele><time>2026-04-18T07:21:27.999Z</time></trkpt><trkpt lat="42.67012015747946" lon="11.809848516426577"><ele>492.4</ele><time>2026-04-18T07:21:28.999Z</time></trkpt><trkpt lat="42.67015212667704" lon="11.80973456621946"><ele>490.2</ele><time>2026-04-18T07:21:29.999Z</time></trkpt><trkpt lat="42.67019643190667" lon="11.809605966235331"><ele>488.0</ele><time>2026-04-18T07:21:30.999Z</time></trkpt><trkpt lat="42.67023882903665" lon="11.809467274068014"><ele>489.0</ele><time>2026-04-18T07:21:31.999Z</time></trkpt><trkpt lat="42.67029738054004" lon="11.809369117695091"><ele>489.99999999999994</ele><time>2026-04-18T07:21:32.999Z</time></trkpt><trkpt lat="42.670377351682475" lon="11.809301012494403"><ele>490.99999999999994</ele><time>2026-04-18T07:21:33.999Z</time></trkpt><trkpt lat="42.67047843558927" lon="11.809227188428183"><ele>492.0</ele><time>2026-04-18T07:21:34.999Z</time></trkpt><trkpt lat="42.67059694937176" lon="11.809144728660211"><ele>493.0</ele><time>2026-04-18T07:21:35.999Z</time></trkpt><trkpt lat="42.6707368824921" lon="11.809013031644225"><ele>493.0</ele><time>2026-04-18T07:21:36.999Z</time></trkpt><trkpt lat="42.670887381808505" lon="11.808883237738218"><ele>493.0</ele><time>2026-04-18T07:21:37.999Z</time></trkpt><trkpt lat="42.67102276181011" lon="11.808748494670395"><ele>493.0</ele><time>2026-04-18T07:21:38.999Z</time></trkpt><trkpt lat="42.67113837645657" lon="11.808658608804121"><ele>491.59999999999997</ele><time>2026-04-18T07:21:39.999Z</time></trkpt><trkpt lat="42.67122835775258" lon="11.808572004631253"><ele>490.19999999999993</ele><time>2026-04-18T07:21:40.999Z</time></trkpt><trkpt lat="42.67129522188107" lon="11.808456886949696"><ele>488.8</ele><time>2026-04-18T07:21:41.998Z</time></trkpt><trkpt lat="42.67137353135353" lon="11.8083628240224"><ele>487.4</ele><time>2026-04-18T07:21:42.998Z</time></trkpt><trkpt lat="42.671457654653935" lon="11.808286468100002"><ele>486.0</ele><time>2026-04-18T07:21:43.998Z</time></trkpt><trkpt lat="42.67156043679752" lon="11.808215504415744"><ele>486.0</ele><time>2026-04-18T07:21:44.998Z</time></trkpt><trkpt lat="42.6716600308817" lon="11.80815805778841"><ele>486.0</ele><time>2026-04-18T07:21:45.998Z</time></trkpt><trkpt lat="42.671746925125674" lon="11.808109908258773"><ele>486.0</ele><time>2026-04-18T07:21:46.998Z</time></trkpt><trkpt lat="42.67183348265915" lon="11.808088071770872"><ele>486.0</ele><time>2026-04-18T07:21:47.998Z</time></trkpt><trkpt lat="42.67191439141321" lon="11.80806235621829"><ele>486.0</ele><time>2026-04-18T07:21:48.998Z</time></trkpt><trkpt lat="42.67198505935085" lon="11.808000399754416"><ele>485.8</ele><time>2026-04-18T07:21:49.998Z</time></trkpt><trkpt lat="42.67203366649256" lon="11.807906651832738"><ele>485.6</ele><time>2026-04-18T07:21:50.998Z</time></trkpt><trkpt lat="42.67206175598138" lon="11.807794403180006"><ele>485.4</ele><time>2026-04-18T07:21:51.998Z</time></trkpt><trkpt lat="42.672057083209005" lon="11.80765856516088"><ele>485.2</ele><time>2026-04-18T07:21:52.998Z</time></trkpt><trkpt lat="42.67202613447096" lon="11.80749526338536"><ele>485.0</ele><time>2026-04-18T07:21:53.998Z</time></trkpt><trkpt lat="42.67202273426707" lon="11.807321012908668"><ele>484.75</ele><time>2026-04-18T07:21:54.998Z</time></trkpt><trkpt lat="42.67198087672583" lon="11.807134924366519"><ele>484.5</ele><time>2026-04-18T07:21:55.998Z</time></trkpt><trkpt lat="42.6719192300018" lon="11.806959967503857"><ele>484.25</ele><time>2026-04-18T07:21:56.998Z</time></trkpt><trkpt lat="42.6718896691511" lon="11.806754566251987"><ele>484.0</ele><time>2026-04-18T07:21:57.998Z</time></trkpt><trkpt lat="42.6718557362589" lon="11.806580403042089"><ele>484.0</ele><time>2026-04-18T07:21:58.998Z</time></trkpt><trkpt lat="42.67181774097969" lon="11.806453488781756"><ele>484.0</ele><time>2026-04-18T07:21:59.998Z</time></trkpt><trkpt lat="42.67179423883215" lon="11.806297344150808"><ele>484.0</ele><time>2026-04-18T07:22:00.998Z</time></trkpt><trkpt lat="42.671713413223074" lon="11.80612957419965"><ele>484.0</ele><time>2026-04-18T07:22:01.998Z</time></trkpt><trkpt lat="42.671614271973844" lon="11.805995794458335"><ele>487.0</ele><time>2026-04-18T07:22:02.998Z</time></trkpt><trkpt lat="42.67155740377666" lon="11.805852740084903"><ele>490.0</ele><time>2026-04-18T07:22:03.998Z</time></trkpt><trkpt lat="42.67150985330521" lon="11.805701436273083"><ele>493.0</ele><time>2026-04-18T07:22:04.998Z</time></trkpt><trkpt lat="42.671447032223746" lon="11.805556402540127"><ele>496.0</ele><time>2026-04-18T07:22:05.998Z</time></trkpt><trkpt lat="42.671387400457824" lon="11.80542532041722"><ele>496.0</ele><time>2026-04-18T07:22:06.998Z</time></trkpt><trkpt lat="42.671342458212116" lon="11.805309950121451"><ele>496.0</ele><time>2026-04-18T07:22:07.998Z</time></trkpt><trkpt lat="42.67131168856643" lon="11.805192684874319"><ele>496.0</ele><time>2026-04-18T07:22:09Z</time></trkpt><trkpt lat="42.67128616582056" lon="11.80507876307696"><ele>496.0</ele><time>2026-04-18T07:22:10Z</time></trkpt><trkpt lat="42.671347351204645" lon="11.80496606610341"><ele>496.0</ele><time>2026-04-18T07:22:12Z</time></trkpt><trkpt lat="42.671377842951244" lon="11.804862403409132"><ele>497.0</ele><time>2026-04-18T07:22:13Z</time></trkpt><trkpt lat="42.6714255583545" lon="11.804723036761295"><ele>498.0</ele><time>2026-04-18T07:22:14Z</time></trkpt><trkpt lat="42.6714776104725" lon="11.804591842128572"><ele>499.0</ele><time>2026-04-18T07:22:15Z</time></trkpt><trkpt lat="42.67152351236536" lon="11.80450471830968"><ele>500.0</ele><time>2026-04-18T07:22:16Z</time></trkpt><trkpt lat="42.671598098556764" lon="11.804403762358683"><ele>501.0</ele><time>2026-04-18T07:22:19Z</time></trkpt><trkpt lat="42.671654392632774" lon="11.804344237558611"><ele>502.25</ele><time>2026-04-18T07:22:20Z</time></trkpt><trkpt lat="42.671775217660254" lon="11.804265301329037"><ele>503.5</ele><time>2026-04-18T07:22:22Z</time></trkpt><trkpt lat="42.6718575228877" lon="11.804255549035137"><ele>504.75</ele><time>2026-04-18T07:22:23Z</time></trkpt><trkpt lat="42.671977903080574" lon="11.804296458244787"><ele>506.0</ele><time>2026-04-18T07:22:24Z</time></trkpt><trkpt lat="42.67210307726043" lon="11.804276239666466"><ele>506.8</ele><time>2026-04-18T07:22:25Z</time></trkpt><trkpt lat="42.672237213828936" lon="11.804211534770339"><ele>507.6</ele><time>2026-04-18T07:22:26Z</time></trkpt><trkpt lat="42.672346410758344" lon="11.804173404545084"><ele>508.4</ele><time>2026-04-18T07:22:27Z</time></trkpt><trkpt lat="42.672425145889996" lon="11.804155222038505"><ele>509.2</ele><time>2026-04-18T07:22:28Z</time></trkpt><trkpt lat="42.672527982962514" lon="11.804120511115011"><ele>510.0</ele><time>2026-04-18T07:22:30Z</time></trkpt><trkpt lat="42.67259927215263" lon="11.804076271017191"><ele>510.0</ele><time>2026-04-18T07:22:32Z</time></trkpt><trkpt lat="42.67269214811748" lon="11.80418511058461"><ele>510.0</ele><time>2026-04-18T07:22:34Z</time></trkpt><trkpt lat="42.67279922890226" lon="11.804288935996427"><ele>510.0</ele><time>2026-04-18T07:22:36Z</time></trkpt><trkpt lat="42.67285399697491" lon="11.804357519715156"><ele>510.0</ele><time>2026-04-18T07:22:37Z</time></trkpt><trkpt lat="42.67290088174125" lon="11.804417412292727"><ele>510.0</ele><time>2026-04-18T07:22:38Z</time></trkpt><trkpt lat="42.672956927229805" lon="11.804490253147836"><ele>510.2</ele><time>2026-04-18T07:22:39Z</time></trkpt><trkpt lat="42.673000373526655" lon="11.804578462819928"><ele>510.4</ele><time>2026-04-18T07:22:40Z</time></trkpt><trkpt lat="42.67306418898483" lon="11.80463687830045"><ele>510.6</ele><time>2026-04-18T07:22:42Z</time></trkpt><trkpt lat="42.6731129615758" lon="11.804721003329508"><ele>510.8</ele><time>2026-04-18T07:23:35.999Z</time></trkpt><trkpt lat="42.67318340308881" lon="11.804830704685545"><ele>511.0</ele><time>2026-04-18T07:23:36.999Z</time></trkpt><trkpt lat="42.67326976246306" lon="11.804955534732029"><ele>511.0</ele><time>2026-04-18T07:23:37.999Z</time></trkpt><trkpt lat="42.67335704166977" lon="11.80508295032445"><ele>511.0</ele><time>2026-04-18T07:23:38.999Z</time></trkpt><trkpt lat="42.673433297457635" lon="11.80521760017725"><ele>511.0</ele><time>2026-04-18T07:23:39.999Z</time></trkpt><trkpt lat="42.673510975101735" lon="11.805342889041656"><ele>511.0</ele><time>2026-04-18T07:23:40.999Z</time></trkpt><trkpt lat="42.67357441767865" lon="11.805482790736617"><ele>510.75</ele><time>2026-04-18T07:23:41.999Z</time></trkpt><trkpt lat="42.67364406314787" lon="11.805603368859108"><ele>510.5</ele><time>2026-04-18T07:23:42.999Z</time></trkpt><trkpt lat="42.673738128524306" lon="11.805728591123321"><ele>510.25</ele><time>2026-04-18T07:23:43.999Z</time></trkpt><trkpt lat="42.6738482441508" lon="11.805837118450373"><ele>510.0</ele><time>2026-04-18T07:23:44.999Z</time></trkpt><trkpt lat="42.67396268042727" lon="11.80593079148676"><ele>510.0</ele><time>2026-04-18T07:23:45.999Z</time></trkpt><trkpt lat="42.67407847018113" lon="11.805982568596427"><ele>510.0</ele><time>2026-04-18T07:23:46.999Z</time></trkpt><trkpt lat="42.67420594186635" lon="11.806003771422347"><ele>510.0</ele><time>2026-04-18T07:23:47.999Z</time></trkpt><trkpt lat="42.67437033742532" lon="11.806025006052685"><ele>510.0</ele><time>2026-04-18T07:23:48.999Z</time></trkpt><trkpt lat="42.67453495881622" lon="11.806038757630068"><ele>511.66666666666663</ele><time>2026-04-18T07:23:49.999Z</time></trkpt><trkpt lat="42.67468963751794" lon="11.806069818418806"><ele>513.3333333333333</ele><time>2026-04-18T07:23:50.999Z</time></trkpt><trkpt lat="42.67485335271824" lon="11.806081990363388"><ele>515.0</ele><time>2026-04-18T07:23:51.999Z</time></trkpt><trkpt lat="42.67502328034446" lon="11.806077690537121"><ele>515.0</ele><time>2026-04-18T07:23:52.999Z</time></trkpt><trkpt lat="42.67516603736178" lon="11.806105251742382"><ele>515.0</ele><time>2026-04-18T07:23:53.999Z</time></trkpt><trkpt lat="42.6753088622051" lon="11.806130815867553"><ele>515.0</ele><time>2026-04-18T07:23:54.999Z</time></trkpt><trkpt lat="42.67544402011258" lon="11.806175256411667"><ele>515.0</ele><time>2026-04-18T07:23:55.999Z</time></trkpt><trkpt lat="42.67558623715863" lon="11.806204519213663"><ele>514.25</ele><time>2026-04-18T07:23:56.999Z</time></trkpt><trkpt lat="42.67572927438008" lon="11.806232151492349"><ele>513.5</ele><time>2026-04-18T07:23:57.999Z</time></trkpt><trkpt lat="42.67587445638251" lon="11.80627528342807"><ele>512.75</ele><time>2026-04-18T07:23:58.999Z</time></trkpt><trkpt lat="42.67601183679024" lon="11.806343962429263"><ele>512.0</ele><time>2026-04-18T07:23:59.999Z</time></trkpt><trkpt lat="42.676156065176116" lon="11.806404225724457"><ele>511.75</ele><time>2026-04-18T07:24:00.999Z</time></trkpt><trkpt lat="42.67630398507642" lon="11.806487722875525"><ele>511.5</ele><time>2026-04-18T07:24:01.998Z</time></trkpt><trkpt lat="42.676440904584915" lon="11.806587559299052"><ele>511.25</ele><time>2026-04-18T07:24:02.998Z</time></trkpt><trkpt lat="42.67656407665743" lon="11.806658133088753"><ele>511.0</ele><time>2026-04-18T07:24:03.998Z</time></trkpt><trkpt lat="42.67667786716553" lon="11.806719634073033"><ele>511.0</ele><time>2026-04-18T07:24:04.998Z</time></trkpt><trkpt lat="42.67679560263423" lon="11.806778170656802"><ele>511.0</ele><time>2026-04-18T07:24:05.998Z</time></trkpt><trkpt lat="42.67692822546063" lon="11.806808992977064"><ele>511.0</ele><time>2026-04-18T07:24:06.998Z</time></trkpt><trkpt lat="42.67706823396499" lon="11.806841728491547"><ele>511.0</ele><time>2026-04-18T07:24:07.998Z</time></trkpt><trkpt lat="42.6772223806173" lon="11.806850893067697"><ele>510.0</ele><time>2026-04-18T07:24:08.998Z</time></trkpt><trkpt lat="42.67735521178972" lon="11.80686398230912"><ele>509.0</ele><time>2026-04-18T07:24:09.998Z</time></trkpt><trkpt lat="42.67746481970998" lon="11.806860771233833"><ele>508.0</ele><time>2026-04-18T07:24:10.998Z</time></trkpt><trkpt lat="42.67757013495805" lon="11.806857685925792"><ele>507.0</ele><time>2026-04-18T07:24:11.998Z</time></trkpt><trkpt lat="42.677667582511546" lon="11.806868194283526"><ele>506.0</ele><time>2026-04-18T07:24:12.998Z</time></trkpt><trkpt lat="42.677751179973974" lon="11.806865675139603"><ele>505.99999999999994</ele><time>2026-04-18T07:24:14Z</time></trkpt><trkpt lat="42.67782424805981" lon="11.80690423326581"><ele>506.0</ele><time>2026-04-18T07:24:15Z</time></trkpt><trkpt lat="42.67793007303372" lon="11.806938204429125"><ele>506.0</ele><time>2026-04-18T07:24:17Z</time></trkpt><trkpt lat="42.677997784352925" lon="11.806951550074256"><ele>506.0</ele><time>2026-04-18T07:24:20Z</time></trkpt><trkpt lat="42.6779984209528" lon="11.806824280073972"><ele>505.99999999999994</ele><time>2026-04-18T07:24:21Z</time></trkpt><trkpt lat="42.6779943887211" lon="11.806723200568733"><ele>506.0</ele><time>2026-04-18T07:24:22Z</time></trkpt><trkpt lat="42.6780040466076" lon="11.806577838626891"><ele>506.0</ele><time>2026-04-18T07:24:23Z</time></trkpt><trkpt lat="42.67800580921201" lon="11.806419163245264"><ele>506.0</ele><time>2026-04-18T07:24:24Z</time></trkpt><trkpt lat="42.67801370077348" lon="11.806279149666501"><ele>506.0</ele><time>2026-04-18T07:24:25Z</time></trkpt><trkpt lat="42.67802272785923" lon="11.806132630207749"><ele>506.0</ele><time>2026-04-18T07:24:26Z</time></trkpt><trkpt lat="42.678009371966276" lon="11.805998121659034"><ele>506.0</ele><time>2026-04-18T07:24:27Z</time></trkpt><trkpt lat="42.677986046365824" lon="11.805825149326282"><ele>505.5</ele><time>2026-04-18T07:24:28Z</time></trkpt><trkpt lat="42.677938910946814" lon="11.80562419842332"><ele>505.0</ele><time>2026-04-18T07:24:29Z</time></trkpt><trkpt lat="42.67792955958625" lon="11.805415573735598"><ele>504.5</ele><time>2026-04-18T07:24:30Z</time></trkpt><trkpt lat="42.67792263268303" lon="11.80524825577588"><ele>504.0</ele><time>2026-04-18T07:24:31Z</time></trkpt><trkpt lat="42.677920024975215" lon="11.805097908317514"><ele>504.0</ele><time>2026-04-18T07:24:32Z</time></trkpt><trkpt lat="42.677907822595664" lon="11.80492078588743"><ele>504.0</ele><time>2026-04-18T07:24:33Z</time></trkpt><trkpt lat="42.67788439649023" lon="11.804709400596003"><ele>504.0</ele><time>2026-04-18T07:24:34Z</time></trkpt><trkpt lat="42.67784868544311" lon="11.804473184266417"><ele>505.0</ele><time>2026-04-18T07:24:35Z</time></trkpt><trkpt lat="42.677805781004444" lon="11.804275611806975"><ele>506.0</ele><time>2026-04-18T07:24:36Z</time></trkpt><trkpt lat="42.677767285018255" lon="11.804101892002384"><ele>507.0</ele><time>2026-04-18T07:24:37Z</time></trkpt><trkpt lat="42.67772292108572" lon="11.803956045340737"><ele>508.0</ele><time>2026-04-18T07:24:38Z</time></trkpt><trkpt lat="42.67774038166397" lon="11.803817682639437"><ele>508.25</ele><time>2026-04-18T07:24:39Z</time></trkpt><trkpt lat="42.67777199954698" lon="11.803684494080663"><ele>508.5</ele><time>2026-04-18T07:24:40Z</time></trkpt><trkpt lat="42.67784755219049" lon="11.803581509077905"><ele>508.75</ele><time>2026-04-18T07:24:41Z</time></trkpt><trkpt lat="42.67794068177976" lon="11.803475765865747"><ele>509.0</ele><time>2026-04-18T07:24:42Z</time></trkpt><trkpt lat="42.67804932156563" lon="11.803345176326662"><ele>508.3333333333333</ele><time>2026-04-18T07:24:43Z</time></trkpt><trkpt lat="42.6781756483348" lon="11.803190503090146"><ele>507.66666666666663</ele><time>2026-04-18T07:24:44Z</time></trkpt><trkpt lat="42.67833814234122" lon="11.803056715722137"><ele>507.0</ele><time>2026-04-18T07:24:45Z</time></trkpt><trkpt lat="42.678501399704544" lon="11.802926731509077"><ele>506.0</ele><time>2026-04-18T07:24:46Z</time></trkpt><trkpt lat="42.67865962218609" lon="11.8028044750019"><ele>505.0</ele><time>2026-04-18T07:24:47Z</time></trkpt><trkpt lat="42.67882302190215" lon="11.802685011358891"><ele>504.0</ele><time>2026-04-18T07:24:48Z</time></trkpt><trkpt lat="42.678977108697836" lon="11.80257443730306"><ele>503.33333333333337</ele><time>2026-04-18T07:24:49Z</time></trkpt><trkpt lat="42.67913130099003" lon="11.80246378769934"><ele>502.6666666666667</ele><time>2026-04-18T07:24:50Z</time></trkpt><trkpt lat="42.67927617080052" lon="11.802358502555128"><ele>502.0</ele><time>2026-04-18T07:24:51Z</time></trkpt><trkpt lat="42.67939413233118" lon="11.80224511730363"><ele>501.33333333333337</ele><time>2026-04-18T07:24:52Z</time></trkpt><trkpt lat="42.67954610666561" lon="11.802135617768863"><ele>500.66666666666663</ele><time>2026-04-18T07:24:53Z</time></trkpt><trkpt lat="42.67971032436483" lon="11.802057088803219"><ele>500.0</ele><time>2026-04-18T07:24:54Z</time></trkpt><trkpt lat="42.679865975578885" lon="11.801984362612911"><ele>500.0</ele><time>2026-04-18T07:24:55Z</time></trkpt><trkpt lat="42.68001515533427" lon="11.80193291065387"><ele>500.0</ele><time>2026-04-18T07:24:56Z</time></trkpt><trkpt lat="42.68016334568048" lon="11.801875354710575"><ele>500.0</ele><time>2026-04-18T07:24:57Z</time></trkpt><trkpt lat="42.68032888882261" lon="11.801777353738279"><ele>499.3333333333333</ele><time>2026-04-18T07:24:58Z</time></trkpt><trkpt lat="42.68049511537656" lon="11.801650709366967"><ele>498.66666666666663</ele><time>2026-04-18T07:24:59Z</time></trkpt><trkpt lat="42.68064462718375" lon="11.801553451003302"><ele>498.0</ele><time>2026-04-18T07:25:00Z</time></trkpt><trkpt lat="42.68077392776184" lon="11.801474346606305"><ele>498.0</ele><time>2026-04-18T07:25:01Z</time></trkpt><trkpt lat="42.680895168842504" lon="11.80140090501727"><ele>497.99999999999994</ele><time>2026-04-18T07:25:02Z</time></trkpt><trkpt lat="42.68099886950045" lon="11.801334578511167"><ele>497.99999999999994</ele><time>2026-04-18T07:25:03Z</time></trkpt><trkpt lat="42.681085088472585" lon="11.801271035277052"><ele>498.0</ele><time>2026-04-18T07:25:04Z</time></trkpt><trkpt lat="42.68115214698043" lon="11.801201889991427"><ele>498.0</ele><time>2026-04-18T07:25:05Z</time></trkpt><trkpt lat="42.68120937401111" lon="11.8011281489445"><ele>498.0</ele><time>2026-04-18T07:25:06Z</time></trkpt><trkpt lat="42.68125016221929" lon="11.801015309151305"><ele>498.0</ele><time>2026-04-18T07:25:06.999Z</time></trkpt><trkpt lat="42.68126076895017" lon="11.800869930951135"><ele>498.0</ele><time>2026-04-18T07:25:07.999Z</time></trkpt><trkpt lat="42.681273975119595" lon="11.800681330467421"><ele>498.0</ele><time>2026-04-18T07:25:08.999Z</time></trkpt><trkpt lat="42.68127825856131" lon="11.800490503444156"><ele>498.0</ele><time>2026-04-18T07:25:09.999Z</time></trkpt><trkpt lat="42.68127364035664" lon="11.800340996909378"><ele>498.0</ele><time>2026-04-18T07:25:10.999Z</time></trkpt><trkpt lat="42.681242498176736" lon="11.800187572483114"><ele>498.0</ele><time>2026-04-18T07:25:11.999Z</time></trkpt><trkpt lat="42.681208306505866" lon="11.800026978466198"><ele>498.0</ele><time>2026-04-18T07:25:12.999Z</time></trkpt><trkpt lat="42.681143067321145" lon="11.799829950455248"><ele>498.33333333333337</ele><time>2026-04-18T07:25:13.999Z</time></trkpt><trkpt lat="42.68107927555985" lon="11.799593091645313"><ele>498.6666666666667</ele><time>2026-04-18T07:25:14.999Z</time></trkpt><trkpt lat="42.68100124692783" lon="11.799347615000956"><ele>499.0</ele><time>2026-04-18T07:25:15.999Z</time></trkpt><trkpt lat="42.680927917257875" lon="11.79912440801193"><ele>499.0</ele><time>2026-04-18T07:25:16.999Z</time></trkpt><trkpt lat="42.68084624437039" lon="11.798942343436192"><ele>499.0</ele><time>2026-04-18T07:25:17.999Z</time></trkpt><trkpt lat="42.680812188526325" lon="11.798759379156985"><ele>499.0</ele><time>2026-04-18T07:25:18.999Z</time></trkpt><trkpt lat="42.68077880071948" lon="11.798595215349"><ele>499.0</ele><time>2026-04-18T07:25:19.999Z</time></trkpt><trkpt lat="42.68075044523935" lon="11.798455308088544"><ele>499.0</ele><time>2026-04-18T07:25:20.999Z</time></trkpt><trkpt lat="42.68070000817125" lon="11.798301842438477"><ele>499.0</ele><time>2026-04-18T07:25:21.999Z</time></trkpt><trkpt lat="42.68065588308382" lon="11.798090286874002"><ele>499.0</ele><time>2026-04-18T07:25:22.999Z</time></trkpt><trkpt lat="42.68061001867537" lon="11.797879006574094"><ele>499.0</ele><time>2026-04-18T07:25:23.999Z</time></trkpt><trkpt lat="42.68056616843202" lon="11.797680256163869"><ele>498.75</ele><time>2026-04-18T07:25:24.999Z</time></trkpt><trkpt lat="42.68054086100477" lon="11.79748336724052"><ele>498.5</ele><time>2026-04-18T07:25:25.999Z</time></trkpt><trkpt lat="42.68049567441043" lon="11.797304740915552"><ele>498.25</ele><time>2026-04-18T07:25:26.999Z</time></trkpt><trkpt lat="42.68043544170054" lon="11.797127196624999"><ele>498.0</ele><time>2026-04-18T07:25:27.999Z</time></trkpt><trkpt lat="42.680362954262726" lon="11.796965734399935"><ele>497.0</ele><time>2026-04-18T07:25:28.999Z</time></trkpt><trkpt lat="42.68029129900466" lon="11.79681738715027"><ele>496.0</ele><time>2026-04-18T07:25:29.999Z</time></trkpt><trkpt lat="42.68021781072589" lon="11.796662599809627"><ele>495.0</ele><time>2026-04-18T07:25:30.999Z</time></trkpt><trkpt lat="42.68015399873093" lon="11.796503036167042"><ele>494.0</ele><time>2026-04-18T07:25:31.999Z</time></trkpt><trkpt lat="42.680102527614224" lon="11.796335710206828"><ele>493.25</ele><time>2026-04-18T07:25:32.999Z</time></trkpt><trkpt lat="42.68005327686479" lon="11.796155268518708"><ele>492.5</ele><time>2026-04-18T07:25:33.999Z</time></trkpt><trkpt lat="42.68001518384023" lon="11.795979782804668"><ele>491.75</ele><time>2026-04-18T07:25:34.999Z</time></trkpt><trkpt lat="42.67997681190219" lon="11.795844600916961"><ele>491.0</ele><time>2026-04-18T07:25:35.999Z</time></trkpt><trkpt lat="42.67992544612753" lon="11.795731679833025"><ele>490.4</ele><time>2026-04-18T07:25:36.999Z</time></trkpt><trkpt lat="42.67986924277708" lon="11.795637414518444"><ele>489.8</ele><time>2026-04-18T07:25:37.999Z</time></trkpt><trkpt lat="42.679781671780354" lon="11.795552346627815"><ele>489.19999999999993</ele><time>2026-04-18T07:25:38.999Z</time></trkpt><trkpt lat="42.67967061869212" lon="11.795488051525888"><ele>488.59999999999997</ele><time>2026-04-18T07:25:39.999Z</time></trkpt><trkpt lat="42.67954414613463" lon="11.795442633536915"><ele>488.0</ele><time>2026-04-18T07:25:40.999Z</time></trkpt><trkpt lat="42.67944372079448" lon="11.795358031959335"><ele>486.5</ele><time>2026-04-18T07:25:41.999Z</time></trkpt><trkpt lat="42.679349689889456" lon="11.795277960292745"><ele>485.0</ele><time>2026-04-18T07:25:42.999Z</time></trkpt><trkpt lat="42.67926266528738" lon="11.795179254948483"><ele>483.5</ele><time>2026-04-18T07:25:43.999Z</time></trkpt><trkpt lat="42.67917816986904" lon="11.795042165796238"><ele>482.0</ele><time>2026-04-18T07:25:44.999Z</time></trkpt><trkpt lat="42.67908330338794" lon="11.794856169840553"><ele>482.0</ele><time>2026-04-18T07:25:45.999Z</time></trkpt><trkpt lat="42.67897624139422" lon="11.794631683504567"><ele>482.0</ele><time>2026-04-18T07:25:46.999Z</time></trkpt><trkpt lat="42.6788617813142" lon="11.794429646082982"><ele>482.0</ele><time>2026-04-18T07:25:47.999Z</time></trkpt><trkpt lat="42.678768067666226" lon="11.794245755418782"><ele>481.3333333333333</ele><time>2026-04-18T07:25:48.999Z</time></trkpt><trkpt lat="42.67866901751533" lon="11.794061689697841"><ele>480.66666666666663</ele><time>2026-04-18T07:25:49.999Z</time></trkpt><trkpt lat="42.67858886968537" lon="11.793880407807237"><ele>480.0</ele><time>2026-04-18T07:25:50.999Z</time></trkpt><trkpt lat="42.67850507238532" lon="11.793727279148206"><ele>479.25</ele><time>2026-04-18T07:25:51.999Z</time></trkpt><trkpt lat="42.678415145507486" lon="11.793596740947956"><ele>478.5</ele><time>2026-04-18T07:25:52.999Z</time></trkpt><trkpt lat="42.67835603812412" lon="11.793454765353339"><ele>477.75</ele><time>2026-04-18T07:25:53.999Z</time></trkpt><trkpt lat="42.67829309722982" lon="11.793323194171919"><ele>477.0</ele><time>2026-04-18T07:25:54.999Z</time></trkpt><trkpt lat="42.678245355363345" lon="11.793191444536824"><ele>477.0</ele><time>2026-04-18T07:25:55.999Z</time></trkpt><trkpt lat="42.67821444170641" lon="11.79305755287423"><ele>477.0</ele><time>2026-04-18T07:25:56.999Z</time></trkpt><trkpt lat="42.67815282146324" lon="11.79287346430604"><ele>477.0</ele><time>2026-04-18T07:25:57.999Z</time></trkpt><trkpt lat="42.67809620643537" lon="11.79266825756606"><ele>477.0</ele><time>2026-04-18T07:25:58.999Z</time></trkpt><trkpt lat="42.678037602744574" lon="11.792514057580208"><ele>477.5</ele><time>2026-04-18T07:25:59.999Z</time></trkpt><trkpt lat="42.67799607301738" lon="11.792395542082149"><ele>478.0</ele><time>2026-04-18T07:26:00.999Z</time></trkpt><trkpt lat="42.67792828089587" lon="11.792275151172689"><ele>478.5</ele><time>2026-04-18T07:26:01.999Z</time></trkpt><trkpt lat="42.67783826273134" lon="11.792136108770915"><ele>479.0</ele><time>2026-04-18T07:26:02.999Z</time></trkpt><trkpt lat="42.67775703598505" lon="11.792005228405353"><ele>479.0</ele><time>2026-04-18T07:26:03.999Z</time></trkpt><trkpt lat="42.67766147554337" lon="11.791912948653534"><ele>479.0</ele><time>2026-04-18T07:26:04.998Z</time></trkpt><trkpt lat="42.67754572331823" lon="11.79184905222302"><ele>479.0</ele><time>2026-04-18T07:26:05.998Z</time></trkpt><trkpt lat="42.67740968011595" lon="11.791793949955844"><ele>479.0</ele><time>2026-04-18T07:26:06.998Z</time></trkpt><trkpt lat="42.67725846937471" lon="11.791741416323903"><ele>482.0</ele><time>2026-04-18T07:26:07.998Z</time></trkpt><trkpt lat="42.67710004602316" lon="11.791668158178659"><ele>485.0</ele><time>2026-04-18T07:26:08.998Z</time></trkpt><trkpt lat="42.676949186096735" lon="11.791556275856298"><ele>488.0</ele><time>2026-04-18T07:26:09.998Z</time></trkpt><trkpt lat="42.67678040336321" lon="11.791463159290783"><ele>488.0</ele><time>2026-04-18T07:26:10.998Z</time></trkpt><trkpt lat="42.67663325788839" lon="11.791346964805312"><ele>488.0</ele><time>2026-04-18T07:26:11.998Z</time></trkpt><trkpt lat="42.676508943713735" lon="11.791239552843784"><ele>488.0</ele><time>2026-04-18T07:26:12.998Z</time></trkpt><trkpt lat="42.67639661696671" lon="11.791148916152169"><ele>488.0</ele><time>2026-04-18T07:26:13.998Z</time></trkpt><trkpt lat="42.67629329851747" lon="11.79103012032655"><ele>489.5</ele><time>2026-04-18T07:26:14.998Z</time></trkpt><trkpt lat="42.67617728398967" lon="11.790921151447142"><ele>491.0</ele><time>2026-04-18T07:26:15.998Z</time></trkpt><trkpt lat="42.676064212198305" lon="11.79081066660719"><ele>492.5</ele><time>2026-04-18T07:26:16.998Z</time></trkpt><trkpt lat="42.6759510173617" lon="11.790690908550468"><ele>494.0</ele><time>2026-04-18T07:26:17.998Z</time></trkpt><trkpt lat="42.67583278683237" lon="11.790554545783161"><ele>494.0</ele><time>2026-04-18T07:26:18.998Z</time></trkpt><trkpt lat="42.675730626632934" lon="11.790425281378035"><ele>494.0</ele><time>2026-04-18T07:26:20Z</time></trkpt><trkpt lat="42.67562239598934" lon="11.790309246060609"><ele>494.0</ele><time>2026-04-18T07:26:21Z</time></trkpt><trkpt lat="42.67552842515993" lon="11.79015223661323"><ele>494.0</ele><time>2026-04-18T07:26:22Z</time></trkpt><trkpt lat="42.675408955990186" lon="11.79000190207317"><ele>495.0</ele><time>2026-04-18T07:26:23Z</time></trkpt><trkpt lat="42.6753018823699" lon="11.789867164349587"><ele>496.0</ele><time>2026-04-18T07:26:24Z</time></trkpt><trkpt lat="42.675203382978424" lon="11.78974118784977"><ele>497.0</ele><time>2026-04-18T07:26:25Z</time></trkpt><trkpt lat="42.6750993093757" lon="11.789600667085184"><ele>498.0</ele><time>2026-04-18T07:26:26Z</time></trkpt><trkpt lat="42.67500149121539" lon="11.789460892544263"><ele>498.5</ele><time>2026-04-18T07:26:27Z</time></trkpt><trkpt lat="42.67490357748088" lon="11.789305051683751"><ele>499.0</ele><time>2026-04-18T07:26:28Z</time></trkpt><trkpt lat="42.67481896288625" lon="11.789155742537512"><ele>499.5</ele><time>2026-04-18T07:26:29Z</time></trkpt><trkpt lat="42.674751396828874" lon="11.78899615689467"><ele>500.0</ele><time>2026-04-18T07:26:30Z</time></trkpt><trkpt lat="42.67468762995684" lon="11.7888168369652"><ele>500.0</ele><time>2026-04-18T07:26:31Z</time></trkpt><trkpt lat="42.67461808193041" lon="11.788599708653964"><ele>500.0</ele><time>2026-04-18T07:26:32Z</time></trkpt><trkpt lat="42.67455232689069" lon="11.788385462437548"><ele>500.0</ele><time>2026-04-18T07:26:33Z</time></trkpt><trkpt lat="42.6744953078674" lon="11.788206496168245"><ele>501.5</ele><time>2026-04-18T07:26:34Z</time></trkpt><trkpt lat="42.674439260309704" lon="11.788006473375683"><ele>503.0</ele><time>2026-04-18T07:26:35Z</time></trkpt><trkpt lat="42.67439013253178" lon="11.787821992088666"><ele>504.5</ele><time>2026-04-18T07:26:36Z</time></trkpt><trkpt lat="42.674343314439454" lon="11.787659932407545"><ele>506.0</ele><time>2026-04-18T07:26:37Z</time></trkpt><trkpt lat="42.67428131687843" lon="11.78750784476176"><ele>506.5</ele><time>2026-04-18T07:26:38Z</time></trkpt><trkpt lat="42.674187117743024" lon="11.78738131840358"><ele>507.0</ele><time>2026-04-18T07:26:39Z</time></trkpt><trkpt lat="42.674094873661566" lon="11.787251041082309"><ele>507.5</ele><time>2026-04-18T07:26:40Z</time></trkpt><trkpt lat="42.6739953444362" lon="11.78709586499789"><ele>508.0</ele><time>2026-04-18T07:26:41Z</time></trkpt><trkpt lat="42.67388220892485" lon="11.786954492566156"><ele>507.25</ele><time>2026-04-18T07:26:42Z</time></trkpt><trkpt lat="42.67378478334158" lon="11.786830573783138"><ele>506.5</ele><time>2026-04-18T07:26:43Z</time></trkpt><trkpt lat="42.67369629111575" lon="11.78670911774206"><ele>505.75</ele><time>2026-04-18T07:26:44Z</time></trkpt><trkpt lat="42.67362651635873" lon="11.786593863847074"><ele>505.0</ele><time>2026-04-18T07:26:45Z</time></trkpt><trkpt lat="42.67357734348516" lon="11.786477551838626"><ele>505.0</ele><time>2026-04-18T07:26:46Z</time></trkpt><trkpt lat="42.67354653106934" lon="11.7863440442992"><ele>505.0</ele><time>2026-04-18T07:26:47Z</time></trkpt><trkpt lat="42.673522823324056" lon="11.786187681838454"><ele>505.0</ele><time>2026-04-18T07:26:48Z</time></trkpt><trkpt lat="42.67350891302956" lon="11.786001137914191"><ele>505.0</ele><time>2026-04-18T07:26:49Z</time></trkpt><trkpt lat="42.67350189477461" lon="11.78579540232914"><ele>504.5</ele><time>2026-04-18T07:26:50Z</time></trkpt><trkpt lat="42.673496468222474" lon="11.785586541893185"><ele>504.0</ele><time>2026-04-18T07:26:51Z</time></trkpt><trkpt lat="42.67349465238044" lon="11.785399363772752"><ele>503.5</ele><time>2026-04-18T07:26:52Z</time></trkpt><trkpt lat="42.673494652380704" lon="11.785238817405515"><ele>503.0</ele><time>2026-04-18T07:26:53Z</time></trkpt><trkpt lat="42.67349745666736" lon="11.785111048687781"><ele>502.99999999999994</ele><time>2026-04-18T07:26:54Z</time></trkpt><trkpt lat="42.67350811558402" lon="11.78500700867094"><ele>503.0</ele><time>2026-04-18T07:26:55Z</time></trkpt><trkpt lat="42.67352746015443" lon="11.784919789407466"><ele>503.0</ele><time>2026-04-18T07:26:56Z</time></trkpt><trkpt lat="42.67357565605817" lon="11.784824091973746"><ele>503.0</ele><time>2026-04-18T07:26:57Z</time></trkpt><trkpt lat="42.67364508148073" lon="11.784748740414514"><ele>502.99999999999994</ele><time>2026-04-18T07:26:58Z</time></trkpt><trkpt lat="42.673722144170846" lon="11.784673395344969"><ele>503.0</ele><time>2026-04-18T07:26:59Z</time></trkpt><trkpt lat="42.67377901135549" lon="11.78461668573263"><ele>503.0</ele><time>2026-04-18T07:27:00Z</time></trkpt><trkpt lat="42.67385514090405" lon="11.784540767124888"><ele>503.0</ele><time>2026-04-18T07:27:01Z</time></trkpt><trkpt lat="42.6739462069628" lon="11.784449953524142"><ele>503.0</ele><time>2026-04-18T07:27:01.999Z</time></trkpt><trkpt lat="42.67406450174755" lon="11.784331986403213"><ele>503.0</ele><time>2026-04-18T07:27:02.999Z</time></trkpt><trkpt lat="42.67417164395176" lon="11.784211045613233"><ele>503.0</ele><time>2026-04-18T07:27:03.999Z</time></trkpt><trkpt lat="42.674238008219355" lon="11.78407075531486"><ele>503.0</ele><time>2026-04-18T07:27:04.999Z</time></trkpt><trkpt lat="42.674287293006614" lon="11.783939383570983"><ele>503.0</ele><time>2026-04-18T07:27:05.999Z</time></trkpt><trkpt lat="42.67432184500219" lon="11.783804467174665"><ele>503.0</ele><time>2026-04-18T07:27:06.999Z</time></trkpt><trkpt lat="42.67432416352021" lon="11.783609074799056"><ele>503.66666666666663</ele><time>2026-04-18T07:27:07.999Z</time></trkpt><trkpt lat="42.674335911141306" lon="11.783369735330895"><ele>504.33333333333337</ele><time>2026-04-18T07:27:08.999Z</time></trkpt><trkpt lat="42.674347375842686" lon="11.783089120034195"><ele>505.0</ele><time>2026-04-18T07:27:09.999Z</time></trkpt><trkpt lat="42.67435455648643" lon="11.782838612490835"><ele>504.0</ele><time>2026-04-18T07:27:10.999Z</time></trkpt><trkpt lat="42.67436140320721" lon="11.782605566374203"><ele>503.0</ele><time>2026-04-18T07:27:11.999Z</time></trkpt><trkpt lat="42.67436872816188" lon="11.782356242678897"><ele>502.0</ele><time>2026-04-18T07:27:12.999Z</time></trkpt><trkpt lat="42.67437498307171" lon="11.782133737669257"><ele>502.0</ele><time>2026-04-18T07:27:13.999Z</time></trkpt><trkpt lat="42.674381137817456" lon="11.781912398274905"><ele>502.0</ele><time>2026-04-18T07:27:14.999Z</time></trkpt><trkpt lat="42.67438719884162" lon="11.781695383137006"><ele>502.0</ele><time>2026-04-18T07:27:15.999Z</time></trkpt><trkpt lat="42.67439603916406" lon="11.781483644813072"><ele>502.0</ele><time>2026-04-18T07:27:16.999Z</time></trkpt><trkpt lat="42.67440533762344" lon="11.781258925374821"><ele>502.0</ele><time>2026-04-18T07:27:17.999Z</time></trkpt><trkpt lat="42.67441320955221" lon="11.781055300855646"><ele>502.0</ele><time>2026-04-18T07:27:18.999Z</time></trkpt><trkpt lat="42.674418922442854" lon="11.780872473497748"><ele>502.75</ele><time>2026-04-18T07:27:19.999Z</time></trkpt><trkpt lat="42.67441941923302" lon="11.780703741105395"><ele>503.5</ele><time>2026-04-18T07:27:20.999Z</time></trkpt><trkpt lat="42.6744129979035" lon="11.780526497304052"><ele>504.25</ele><time>2026-04-18T07:27:21.999Z</time></trkpt><trkpt lat="42.674392621710886" lon="11.780362063845761"><ele>505.0</ele><time>2026-04-18T07:27:22.999Z</time></trkpt><trkpt lat="42.67435199707682" lon="11.780217451139347"><ele>504.75</ele><time>2026-04-18T07:27:23.999Z</time></trkpt><trkpt lat="42.67431584165858" lon="11.780060184452708"><ele>504.5</ele><time>2026-04-18T07:27:24.999Z</time></trkpt><trkpt lat="42.67428738332552" lon="11.77987509436772"><ele>504.25</ele><time>2026-04-18T07:27:25.999Z</time></trkpt><trkpt lat="42.67427887167177" lon="11.779686436515027"><ele>504.0</ele><time>2026-04-18T07:27:26.999Z</time></trkpt><trkpt lat="42.67427804908868" lon="11.779506062084819"><ele>502.66666666666663</ele><time>2026-04-18T07:27:27.999Z</time></trkpt><trkpt lat="42.67429989080837" lon="11.77932627737621"><ele>501.3333333333333</ele><time>2026-04-18T07:27:28.999Z</time></trkpt><trkpt lat="42.67433184673234" lon="11.779142142400785"><ele>500.0</ele><time>2026-04-18T07:27:29.999Z</time></trkpt><trkpt lat="42.67438507044839" lon="11.778889021152034"><ele>500.0</ele><time>2026-04-18T07:27:30.999Z</time></trkpt><trkpt lat="42.67443470661246" lon="11.778617805361204"><ele>500.0</ele><time>2026-04-18T07:27:31.999Z</time></trkpt><trkpt lat="42.674472587439375" lon="11.778404901738917"><ele>500.0</ele><time>2026-04-18T07:27:32.999Z</time></trkpt><trkpt lat="42.674509831407775" lon="11.778199801837909"><ele>499.0</ele><time>2026-04-18T07:27:33.999Z</time></trkpt><trkpt lat="42.67454614442463" lon="11.777999828811543"><ele>498.0</ele><time>2026-04-18T07:27:34.999Z</time></trkpt><trkpt lat="42.67458457748118" lon="11.777788180494856"><ele>497.0</ele><time>2026-04-18T07:27:35.999Z</time></trkpt><trkpt lat="42.67462624271366" lon="11.777562915273407"><ele>496.66666666666663</ele><time>2026-04-18T07:27:36.999Z</time></trkpt><trkpt lat="42.6746694732588" lon="11.777349718567963"><ele>496.33333333333337</ele><time>2026-04-18T07:27:37.999Z</time></trkpt><trkpt lat="42.67471360625088" lon="11.777146442196523"><ele>496.0</ele><time>2026-04-18T07:27:38.999Z</time></trkpt><trkpt lat="42.67475401831" lon="11.776953413456942"><ele>495.75</ele><time>2026-04-18T07:27:39.999Z</time></trkpt><trkpt lat="42.67479333708266" lon="11.776763659304208"><ele>495.5</ele><time>2026-04-18T07:27:40.999Z</time></trkpt><trkpt lat="42.67483294537484" lon="11.776574288651272"><ele>495.25</ele><time>2026-04-18T07:27:41.999Z</time></trkpt><trkpt lat="42.67487306656772" lon="11.776391978661605"><ele>495.0</ele><time>2026-04-18T07:27:42.999Z</time></trkpt><trkpt lat="42.67491292581091" lon="11.776221741850502"><ele>495.0</ele><time>2026-04-18T07:27:43.999Z</time></trkpt><trkpt lat="42.674954055536695" lon="11.776048788858903"><ele>495.0</ele><time>2026-04-18T07:27:44.999Z</time></trkpt><trkpt lat="42.67499161544292" lon="11.775883823112437"><ele>495.0</ele><time>2026-04-18T07:27:45.999Z</time></trkpt><trkpt lat="42.67502538474077" lon="11.775734933467737"><ele>495.0</ele><time>2026-04-18T07:27:46.999Z</time></trkpt><trkpt lat="42.67505630289967" lon="11.775594657836965"><ele>494.8333333333333</ele><time>2026-04-18T07:27:47.999Z</time></trkpt><trkpt lat="42.67508113113061" lon="11.775482012372809"><ele>494.66666666666663</ele><time>2026-04-18T07:27:48.999Z</time></trkpt><trkpt lat="42.67510199442464" lon="11.775387355416104"><ele>494.5</ele><time>2026-04-18T07:27:49.999Z</time></trkpt><trkpt lat="42.67512618564161" lon="11.775281049718666"><ele>494.3333333333333</ele><time>2026-04-18T07:27:50.999Z</time></trkpt><trkpt lat="42.67515111735231" lon="11.775176381494486"><ele>494.16666666666663</ele><time>2026-04-18T07:27:51.999Z</time></trkpt><trkpt lat="42.67517662836598" lon="11.775071095932873"><ele>494.0</ele><time>2026-04-18T07:27:52.999Z</time></trkpt><trkpt lat="42.67523621430506" lon="11.774991194249235"><ele>492.79999999999995</ele><time>2026-04-18T07:27:54.999Z</time></trkpt><trkpt lat="42.67531144797602" lon="11.775005667728175"><ele>491.59999999999997</ele><time>2026-04-18T07:27:56.999Z</time></trkpt><trkpt lat="42.67539511903523" lon="11.77502047444875"><ele>490.4</ele><time>2026-04-18T07:27:57.999Z</time></trkpt><trkpt lat="42.675526179676" lon="11.77502543568461"><ele>489.2</ele><time>2026-04-18T07:27:58.999Z</time></trkpt><trkpt lat="42.67567557135367" lon="11.775072555109803"><ele>488.0</ele><time>2026-04-18T07:27:59.998Z</time></trkpt><trkpt lat="42.67583957341977" lon="11.775101309078781"><ele>488.0</ele><time>2026-04-18T07:28:00.998Z</time></trkpt><trkpt lat="42.67598860617626" lon="11.775127438506088"><ele>488.0</ele><time>2026-04-18T07:28:01.998Z</time></trkpt><trkpt lat="42.67612552627049" lon="11.775151848585502"><ele>488.0</ele><time>2026-04-18T07:28:02.998Z</time></trkpt><trkpt lat="42.676265989580884" lon="11.775178124496453"><ele>488.0</ele><time>2026-04-18T07:28:03.998Z</time></trkpt><trkpt lat="42.67639445184846" lon="11.775203391042634"><ele>489.25</ele><time>2026-04-18T07:28:04.998Z</time></trkpt><trkpt lat="42.67652655397957" lon="11.775229466739702"><ele>490.5</ele><time>2026-04-18T07:28:05.998Z</time></trkpt><trkpt lat="42.676667428038925" lon="11.77525727392726"><ele>491.75</ele><time>2026-04-18T07:28:06.998Z</time></trkpt><trkpt lat="42.67681746799789" lon="11.775286809616015"><ele>493.0</ele><time>2026-04-18T07:28:07.998Z</time></trkpt><trkpt lat="42.676973444891146" lon="11.77531541913575"><ele>493.6666666666667</ele><time>2026-04-18T07:28:08.998Z</time></trkpt><trkpt lat="42.67715311359201" lon="11.775348374217632"><ele>494.33333333333337</ele><time>2026-04-18T07:28:09.998Z</time></trkpt><trkpt lat="42.677313428682545" lon="11.775377779455514"><ele>495.0</ele><time>2026-04-18T07:28:10.998Z</time></trkpt><trkpt lat="42.677446159173584" lon="11.775402125079014"><ele>495.0</ele><time>2026-04-18T07:28:11.998Z</time></trkpt><trkpt lat="42.67757337600419" lon="11.775425807115486"><ele>495.0</ele><time>2026-04-18T07:28:12.998Z</time></trkpt><trkpt lat="42.67770588936918" lon="11.775441805701933"><ele>495.0</ele><time>2026-04-18T07:28:13.998Z</time></trkpt><trkpt lat="42.677824925721204" lon="11.775441110996425"><ele>495.0</ele><time>2026-04-18T07:28:14.998Z</time></trkpt><trkpt lat="42.67792830706482" lon="11.775397465756441"><ele>495.25</ele><time>2026-04-18T07:28:15.998Z</time></trkpt><trkpt lat="42.67803526042868" lon="11.775377146967653"><ele>495.5</ele><time>2026-04-18T07:28:16.998Z</time></trkpt><trkpt lat="42.67811042245076" lon="11.775260545138561"><ele>495.75</ele><time>2026-04-18T07:28:17.998Z</time></trkpt><trkpt lat="42.67820742930133" lon="11.775126862400649"><ele>496.0</ele><time>2026-04-18T07:28:18.998Z</time></trkpt><trkpt lat="42.67832202416185" lon="11.774953773561595"><ele>496.0</ele><time>2026-04-18T07:28:19.998Z</time></trkpt><trkpt lat="42.67844049050436" lon="11.77475648829567"><ele>496.0</ele><time>2026-04-18T07:28:20.998Z</time></trkpt><trkpt lat="42.678544221464215" lon="11.774583742156095"><ele>496.0</ele><time>2026-04-18T07:28:21.998Z</time></trkpt><trkpt lat="42.67865800970713" lon="11.774390150124018"><ele>495.6666666666667</ele><time>2026-04-18T07:28:22.998Z</time></trkpt><trkpt lat="42.67876762900517" lon="11.774198704108317"><ele>495.33333333333337</ele><time>2026-04-18T07:28:23.998Z</time></trkpt><trkpt lat="42.678871759954994" lon="11.774018775040815"><ele>495.0</ele><time>2026-04-18T07:28:24.998Z</time></trkpt><trkpt lat="42.6789795385802" lon="11.773841887412322"><ele>495.0</ele><time>2026-04-18T07:28:26Z</time></trkpt><trkpt lat="42.679087247371534" lon="11.773663249345931"><ele>495.0</ele><time>2026-04-18T07:28:27Z</time></trkpt><trkpt lat="42.679189705808525" lon="11.773490621949243"><ele>495.0</ele><time>2026-04-18T07:28:28Z</time></trkpt><trkpt lat="42.67928617583568" lon="11.7733334063063"><ele>495.0</ele><time>2026-04-18T07:28:29Z</time></trkpt><trkpt lat="42.67937428462576" lon="11.773200386969368"><ele>495.0</ele><time>2026-04-18T07:28:30Z</time></trkpt><trkpt lat="42.679464744618635" lon="11.773082823206725"><ele>495.0</ele><time>2026-04-18T07:28:31Z</time></trkpt><trkpt lat="42.6795553846224" lon="11.772975446093339"><ele>495.0</ele><time>2026-04-18T07:28:32Z</time></trkpt><trkpt lat="42.6796529220135" lon="11.77286982963051"><ele>494.25</ele><time>2026-04-18T07:28:33Z</time></trkpt><trkpt lat="42.67976493980438" lon="11.772753596428918"><ele>493.5</ele><time>2026-04-18T07:28:34Z</time></trkpt><trkpt lat="42.67988569380416" lon="11.772634213146256"><ele>492.75</ele><time>2026-04-18T07:28:35Z</time></trkpt><trkpt lat="42.680013582965984" lon="11.772506774738751"><ele>492.0</ele><time>2026-04-18T07:28:36Z</time></trkpt><trkpt lat="42.68013611921892" lon="11.772378428719948"><ele>491.66666666666663</ele><time>2026-04-18T07:28:37Z</time></trkpt><trkpt lat="42.68026060317829" lon="11.772248042453782"><ele>491.3333333333333</ele><time>2026-04-18T07:28:38Z</time></trkpt><trkpt lat="42.68037472802731" lon="11.772100232842488"><ele>491.0</ele><time>2026-04-18T07:28:39Z</time></trkpt><trkpt lat="42.68049958420835" lon="11.772000060655857"><ele>490.75</ele><time>2026-04-18T07:28:40Z</time></trkpt><trkpt lat="42.68060536534924" lon="11.771891635009196"><ele>490.5</ele><time>2026-04-18T07:28:41Z</time></trkpt><trkpt lat="42.6807022867357" lon="11.771790470665053"><ele>490.25</ele><time>2026-04-18T07:28:42Z</time></trkpt><trkpt lat="42.680789722824386" lon="11.771698734766003"><ele>490.0</ele><time>2026-04-18T07:28:43Z</time></trkpt><trkpt lat="42.6808782198096" lon="11.771603219311878"><ele>490.0</ele><time>2026-04-18T07:28:44Z</time></trkpt><trkpt lat="42.680965434360694" lon="11.771509088168852"><ele>490.0</ele><time>2026-04-18T07:28:45Z</time></trkpt><trkpt lat="42.681048794974195" lon="11.771397645280564"><ele>490.0</ele><time>2026-04-18T07:28:46Z</time></trkpt><trkpt lat="42.681138418698225" lon="11.771304436140822"><ele>490.0</ele><time>2026-04-18T07:28:47Z</time></trkpt><trkpt lat="42.68123560088196" lon="11.771220433609132"><ele>490.0</ele><time>2026-04-18T07:28:48Z</time></trkpt><trkpt lat="42.68132836805212" lon="11.771120813358825"><ele>490.0</ele><time>2026-04-18T07:28:49Z</time></trkpt><trkpt lat="42.68141927375391" lon="11.771012162067706"><ele>490.0</ele><time>2026-04-18T07:28:50Z</time></trkpt><trkpt lat="42.68150396854966" lon="11.770894612759331"><ele>490.0</ele><time>2026-04-18T07:28:51Z</time></trkpt><trkpt lat="42.68158858150798" lon="11.770771428783112"><ele>489.75</ele><time>2026-04-18T07:28:52Z</time></trkpt><trkpt lat="42.68167395405617" lon="11.77065004206012"><ele>489.5</ele><time>2026-04-18T07:28:53Z</time></trkpt><trkpt lat="42.68176467018044" lon="11.77052279014661"><ele>489.25</ele><time>2026-04-18T07:28:54Z</time></trkpt><trkpt lat="42.68185380916505" lon="11.77039775042821"><ele>489.0</ele><time>2026-04-18T07:28:55Z</time></trkpt><trkpt lat="42.68193950973288" lon="11.770277533952754"><ele>488.0</ele><time>2026-04-18T07:28:56Z</time></trkpt><trkpt lat="42.68201997320688" lon="11.770164663662399"><ele>487.0</ele><time>2026-04-18T07:28:57Z</time></trkpt><trkpt lat="42.68209793848545" lon="11.770056758765728"><ele>486.0</ele><time>2026-04-18T07:28:58Z</time></trkpt><trkpt lat="42.682170019073645" lon="11.769960788414757"><ele>485.0</ele><time>2026-04-18T07:28:58.999Z</time></trkpt><trkpt lat="42.68223872722557" lon="11.769870908484004"><ele>484.0</ele><time>2026-04-18T07:28:59.999Z</time></trkpt><trkpt lat="42.68230358033942" lon="11.76978538993963"><ele>484.0</ele><time>2026-04-18T07:29:00.999Z</time></trkpt><trkpt lat="42.68235293374068" lon="11.769688047097512"><ele>484.0</ele><time>2026-04-18T07:29:01.999Z</time></trkpt><trkpt lat="42.682436305032105" lon="11.769607064105617"><ele>484.0</ele><time>2026-04-18T07:29:02.999Z</time></trkpt><trkpt lat="42.6825083001845" lon="11.769517854185578"><ele>484.0</ele><time>2026-04-18T07:29:03.999Z</time></trkpt><trkpt lat="42.68255956612256" lon="11.76944962651207"><ele>484.0</ele><time>2026-04-18T07:29:04.999Z</time></trkpt><trkpt lat="42.68261556914982" lon="11.769341693280738"><ele>483.4</ele><time>2026-04-18T07:29:06.999Z</time></trkpt><trkpt lat="42.68268692420661" lon="11.769245558899698"><ele>482.79999999999995</ele><time>2026-04-18T07:29:09.999Z</time></trkpt><trkpt lat="42.68255019659466" lon="11.769120499753479"><ele>482.20000000000005</ele><time>2026-04-18T07:29:12.999Z</time></trkpt><trkpt lat="42.6824820497754" lon="11.769125384195865"><ele>481.6</ele><time>2026-04-18T07:29:13.999Z</time></trkpt><trkpt lat="42.68240188094724" lon="11.769134847618542"><ele>481.0</ele><time>2026-04-18T07:29:14.999Z</time></trkpt><trkpt lat="42.68230589368959" lon="11.76914028860327"><ele>481.0</ele><time>2026-04-18T07:29:15.999Z</time></trkpt><trkpt lat="42.68219970187268" lon="11.769136060329652"><ele>481.0</ele><time>2026-04-18T07:29:16.999Z</time></trkpt><trkpt lat="42.68208343127578" lon="11.769125723805931"><ele>481.0</ele><time>2026-04-18T07:29:17.999Z</time></trkpt><trkpt lat="42.68195180098129" lon="11.769114554450699"><ele>481.0</ele><time>2026-04-18T07:29:18.999Z</time></trkpt><trkpt lat="42.6818076511791" lon="11.769088169622075"><ele>480.33333333333337</ele><time>2026-04-18T07:29:19.999Z</time></trkpt><trkpt lat="42.68165670697797" lon="11.769037833124587"><ele>479.66666666666663</ele><time>2026-04-18T07:29:20.999Z</time></trkpt><trkpt lat="42.681498706675505" lon="11.76898521982317"><ele>479.0</ele><time>2026-04-18T07:29:21.999Z</time></trkpt><trkpt lat="42.68133526695796" lon="11.76894292095962"><ele>479.0</ele><time>2026-04-18T07:29:22.999Z</time></trkpt><trkpt lat="42.68115813762257" lon="11.768897985003257"><ele>479.0</ele><time>2026-04-18T07:29:23.999Z</time></trkpt><trkpt lat="42.6809804799905" lon="11.768852458950763"><ele>479.0</ele><time>2026-04-18T07:29:24.999Z</time></trkpt><trkpt lat="42.68080580606032" lon="11.768811264250521"><ele>477.66666666666663</ele><time>2026-04-18T07:29:25.999Z</time></trkpt><trkpt lat="42.68061368517363" lon="11.768776313440178"><ele>476.33333333333337</ele><time>2026-04-18T07:29:26.999Z</time></trkpt><trkpt lat="42.68041906902248" lon="11.7687656712047"><ele>475.0</ele><time>2026-04-18T07:29:27.999Z</time></trkpt><trkpt lat="42.680230712469964" lon="11.768766823288107"><ele>474.33333333333337</ele><time>2026-04-18T07:29:28.999Z</time></trkpt><trkpt lat="42.68005048988033" lon="11.768769263673558"><ele>473.66666666666663</ele><time>2026-04-18T07:29:29.999Z</time></trkpt><trkpt lat="42.67987486601862" lon="11.768767734583085"><ele>473.0</ele><time>2026-04-18T07:29:30.999Z</time></trkpt><trkpt lat="42.679704750327055" lon="11.768765400966"><ele>473.0</ele><time>2026-04-18T07:29:31.999Z</time></trkpt><trkpt lat="42.679541137079255" lon="11.768762724655573"><ele>473.0</ele><time>2026-04-18T07:29:32.999Z</time></trkpt><trkpt lat="42.679385743391585" lon="11.768756437509955"><ele>473.0</ele><time>2026-04-18T07:29:33.999Z</time></trkpt><trkpt lat="42.67924868918665" lon="11.768693354958101"><ele>472.5</ele><time>2026-04-18T07:29:34.999Z</time></trkpt><trkpt lat="42.679122448106575" lon="11.76861177203581"><ele>472.0</ele><time>2026-04-18T07:29:35.999Z</time></trkpt><trkpt lat="42.67900899331861" lon="11.768484850393515"><ele>471.5</ele><time>2026-04-18T07:29:36.999Z</time></trkpt><trkpt lat="42.67888248922989" lon="11.76834914139815"><ele>471.0</ele><time>2026-04-18T07:29:37.999Z</time></trkpt><trkpt lat="42.67878018327404" lon="11.768209182070349"><ele>470.5</ele><time>2026-04-18T07:29:38.999Z</time></trkpt><trkpt lat="42.67867161577266" lon="11.76808986037092"><ele>470.0</ele><time>2026-04-18T07:29:39.999Z</time></trkpt><trkpt lat="42.67856360684921" lon="11.767998726407862"><ele>469.5</ele><time>2026-04-18T07:29:40.999Z</time></trkpt><trkpt lat="42.67844436140971" lon="11.767951269348229"><ele>469.0</ele><time>2026-04-18T07:29:41.999Z</time></trkpt><trkpt lat="42.67830623850001" lon="11.76796506228474"><ele>469.0</ele><time>2026-04-18T07:29:42.999Z</time></trkpt><trkpt lat="42.67816228919268" lon="11.768038689999978"><ele>469.0</ele><time>2026-04-18T07:29:43.999Z</time></trkpt><trkpt lat="42.67799336248091" lon="11.768145216714146"><ele>469.0</ele><time>2026-04-18T07:29:44.999Z</time></trkpt><trkpt lat="42.67782687755187" lon="11.768220013481608"><ele>468.25</ele><time>2026-04-18T07:29:45.999Z</time></trkpt><trkpt lat="42.67768817920087" lon="11.7682640027335"><ele>467.5</ele><time>2026-04-18T07:29:46.999Z</time></trkpt><trkpt lat="42.67754736016635" lon="11.768309527956877"><ele>466.75</ele><time>2026-04-18T07:29:47.999Z</time></trkpt><trkpt lat="42.67742691653215" lon="11.768343398207719"><ele>466.0</ele><time>2026-04-18T07:29:48.999Z</time></trkpt><trkpt lat="42.67731598977143" lon="11.768410191437907"><ele>468.33333333333337</ele><time>2026-04-18T07:29:49.999Z</time></trkpt><trkpt lat="42.67722629438375" lon="11.768538903767956"><ele>470.66666666666663</ele><time>2026-04-18T07:29:50.999Z</time></trkpt><trkpt lat="42.67716643562107" lon="11.768724473414263"><ele>473.0</ele><time>2026-04-18T07:29:51.999Z</time></trkpt><trkpt lat="42.67712701370034" lon="11.76896187137871"><ele>473.0</ele><time>2026-04-18T07:29:52.999Z</time></trkpt><trkpt lat="42.67704104207298" lon="11.769226325665667"><ele>473.0</ele><time>2026-04-18T07:29:53.999Z</time></trkpt><trkpt lat="42.67695510604675" lon="11.76950704376134"><ele>473.0</ele><time>2026-04-18T07:29:54.999Z</time></trkpt><trkpt lat="42.67686651836778" lon="11.769761071983362"><ele>472.0</ele><time>2026-04-18T07:29:55.999Z</time></trkpt><trkpt lat="42.67678728372895" lon="11.769979064562174"><ele>471.0</ele><time>2026-04-18T07:29:56.999Z</time></trkpt><trkpt lat="42.676729262893865" lon="11.770183670147128"><ele>470.0</ele><time>2026-04-18T07:29:57.999Z</time></trkpt><trkpt lat="42.676654959443354" lon="11.7703256398498"><ele>471.4</ele><time>2026-04-18T07:29:58.999Z</time></trkpt><trkpt lat="42.67658283569757" lon="11.770429234166318"><ele>472.8</ele><time>2026-04-18T07:29:59.999Z</time></trkpt><trkpt lat="42.676490609739524" lon="11.770493158589485"><ele>474.20000000000005</ele><time>2026-04-18T07:30:00.998Z</time></trkpt><trkpt lat="42.67638718709999" lon="11.770507715420937"><ele>475.6</ele><time>2026-04-18T07:30:01.998Z</time></trkpt><trkpt lat="42.67627931854768" lon="11.77046834959779"><ele>477.0</ele><time>2026-04-18T07:30:02.998Z</time></trkpt><trkpt lat="42.67618249104829" lon="11.770397304781534"><ele>477.0</ele><time>2026-04-18T07:30:03.998Z</time></trkpt><trkpt lat="42.67610244697015" lon="11.770293442384508"><ele>477.0</ele><time>2026-04-18T07:30:04.998Z</time></trkpt><trkpt lat="42.676037319658136" lon="11.770171319688515"><ele>477.0</ele><time>2026-04-18T07:30:05.998Z</time></trkpt><trkpt lat="42.67603281318771" lon="11.770020216588385"><ele>477.0</ele><time>2026-04-18T07:30:06.998Z</time></trkpt><trkpt lat="42.676073676775076" lon="11.769848800016868"><ele>474.66666666666663</ele><time>2026-04-18T07:30:07.998Z</time></trkpt><trkpt lat="42.67614252957912" lon="11.769631318469232"><ele>472.3333333333333</ele><time>2026-04-18T07:30:08.998Z</time></trkpt><trkpt lat="42.67625488836235" lon="11.769393980995192"><ele>470.0</ele><time>2026-04-18T07:30:09.998Z</time></trkpt><trkpt lat="42.67639126804645" lon="11.76914340738408"><ele>470.0</ele><time>2026-04-18T07:30:10.998Z</time></trkpt><trkpt lat="42.67649752296798" lon="11.768901526973806"><ele>470.0</ele><time>2026-04-18T07:30:11.998Z</time></trkpt><trkpt lat="42.67657827502204" lon="11.768655780461115"><ele>470.0</ele><time>2026-04-18T07:30:12.998Z</time></trkpt><trkpt lat="42.67664254304115" lon="11.76842551774897"><ele>471.75</ele><time>2026-04-18T07:30:13.998Z</time></trkpt><trkpt lat="42.676696012296524" lon="11.768226903550932"><ele>473.5</ele><time>2026-04-18T07:30:14.998Z</time></trkpt><trkpt lat="42.676744149796974" lon="11.768029865318159"><ele>475.25</ele><time>2026-04-18T07:30:15.998Z</time></trkpt><trkpt lat="42.676788693050916" lon="11.767873047960986"><ele>477.0</ele><time>2026-04-18T07:30:16.998Z</time></trkpt><trkpt lat="42.6768471707067" lon="11.767723757838883"><ele>477.75</ele><time>2026-04-18T07:30:17.998Z</time></trkpt><trkpt lat="42.676875711070224" lon="11.767591599757086"><ele>478.5</ele><time>2026-04-18T07:30:18.998Z</time></trkpt><trkpt lat="42.67686900678819" lon="11.767457218602383"><ele>479.25</ele><time>2026-04-18T07:30:19.998Z</time></trkpt><trkpt lat="42.67679733553035" lon="11.767318588406848"><ele>480.0</ele><time>2026-04-18T07:30:20.998Z</time></trkpt><trkpt lat="42.67671443255161" lon="11.767173027515486"><ele>480.0</ele><time>2026-04-18T07:30:21.998Z</time></trkpt><trkpt lat="42.676587994140434" lon="11.767081374598106"><ele>480.0</ele><time>2026-04-18T07:30:22.998Z</time></trkpt><trkpt lat="42.676445883085925" lon="11.767013675650324"><ele>480.0</ele><time>2026-04-18T07:30:23.998Z</time></trkpt><trkpt lat="42.67629770168796" lon="11.766956230238913"><ele>480.0</ele><time>2026-04-18T07:30:24.998Z</time></trkpt><trkpt lat="42.67613750571655" lon="11.766906723901016"><ele>480.0</ele><time>2026-04-18T07:30:25.998Z</time></trkpt><trkpt lat="42.67597610397653" lon="11.766857849330805"><ele>480.0</ele><time>2026-04-18T07:30:26.998Z</time></trkpt><trkpt lat="42.67580329362296" lon="11.766824153482109"><ele>480.0</ele><time>2026-04-18T07:30:27.998Z</time></trkpt><trkpt lat="42.67563179198618" lon="11.766769883531083"><ele>480.0</ele><time>2026-04-18T07:30:28.998Z</time></trkpt><trkpt lat="42.67545886338983" lon="11.766713728734292"><ele>480.0</ele><time>2026-04-18T07:30:29.998Z</time></trkpt><trkpt lat="42.675286470512475" lon="11.766647307531777"><ele>480.0</ele><time>2026-04-18T07:30:30.998Z</time></trkpt><trkpt lat="42.675118424485724" lon="11.76656908533755"><ele>481.0</ele><time>2026-04-18T07:30:32Z</time></trkpt><trkpt lat="42.67495483080701" lon="11.766476160428821"><ele>482.0</ele><time>2026-04-18T07:30:33Z</time></trkpt><trkpt lat="42.67479307694719" lon="11.76637494496317"><ele>483.0</ele><time>2026-04-18T07:30:34Z</time></trkpt><trkpt lat="42.67462901784976" lon="11.766275353716747"><ele>483.0</ele><time>2026-04-18T07:30:35Z</time></trkpt><trkpt lat="42.67446523814897" lon="11.766172726781337"><ele>483.0</ele><time>2026-04-18T07:30:36Z</time></trkpt><trkpt lat="42.67429825133128" lon="11.766068001976002"><ele>483.0</ele><time>2026-04-18T07:30:37Z</time></trkpt><trkpt lat="42.67412979382393" lon="11.765962878591555"><ele>482.66666666666663</ele><time>2026-04-18T07:30:38Z</time></trkpt><trkpt lat="42.6739543963002" lon="11.765861876079923"><ele>482.3333333333333</ele><time>2026-04-18T07:30:39Z</time></trkpt><trkpt lat="42.67377477860158" lon="11.765763509249613"><ele>482.0</ele><time>2026-04-18T07:30:40Z</time></trkpt><trkpt lat="42.67359721206485" lon="11.765660730486337"><ele>479.3333333333333</ele><time>2026-04-18T07:30:41Z</time></trkpt><trkpt lat="42.673436871710095" lon="11.76556510742756"><ele>476.66666666666663</ele><time>2026-04-18T07:30:42Z</time></trkpt><trkpt lat="42.67328847608528" lon="11.765485595977756"><ele>474.0</ele><time>2026-04-18T07:30:43Z</time></trkpt><trkpt lat="42.673135685265315" lon="11.765446247797152"><ele>474.0</ele><time>2026-04-18T07:30:44Z</time></trkpt><trkpt lat="42.672965687515514" lon="11.765462740716904"><ele>474.0</ele><time>2026-04-18T07:30:45Z</time></trkpt><trkpt lat="42.67279412973112" lon="11.765537781568954"><ele>474.0</ele><time>2026-04-18T07:30:46Z</time></trkpt><trkpt lat="42.67261419747387" lon="11.765638872619284"><ele>473.5</ele><time>2026-04-18T07:30:47Z</time></trkpt><trkpt lat="42.67240640716525" lon="11.765760708549966"><ele>473.0</ele><time>2026-04-18T07:30:48Z</time></trkpt><trkpt lat="42.672192342125484" lon="11.765884512911757"><ele>473.0</ele><time>2026-04-18T07:30:49Z</time></trkpt><trkpt lat="42.67199498053674" lon="11.765991970990973"><ele>473.0</ele><time>2026-04-18T07:30:50Z</time></trkpt><trkpt lat="42.6718277211691" lon="11.76608503861886"><ele>473.0</ele><time>2026-04-18T07:30:51Z</time></trkpt><trkpt lat="42.67167772316139" lon="11.76616847961057"><ele>474.0</ele><time>2026-04-18T07:30:52Z</time></trkpt><trkpt lat="42.67154251422664" lon="11.766243608593177"><ele>475.0</ele><time>2026-04-18T07:30:53Z</time></trkpt><trkpt lat="42.67141507476785" lon="11.766304463690192"><ele>476.0</ele><time>2026-04-18T07:30:54Z</time></trkpt><trkpt lat="42.67128717407703" lon="11.766357437592669"><ele>477.0</ele><time>2026-04-18T07:30:55Z</time></trkpt><trkpt lat="42.67114991156924" lon="11.766398531163272"><ele>478.5</ele><time>2026-04-18T07:30:56Z</time></trkpt><trkpt lat="42.671002859238605" lon="11.766435358501699"><ele>480.0</ele><time>2026-04-18T07:30:57Z</time></trkpt><trkpt lat="42.67085603133937" lon="11.766465656481303"><ele>481.5</ele><time>2026-04-18T07:30:58Z</time></trkpt><trkpt lat="42.670707410772664" lon="11.766501146215171"><ele>483.0</ele><time>2026-04-18T07:30:59Z</time></trkpt><trkpt lat="42.67057036602059" lon="11.766526123677876"><ele>483.0</ele><time>2026-04-18T07:31:00Z</time></trkpt><trkpt lat="42.67043854889894" lon="11.766538020439151"><ele>483.0</ele><time>2026-04-18T07:31:01Z</time></trkpt><trkpt lat="42.670292267071424" lon="11.766536211493936"><ele>483.0</ele><time>2026-04-18T07:31:02Z</time></trkpt><trkpt lat="42.6701393656639" lon="11.766513443448522"><ele>483.0</ele><time>2026-04-18T07:31:03Z</time></trkpt><trkpt lat="42.669994503025045" lon="11.766459393133648"><ele>483.5</ele><time>2026-04-18T07:31:04Z</time></trkpt><trkpt lat="42.66987062526762" lon="11.766388424404463"><ele>484.0</ele><time>2026-04-18T07:31:05Z</time></trkpt><trkpt lat="42.669739522299984" lon="11.766329375717907"><ele>484.5</ele><time>2026-04-18T07:31:06Z</time></trkpt><trkpt lat="42.66959900734938" lon="11.766276576639067"><ele>485.0</ele><time>2026-04-18T07:31:06.999Z</time></trkpt><trkpt lat="42.66945363759989" lon="11.766226513236347"><ele>487.0</ele><time>2026-04-18T07:31:07.999Z</time></trkpt><trkpt lat="42.66932297720145" lon="11.766186134761652"><ele>489.0</ele><time>2026-04-18T07:31:08.999Z</time></trkpt><trkpt lat="42.66919417393204" lon="11.766172497227009"><ele>491.0</ele><time>2026-04-18T07:31:09.999Z</time></trkpt><trkpt lat="42.669073129375626" lon="11.766194927842413"><ele>493.0</ele><time>2026-04-18T07:31:10.999Z</time></trkpt><trkpt lat="42.6689748027131" lon="11.766204243133954"><ele>493.0</ele><time>2026-04-18T07:31:11.999Z</time></trkpt><trkpt lat="42.668903117318486" lon="11.766208809057357"><ele>492.99999999999994</ele><time>2026-04-18T07:31:12.999Z</time></trkpt><trkpt lat="42.66879417065281" lon="11.766142263841354"><ele>492.99999999999994</ele><time>2026-04-18T07:31:14.999Z</time></trkpt><trkpt lat="42.66875758871711" lon="11.765902179137962"><ele>493.0</ele><time>2026-04-18T07:31:16.999Z</time></trkpt><trkpt lat="42.66874740161376" lon="11.765803408396032"><ele>493.0</ele><time>2026-04-18T07:31:17.999Z</time></trkpt><trkpt lat="42.668742622997065" lon="11.76569260009763"><ele>492.2</ele><time>2026-04-18T07:31:18.999Z</time></trkpt><trkpt lat="42.66876115697664" lon="11.765584715422673"><ele>491.4</ele><time>2026-04-18T07:31:19.999Z</time></trkpt><trkpt lat="42.668789158952876" lon="11.765475936451887"><ele>490.59999999999997</ele><time>2026-04-18T07:31:20.999Z</time></trkpt><trkpt lat="42.668823227910536" lon="11.765356544129546"><ele>489.79999999999995</ele><time>2026-04-18T07:31:21.999Z</time></trkpt><trkpt lat="42.66884937646647" lon="11.765222104495319"><ele>489.0</ele><time>2026-04-18T07:31:22.999Z</time></trkpt><trkpt lat="42.66889441750608" lon="11.76511581514956"><ele>488.3333333333333</ele><time>2026-04-18T07:31:23.999Z</time></trkpt><trkpt lat="42.668930607496954" lon="11.765010407962981"><ele>487.66666666666663</ele><time>2026-04-18T07:31:24.999Z</time></trkpt><trkpt lat="42.668969057613545" lon="11.764914274378665"><ele>487.0</ele><time>2026-04-18T07:31:25.999Z</time></trkpt><trkpt lat="42.66899588312302" lon="11.764825408530257"><ele>486.3333333333333</ele><time>2026-04-18T07:31:26.999Z</time></trkpt><trkpt lat="42.66902441236955" lon="11.764733397850197"><ele>485.66666666666663</ele><time>2026-04-18T07:31:27.999Z</time></trkpt><trkpt lat="42.66905893868673" lon="11.764565554482477"><ele>485.0</ele><time>2026-04-18T07:31:29.999Z</time></trkpt><trkpt lat="42.66906697920015" lon="11.764480127507792"><ele>484.99999999999994</ele><time>2026-04-18T07:31:30.999Z</time></trkpt><trkpt lat="42.66905764479777" lon="11.764385998737088"><ele>485.0</ele><time>2026-04-18T07:31:31.999Z</time></trkpt><trkpt lat="42.66907656657925" lon="11.764291713085388"><ele>485.0</ele><time>2026-04-18T07:31:32.999Z</time></trkpt><trkpt lat="42.66905271286801" lon="11.764183173397228"><ele>485.0</ele><time>2026-04-18T07:31:33.999Z</time></trkpt><trkpt lat="42.669045742155646" lon="11.764079421912019"><ele>484.99999999999994</ele><time>2026-04-18T07:31:34.999Z</time></trkpt><trkpt lat="42.66904005299955" lon="11.763962566806201"><ele>485.0</ele><time>2026-04-18T07:31:35.999Z</time></trkpt><trkpt lat="42.669046727241685" lon="11.76385406884249"><ele>484.3333333333333</ele><time>2026-04-18T07:31:36.999Z</time></trkpt><trkpt lat="42.669054235309936" lon="11.763766152887287"><ele>483.66666666666663</ele><time>2026-04-18T07:31:37.999Z</time></trkpt><trkpt lat="42.669071262888444" lon="11.763667861601977"><ele>483.0</ele><time>2026-04-18T07:31:40.999Z</time></trkpt><trkpt lat="42.66907405319746" lon="11.76356515025071"><ele>482.33333333333337</ele><time>2026-04-18T07:31:42.999Z</time></trkpt><trkpt lat="42.66899250285693" lon="11.76370208492057"><ele>481.6666666666667</ele><time>2026-04-18T07:31:47.999Z</time></trkpt><trkpt lat="42.66902184775214" lon="11.763591780898976"><ele>481.0</ele><time>2026-04-18T07:33:42.999Z</time></trkpt><trkpt lat="42.669056590411884" lon="11.763512581387703"><ele>479.5</ele><time>2026-04-18T07:33:50.999Z</time></trkpt><trkpt lat="42.66905738849722" lon="11.763425288858526"><ele>478.0</ele><time>2026-04-18T07:33:56.999Z</time></trkpt><trkpt lat="42.669009950478795" lon="11.763353365629643"><ele>476.5</ele><time>2026-04-18T07:35:26.914Z</time></trkpt><trkpt lat="42.66890318534106" lon="11.763406032674414"><ele>475.0</ele><time>2026-04-18T07:35:32.921Z</time></trkpt><trkpt lat="42.66911564954948" lon="11.76344247253797"><ele>475.0</ele><time>2026-04-18T07:39:53.993Z</time></trkpt><trkpt lat="42.6692155890399" lon="11.763381505878215"><ele>475.0</ele><time>2026-04-18T07:50:35Z</time></trkpt><trkpt lat="42.66914967448525" lon="11.763451949701112"><ele>475.0</ele><time>2026-04-18T07:52:31.997Z</time></trkpt><trkpt lat="42.669108437477966" lon="11.763550642628225"><ele>475.0</ele><time>2026-04-18T07:53:16.999Z</time></trkpt><trkpt lat="42.66901354115404" lon="11.76359849154514"><ele>475.0</ele><time>2026-04-18T07:55:46.999Z</time></trkpt><trkpt lat="42.66906139478817" lon="11.763524233841974"><ele>475.00000000000006</ele><time>2026-04-18T07:55:53.998Z</time></trkpt><trkpt lat="42.669090717956315" lon="11.763408301355627"><ele>475.0</ele><time>2026-04-18T07:55:55.998Z</time></trkpt><trkpt lat="42.66909489089095" lon="11.763304792521753"><ele>475.0</ele><time>2026-04-18T07:55:57.998Z</time></trkpt><trkpt lat="42.66909991902465" lon="11.763201092324573"><ele>475.0</ele><time>2026-04-18T07:55:59.998Z</time></trkpt><trkpt lat="42.669104567004894" lon="11.763109463827224"><ele>475.00000000000006</ele><time>2026-04-18T07:56:02.998Z</time></trkpt><trkpt lat="42.66903992082834" lon="11.763109393913103"><ele>475.0</ele><time>2026-04-18T07:56:05.998Z</time></trkpt><trkpt lat="42.6689849506889" lon="11.763026461879813"><ele>475.00000000000006</ele><time>2026-04-18T07:56:12.998Z</time></trkpt><trkpt lat="42.66894440685723" lon="11.76289517158279"><ele>475.0</ele><time>2026-04-18T07:56:14.998Z</time></trkpt><trkpt lat="42.66889299811519" lon="11.762808024585652"><ele>475.0</ele><time>2026-04-18T07:56:16.998Z</time></trkpt><trkpt lat="42.6688424145856" lon="11.762730100786523"><ele>475.0</ele><time>2026-04-18T07:56:18.998Z</time></trkpt><trkpt lat="42.66879901323596" lon="11.762630194992283"><ele>475.00000000000006</ele><time>2026-04-18T07:56:20.998Z</time></trkpt><trkpt lat="42.66877688007213" lon="11.762532113104752"><ele>475.0</ele><time>2026-04-18T07:56:24.998Z</time></trkpt><trkpt lat="42.66876335656202" lon="11.76266587580759"><ele>479.0</ele><time>2026-04-18T07:56:28.998Z</time></trkpt><trkpt lat="42.66884230631944" lon="11.762771983681741"><ele>475.0</ele><time>2026-04-18T07:56:30.998Z</time></trkpt><trkpt lat="42.668882350707776" lon="11.762845944194014"><ele>475.0</ele><time>2026-04-18T07:56:31.998Z</time></trkpt><trkpt lat="42.66893899649649" lon="11.762971800439681"><ele>475.0</ele><time>2026-04-18T07:56:33.998Z</time></trkpt><trkpt lat="42.66897110273805" lon="11.763061286648249"><ele>475.0</ele><time>2026-04-18T07:56:35.997Z</time></trkpt><trkpt lat="42.66901119375896" lon="11.76313997137802"><ele>475.0</ele><time>2026-04-18T07:56:39.997Z</time></trkpt></trkseg></trk></gpx>